[[{"header":{"parameterUnit":"m.s-1","parameterCategory":1,"la1":31.0,"la2":29.5877,"lo1":-88.7671,"lo2":-86.6584,"dy":0.0162,"dx":0.0185,"nx":115,"ny":88,"refTime":"2023-03-24T06:00:00:Z","depth":0,"parameterNumber":2,"parameterNumberName":"U-component_of_WINDS"},"data":[0.0,0.0,0.0,0.0,0.0,0.0,0.0,0.0,0.0,0.0,0.0,0.0,0.0,0.0,0.0,0.0,0.0,0.0,0.0,0.0,0.0,0.0,0.0,0.0,0.0,0.0,0.0,0.0,0.0,0.0,0.0,0.0,0.0,0.0,0.0,0.0,0.0,0.0,0.0,0.0,0.0,0.0,0.0,0.0,0.0,0.0,0.0,0.0,0.0,0.0,0.0,0.0,0.0,0.0,0.0,0.0,0.0,0.0,0.0,0.0,0.0,0.0,0.0,0.0,0.0,0.0,0.0,0.0,0.0,0.0,0.0,0.0,0.0,0.0,0.0,0.0,0.0,0.0,0.0,0.0,0.0,0.0,0.0,0.0,0.0,0.0,0.0,0.0,0.0,0.0,0.0,0.0,0.0,0.0,0.0,0.0,0.0,0.0,0.0,0.0,0.0,0.0,0.0,0.0,0.0,0.0,0.0,0.0,0.0,0.0,0.0,0.0,0.0,0.0,0.0,0.0,0.0,0.0,0.0,0.0,0.0,0.0,0.0,0.0,0.0,0.0,0.0,0.0,0.0,0.0,0.0,0.0,0.0,0.0,0.0,0.0,0.0,0.0,0.0,0.0,0.0,0.0,0.0,0.0,0.0,0.0,0.0,0.0,0.0,0.0,0.0,0.0,0.0,0.0,0.0,0.0,0.0,0.0,0.0,0.0,0.0,0.0,0.0,0.0,0.0,0.0,0.0,0.0,0.0,0.0,0.0,0.0,0.0,0.0,0.0,0.0,0.0,0.0,0.0,0.0,0.0,0.0,0.0,0.0,0.0,0.0,0.0,0.0,0.0,0.0,0.0,0.0,0.0,0.0,0.0,0.0,0.0,0.0,0.0,0.0,0.0,0.0,0.0,0.0,0.0,0.0,0.0,0.0,0.0,0.0,0.0,0.0,0.0,0.0,0.0,0.0,0.0,0.0,0.0,0.0,0.0,0.0,0.0,0.0,0.0,0.0,0.0,0.0,0.0,0.0,0.0,0.0,0.0,0.0,0.0,0.0,0.0,0.0,0.0,0.0,0.0,0.0,0.0,0.0,0.0,0.0,0.0,0.0,0.0,0.0,0.0,0.0,0.0,0.0,0.0,0.0,0.0,0.0,0.0,0.0,0.0,0.0,0.0,0.0,0.0,0.0,0.0,0.0,0.0,0.0,0.0,0.0,0.0,0.0,0.0,0.0,0.0,0.0,0.0,0.0,0.0,0.0,0.0,0.0,0.0,0.0,0.0,0.0,0.0,0.0,0.0,0.0,0.0,0.0,0.0,0.0,0.0,0.0,0.0,0.0,0.0,0.0,0.0,0.0,0.0,0.0,0.0,0.0,0.0,0.0,0.0,0.0,0.0,0.0,0.0,0.0,0.0,0.0,0.0,0.0,0.0,0.0,0.0,0.0,0.0,0.0,0.0,0.0,0.0,0.0,0.0,0.0,0.0,0.0,0.0,0.0,0.0,0.0,0.0,0.0,0.0,0.0,0.0,0.0,0.0,0.0,0.0,0.0,0.0,0.0,0.0,0.0,0.0,0.0,0.0,0.0,0.0,0.0,0.0,0.0,0.0,0.0,0.0,0.0,0.0,0.0,0.0,0.0,0.0,0.0,0.0,0.0,0.0,0.0,0.0,0.0,0.0,0.0,0.0,0.0,0.0,0.0,0.0,0.0,0.0,0.0,0.0,0.0,0.0,0.0,0.0,0.0,0.0,0.0,0.0,0.0,0.0,0.0,0.0,0.0,0.0,0.0,0.0,0.0,0.0,0.0,0.0,0.0,0.0,0.0,0.0,0.0,0.0,0.0,0.0,0.0,0.0,0.0,0.0,0.0,0.0,0.0,0.0,0.0,0.0,0.0,0.0,0.0,0.0,0.0,0.0,0.0,0.0,0.0,0.0,0.0,0.0,0.0,0.0,0.0,0.0,0.0,0.0,0.0,0.0,0.0,0.0,0.0,0.0,0.0,0.0,0.0,0.0,0.0,0.0,0.0,0.0,0.0,0.0,0.0,0.0,0.0,0.0,0.0,0.0,0.0,0.0,0.0,0.0,0.0,0.0,0.0,0.0,0.0,0.0,0.0,0.0,0.0,0.0,0.0,0.0,0.0,0.0,0.0,0.0,0.0,0.0,0.0,0.0,0.0,0.0,0.0,0.0,0.0,0.0,0.0,0.0,0.0,0.0,0.0,0.0,0.0,0.0,0.0,0.0,0.0,0.0,0.0,0.0,0.0,0.0,0.0,0.0,0.0,0.0,0.0,0.0,0.0,0.0,0.0,0.0,0.0,0.0,0.0,0.0,0.0,0.0,0.0,0.0,0.0,0.0,0.0,0.0,0.0,0.0,0.0,0.0,0.0,0.0,0.0,0.0,0.0,0.0,0.0,0.0,0.0,0.0,0.0,0.0,0.0,0.0,0.0,0.0,0.0,0.0,0.0,0.0,0.0,0.0,0.0,0.0,0.0,0.0,0.0,0.0,0.0,0.0,0.0,0.0,0.0,0.0,0.0,0.0,0.0,0.0,0.0,0.0,0.0,0.0,0.0,0.0,0.0,0.0,0.0,0.0,0.0,0.0,0.0,0.0,0.0,0.0,0.0,0.0,0.0,0.0,0.0,0.0,0.0,0.0,0.0,0.0,0.0,0.0,0.0,0.0,0.0,0.0,0.0,0.0,0.0,0.0,0.0,0.0,0.0,0.0,0.0,0.0,0.0,0.0,0.0,0.0,0.0,0.0,0.0,0.0,0.0,0.0,0.0,0.0,0.0,0.0,0.0,0.0,0.0,0.0,0.0,0.0,0.0,0.0,0.0,0.0,0.0,0.0,0.0,0.0,0.0,0.0,0.0,0.0,0.0,0.0,0.0,0.0,0.0,0.0,0.0,0.0,0.0,0.0,0.0,0.0,0.0,0.0,0.0,0.0,0.0,0.0,0.0,0.0,0.0,0.0,0.0,0.0,0.0,0.0,0.0,0.0,0.0,0.0,0.0,0.0,0.0,0.0,0.0,0.0,0.0,0.0,0.0,0.0,0.0,0.0,0.0,0.0,0.0,0.0,0.0,0.0,0.0,0.0,0.0,0.0,0.0,0.0,0.0,0.0,0.0,0.0,0.0,0.0,0.0,0.0,0.0,0.0,0.0,0.0,0.0,0.0,0.0,0.0,0.0,0.0,0.0,0.0,0.0,0.0,0.0,0.0,0.0,0.0,0.0,0.0,0.0,0.0,0.0,0.0,0.0,0.0,0.0,0.0,0.0,0.0,0.0,0.0,0.0,0.0,0.0,0.0,0.0,0.0,0.0,0.0,0.0,0.0,0.0,0.0,0.0,0.0,0.0,0.0,0.0,0.0,0.0,0.0,0.0,0.0,0.0,0.0,0.0,0.0,0.0,0.0,0.0,0.0,0.0,0.0,0.0,0.0,0.0,0.0,0.0,0.0,0.0,0.0,0.0,0.0,0.0,0.0,0.0,0.0,0.0,0.0,0.0,0.0,0.0,0.0,0.0,0.0,0.0,0.0,0.0,0.0,0.0,0.0,0.0,0.0,0.0,0.0,0.0,0.0,0.0,0.0,0.0,0.0,0.0,0.0,0.0,0.0,0.0,0.0,0.0,0.0,0.0,0.0,0.0,0.0,0.0,0.0,0.0,0.0,0.0,0.0,0.0,0.0,0.0,0.0,0.0,0.0,0.0,0.0,0.0,0.0,0.0,0.0,0.0,0.0,0.0,0.0,0.0,0.0,0.0,0.0,0.0,0.0,0.0,0.0,0.0,0.0,0.0,0.0,0.0,0.0,0.0,0.0,0.0,0.0,0.0,0.0,0.0,0.0,0.0,0.0,0.0,0.0,0.0,0.0,0.0,0.0,0.0,0.0,0.0,0.0,0.0,0.0,0.0,0.0,0.0,0.0,0.0,0.0,0.0,0.0,0.0,0.0,0.0,0.0,0.0,0.0,0.0,0.0,0.0,0.0,0.0,0.0,0.0,0.0,0.0,0.0,0.0,0.0,0.0,0.0,0.0,0.0,0.0,0.0,0.0,0.0,0.0,0.0,0.0,0.0,0.0,0.0,0.0,0.0,0.0,0.0,0.0,0.0,0.0,0.0,0.0,0.0,0.0,0.0,0.0,0.0,0.0,0.0,0.0,0.0,0.0,0.0,0.0,0.0,0.0,0.0,0.0,0.0,0.0,0.0,0.0,0.0,0.0,0.0,0.0,0.0,0.0,0.0,0.0,0.0,0.0,0.0,0.0,0.0,0.0,-2.5936,0.0,0.0,0.0,0.0,0.0,0.0,0.0,0.0,0.0,0.0,0.0,0.0,0.0,0.0,0.0,0.0,0.0,0.0,0.0,0.0,0.0,0.0,0.0,0.0,0.0,0.0,0.0,0.0,0.0,0.0,0.0,0.0,0.0,0.0,0.0,0.0,0.0,0.0,0.0,0.0,0.0,0.0,0.0,0.0,0.0,0.0,0.0,0.0,0.0,0.0,0.0,0.0,0.0,0.0,0.0,0.0,0.0,0.0,0.0,0.0,0.0,0.0,0.0,0.0,0.0,0.0,0.0,0.0,0.0,0.0,0.0,0.0,0.0,0.0,0.0,0.0,0.0,0.0,0.0,0.0,0.0,0.0,0.0,0.0,0.0,0.0,0.0,0.0,0.0,0.0,0.0,0.0,0.0,0.0,0.0,0.0,0.0,0.0,0.0,0.0,0.0,0.0,0.0,0.0,0.0,0.0,0.0,0.0,0.0,0.0,-2.577,-2.5791,-2.577,-2.5824,-2.5952,0.0,0.0,0.0,0.0,0.0,0.0,0.0,0.0,0.0,0.0,0.0,0.0,0.0,0.0,0.0,0.0,0.0,0.0,0.0,0.0,0.0,0.0,0.0,0.0,0.0,0.0,0.0,0.0,0.0,0.0,0.0,0.0,0.0,0.0,0.0,0.0,0.0,0.0,0.0,0.0,0.0,0.0,0.0,0.0,0.0,0.0,0.0,0.0,0.0,0.0,0.0,0.0,0.0,0.0,0.0,0.0,0.0,0.0,0.0,0.0,0.0,0.0,0.0,0.0,0.0,0.0,0.0,0.0,0.0,0.0,0.0,0.0,0.0,0.0,0.0,0.0,0.0,0.0,0.0,0.0,0.0,0.0,0.0,0.0,0.0,0.0,0.0,0.0,0.0,0.0,0.0,0.0,0.0,0.0,0.0,0.0,0.0,0.0,0.0,0.0,0.0,0.0,0.0,0.0,0.0,0.0,0.0,0.0,0.0,0.0,0.0,0.0,-2.5807,-2.5881,-2.5934,0.0,0.0,0.0,0.0,0.0,0.0,0.0,0.0,0.0,0.0,0.0,0.0,0.0,0.0,0.0,0.0,0.0,0.0,0.0,0.0,0.0,0.0,0.0,0.0,0.0,0.0,0.0,0.0,0.0,0.0,0.0,0.0,0.0,0.0,0.0,0.0,0.0,0.0,0.0,0.0,0.0,0.0,0.0,0.0,0.0,0.0,0.0,0.0,0.0,0.0,0.0,0.0,0.0,0.0,0.0,0.0,0.0,0.0,0.0,0.0,0.0,0.0,0.0,0.0,0.0,0.0,0.0,0.0,0.0,0.0,0.0,0.0,0.0,0.0,0.0,0.0,0.0,0.0,0.0,0.0,0.0,0.0,0.0,0.0,0.0,0.0,0.0,0.0,0.0,0.0,0.0,0.0,0.0,0.0,0.0,0.0,0.0,0.0,0.0,0.0,0.0,0.0,0.0,0.0,0.0,0.0,0.0,0.0,0.0,0.0,-2.5701,-2.5701,-2.5719,0.0,-2.6023,0.0,0.0,0.0,0.0,0.0,0.0,0.0,0.0,0.0,0.0,0.0,0.0,0.0,0.0,0.0,0.0,0.0,0.0,0.0,0.0,0.0,0.0,0.0,0.0,0.0,0.0,0.0,0.0,0.0,0.0,0.0,0.0,0.0,0.0,0.0,0.0,0.0,0.0,0.0,0.0,0.0,0.0,0.0,0.0,0.0,0.0,0.0,0.0,0.0,0.0,0.0,0.0,0.0,0.0,0.0,0.0,0.0,0.0,0.0,0.0,0.0,0.0,0.0,0.0,0.0,0.0,0.0,0.0,0.0,0.0,0.0,0.0,0.0,0.0,0.0,0.0,0.0,0.0,0.0,0.0,0.0,0.0,0.0,0.0,0.0,0.0,0.0,0.0,0.0,0.0,0.0,0.0,0.0,0.0,0.0,0.0,0.0,0.0,0.0,0.0,0.0,0.0,0.0,0.0,0.0,0.0,0.0,0.0,0.0,0.0,-2.5772,-2.5701,-2.5883,-2.6043,0.0,0.0,0.0,0.0,0.0,0.0,0.0,0.0,0.0,0.0,0.0,0.0,0.0,0.0,0.0,0.0,0.0,0.0,0.0,0.0,0.0,0.0,0.0,0.0,0.0,0.0,0.0,0.0,0.0,0.0,0.0,0.0,0.0,0.0,0.0,0.0,0.0,0.0,0.0,0.0,0.0,0.0,0.0,0.0,0.0,0.0,0.0,0.0,0.0,0.0,0.0,0.0,0.0,0.0,0.0,0.0,0.0,0.0,0.0,0.0,0.0,0.0,0.0,0.0,0.0,0.0,0.0,0.0,0.0,0.0,0.0,0.0,0.0,0.0,0.0,0.0,0.0,0.0,0.0,0.0,0.0,0.0,0.0,0.0,0.0,0.0,0.0,0.0,0.0,0.0,0.0,0.0,0.0,0.0,0.0,0.0,0.0,0.0,0.0,0.0,0.0,0.0,0.0,0.0,0.0,0.0,0.0,0.0,0.0,0.0,-2.5807,-2.5864,-2.5862,-2.6079,-2.622,-2.6205,0.0,0.0,0.0,0.0,0.0,0.0,0.0,0.0,0.0,0.0,0.0,0.0,0.0,0.0,0.0,0.0,0.0,0.0,0.0,0.0,0.0,0.0,0.0,0.0,0.0,0.0,0.0,0.0,0.0,0.0,0.0,0.0,0.0,0.0,0.0,0.0,0.0,0.0,0.0,0.0,0.0,0.0,0.0,0.0,0.0,0.0,0.0,0.0,0.0,0.0,0.0,0.0,0.0,0.0,0.0,0.0,0.0,0.0,0.0,0.0,0.0,0.0,0.0,0.0,0.0,0.0,0.0,0.0,0.0,0.0,0.0,0.0,0.0,0.0,0.0,0.0,0.0,0.0,0.0,0.0,0.0,0.0,0.0,0.0,0.0,0.0,0.0,0.0,0.0,0.0,0.0,0.0,0.0,0.0,0.0,0.0,0.0,0.0,0.0,0.0,0.0,0.0,0.0,0.0,0.0,0.0,0.0,0.0,-2.5701,-2.5793,-2.5989,-2.6133,-2.6185,-2.6222,0.0,0.0,0.0,0.0,0.0,0.0,0.0,0.0,0.0,0.0,0.0,0.0,0.0,0.0,0.0,0.0,0.0,0.0,0.0,0.0,0.0,0.0,0.0,0.0,0.0,0.0,0.0,0.0,0.0,0.0,0.0,0.0,0.0,0.0,0.0,0.0,0.0,0.0,0.0,0.0,0.0,0.0,0.0,0.0,0.0,0.0,0.0,0.0,0.0,0.0,0.0,0.0,0.0,0.0,0.0,0.0,0.0,0.0,0.0,0.0,0.0,0.0,0.0,0.0,0.0,0.0,0.0,0.0,0.0,0.0,0.0,0.0,0.0,0.0,0.0,0.0,0.0,0.0,0.0,0.0,0.0,0.0,0.0,0.0,0.0,0.0,0.0,0.0,0.0,0.0,0.0,0.0,0.0,0.0,0.0,0.0,0.0,0.0,0.0,0.0,0.0,0.0,0.0,0.0,0.0,0.0,0.0,0.0,0.0,-2.5106,-2.4717,-2.4753,-2.5283,-2.4975,-2.4961,0.0,0.0,0.0,0.0,0.0,0.0,0.0,0.0,0.0,0.0,0.0,0.0,0.0,0.0,0.0,0.0,0.0,0.0,0.0,0.0,0.0,0.0,0.0,0.0,0.0,0.0,0.0,0.0,0.0,0.0,0.0,0.0,0.0,0.0,0.0,0.0,0.0,0.0,0.0,0.0,0.0,0.0,0.0,0.0,0.0,0.0,0.0,0.0,0.0,0.0,0.0,0.0,0.0,0.0,0.0,0.0,0.0,0.0,0.0,0.0,0.0,0.0,0.0,0.0,0.0,0.0,0.0,0.0,0.0,0.0,0.0,0.0,0.0,0.0,0.0,0.0,0.0,0.0,0.0,0.0,0.0,0.0,0.0,0.0,0.0,0.0,0.0,0.0,0.0,0.0,0.0,0.0,0.0,0.0,0.0,0.0,0.0,0.0,0.0,0.0,0.0,0.0,0.0,0.0,0.0,0.0,0.0,0.0,0.0,-2.4783,0.0,-2.4606,0.0,-2.4562,-2.4447,0.0,0.0,0.0,0.0,0.0,0.0,0.0,0.0,0.0,0.0,0.0,0.0,0.0,0.0,0.0,0.0,0.0,0.0,0.0,0.0,0.0,0.0,0.0,0.0,0.0,0.0,0.0,0.0,0.0,0.0,0.0,0.0,0.0,0.0,0.0,0.0,0.0,0.0,0.0,0.0,0.0,0.0,0.0,0.0,0.0,0.0,0.0,0.0,0.0,0.0,0.0,0.0,0.0,0.0,0.0,0.0,0.0,0.0,0.0,0.0,0.0,0.0,0.0,0.0,0.0,0.0,0.0,0.0,0.0,0.0,0.0,0.0,0.0,0.0,0.0,0.0,0.0,0.0,0.0,0.0,0.0,0.0,0.0,0.0,0.0,0.0,0.0,0.0,0.0,0.0,0.0,0.0,0.0,0.0,0.0,0.0,0.0,0.0,0.0,0.0,0.0,0.0,0.0,0.0,0.0,0.0,0.0,0.0,-2.4751,-2.4767,-2.5478,-2.5549,-2.5092,-2.501,-2.4746,0.0,0.0,0.0,0.0,0.0,0.0,0.0,0.0,0.0,0.0,0.0,0.0,0.0,0.0,0.0,0.0,0.0,0.0,0.0,0.0,0.0,0.0,0.0,0.0,0.0,0.0,0.0,0.0,0.0,0.0,0.0,0.0,0.0,0.0,0.0,0.0,0.0,0.0,0.0,0.0,0.0,0.0,0.0,0.0,0.0,0.0,0.0,0.0,0.0,0.0,0.0,0.0,0.0,0.0,0.0,0.0,0.0,0.0,0.0,0.0,0.0,0.0,0.0,0.0,0.0,0.0,0.0,0.0,0.0,0.0,0.0,0.0,0.0,0.0,0.0,0.0,0.0,0.0,0.0,0.0,0.0,0.0,0.0,0.0,0.0,0.0,0.0,0.0,0.0,0.0,0.0,0.0,0.0,0.0,0.0,0.0,0.0,0.0,0.0,0.0,0.0,0.0,0.0,0.0,0.0,0.0,0.0,0.0,0.0,-2.3176,-2.3964,-2.4453,-2.4522,-2.3867,-2.3621,0.0,0.0,0.0,0.0,0.0,0.0,0.0,0.0,0.0,0.0,0.0,0.0,0.0,0.0,0.0,0.0,0.0,0.0,0.0,0.0,0.0,0.0,0.0,0.0,0.0,0.0,0.0,0.0,0.0,0.0,0.0,0.0,0.0,0.0,0.0,0.0,0.0,0.0,0.0,0.0,0.0,0.0,0.0,0.0,0.0,0.0,0.0,0.0,0.0,0.0,0.0,0.0,0.0,0.0,0.0,0.0,0.0,0.0,0.0,0.0,0.0,0.0,0.0,0.0,0.0,0.0,0.0,0.0,0.0,0.0,0.0,0.0,0.0,0.0,0.0,0.0,0.0,0.0,0.0,0.0,0.0,0.0,0.0,0.0,0.0,0.0,0.0,0.0,0.0,0.0,0.0,0.0,0.0,0.0,0.0,0.0,0.0,0.0,0.0,0.0,0.0,0.0,0.0,0.0,0.0,0.0,0.0,0.0,0.0,-2.3415,-2.4642,-2.5281,-2.5177,-2.4456,-2.3984,-2.3752,0.0,0.0,0.0,0.0,0.0,0.0,0.0,0.0,0.0,0.0,0.0,0.0,0.0,0.0,0.0,0.0,0.0,0.0,0.0,0.0,0.0,0.0,0.0,0.0,0.0,0.0,0.0,0.0,0.0,0.0,0.0,0.0,0.0,0.0,0.0,0.0,0.0,0.0,0.0,0.0,0.0,0.0,0.0,0.0,0.0,0.0,0.0,0.0,0.0,0.0,0.0,0.0,0.0,0.0,0.0,0.0,0.0,0.0,0.0,0.0,0.0,0.0,0.0,0.0,0.0,0.0,0.0,0.0,0.0,0.0,0.0,0.0,0.0,0.0,0.0,0.0,0.0,0.0,0.0,0.0,0.0,0.0,0.0,0.0,0.0,0.0,0.0,0.0,0.0,0.0,0.0,0.0,0.0,0.0,0.0,0.0,0.0,0.0,0.0,0.0,0.0,0.0,0.0,0.0,0.0,0.0,0.0,0.0,-2.5084,-2.7194,-2.78,-2.6763,-2.6451,-2.5575,0.0,0.0,0.0,0.0,0.0,0.0,0.0,0.0,0.0,0.0,0.0,0.0,0.0,0.0,0.0,0.0,0.0,0.0,0.0,0.0,0.0,0.0,0.0,0.0,0.0,0.0,0.0,0.0,0.0,0.0,0.0,0.0,0.0,0.0,0.0,0.0,0.0,0.0,0.0,0.0,0.0,0.0,0.0,0.0,0.0,0.0,0.0,0.0,0.0,0.0,0.0,0.0,0.0,0.0,0.0,0.0,0.0,0.0,0.0,0.0,0.0,0.0,0.0,0.0,0.0,0.0,0.0,0.0,0.0,0.0,0.0,0.0,0.0,0.0,0.0,0.0,0.0,0.0,0.0,0.0,0.0,0.0,0.0,0.0,0.0,0.0,0.0,0.0,0.0,0.0,0.0,0.0,0.0,0.0,0.0,0.0,0.0,0.0,0.0,0.0,0.0,0.0,0.0,0.0,0.0,0.0,0.0,0.0,0.0,-2.738,-2.9617,-3.0074,-2.8488,-2.7199,-2.6333,0.0,0.0,0.0,0.0,0.0,0.0,0.0,0.0,0.0,0.0,0.0,0.0,0.0,0.0,0.0,0.0,0.0,0.0,0.0,0.0,0.0,0.0,0.0,0.0,0.0,0.0,0.0,0.0,0.0,0.0,0.0,0.0,0.0,0.0,0.0,0.0,0.0,0.0,0.0,0.0,0.0,0.0,0.0,0.0,0.0,0.0,0.0,0.0,0.0,0.0,0.0,0.0,0.0,0.0,0.0,0.0,0.0,0.0,0.0,0.0,0.0,0.0,0.0,0.0,0.0,0.0,0.0,0.0,0.0,0.0,0.0,0.0,0.0,0.0,0.0,0.0,0.0,0.0,0.0,0.0,0.0,0.0,0.0,0.0,0.0,0.0,0.0,0.0,0.0,0.0,0.0,0.0,0.0,0.0,0.0,0.0,0.0,0.0,0.0,0.0,0.0,0.0,0.0,0.0,0.0,0.0,0.0,0.0,-2.6904,-2.7658,-3.0505,-3.1652,-3.0891,-2.8709,-2.7361,0.0,0.0,0.0,0.0,0.0,0.0,0.0,0.0,0.0,0.0,0.0,0.0,0.0,0.0,0.0,0.0,0.0,0.0,0.0,0.0,0.0,0.0,0.0,0.0,0.0,0.0,0.0,0.0,0.0,0.0,0.0,0.0,0.0,0.0,0.0,0.0,0.0,0.0,0.0,0.0,0.0,0.0,0.0,0.0,0.0,0.0,0.0,0.0,0.0,0.0,0.0,0.0,0.0,0.0,0.0,0.0,0.0,0.0,0.0,0.0,0.0,0.0,0.0,0.0,0.0,0.0,0.0,0.0,0.0,0.0,0.0,0.0,0.0,0.0,0.0,0.0,0.0,0.0,0.0,0.0,0.0,0.0,0.0,0.0,0.0,0.0,0.0,0.0,0.0,0.0,0.0,0.0,0.0,0.0,0.0,0.0,0.0,0.0,0.0,0.0,0.0,0.0,0.0,0.0,0.0,0.0,0.0,0.0,-2.7131,-2.707,-3.0472,-3.2592,-3.3072,-3.0362,-2.8488,0.0,0.0,0.0,0.0,0.0,0.0,0.0,0.0,0.0,0.0,0.0,0.0,0.0,0.0,0.0,0.0,0.0,0.0,0.0,0.0,0.0,0.0,0.0,0.0,0.0,0.0,0.0,0.0,0.0,0.0,0.0,0.0,0.0,0.0,0.0,0.0,0.0,0.0,0.0,0.0,0.0,0.0,0.0,0.0,0.0,0.0,0.0,0.0,0.0,0.0,0.0,0.0,0.0,0.0,0.0,0.0,0.0,0.0,0.0,0.0,0.0,0.0,0.0,0.0,0.0,0.0,0.0,0.0,0.0,0.0,0.0,0.0,0.0,0.0,0.0,0.0,0.0,0.0,0.0,0.0,0.0,0.0,0.0,0.0,0.0,0.0,0.0,0.0,0.0,0.0,0.0,0.0,0.0,0.0,0.0,0.0,0.0,0.0,0.0,0.0,0.0,0.0,0.0,0.0,0.0,0.0,0.0,0.0,-2.7358,-2.7883,-3.0749,-3.2355,-3.2497,-3.0267,-2.907,0.0,0.0,0.0,0.0,0.0,0.0,0.0,0.0,0.0,0.0,0.0,0.0,0.0,0.0,0.0,0.0,0.0,0.0,0.0,0.0,0.0,0.0,0.0,0.0,0.0,0.0,0.0,0.0,0.0,0.0,0.0,0.0,0.0,0.0,0.0,0.0,0.0,0.0,0.0,0.0,0.0,0.0,0.0,0.0,0.0,0.0,0.0,0.0,-3.4119,0.0,0.0,0.0,0.0,0.0,0.0,0.0,0.0,0.0,0.0,0.0,0.0,0.0,0.0,0.0,0.0,0.0,0.0,0.0,0.0,0.0,0.0,0.0,0.0,0.0,0.0,0.0,0.0,0.0,0.0,0.0,0.0,0.0,0.0,0.0,0.0,0.0,0.0,0.0,0.0,0.0,0.0,0.0,0.0,0.0,0.0,0.0,0.0,0.0,0.0,0.0,0.0,0.0,0.0,0.0,0.0,0.0,0.0,0.0,-2.6735,-2.8079,-3.0204,-3.1453,-3.1722,-3.0321,-2.95,0.0,0.0,0.0,0.0,0.0,0.0,0.0,0.0,0.0,0.0,0.0,0.0,0.0,0.0,0.0,0.0,0.0,0.0,0.0,0.0,0.0,0.0,0.0,0.0,0.0,0.0,0.0,0.0,0.0,0.0,0.0,0.0,0.0,0.0,0.0,0.0,0.0,0.0,0.0,0.0,0.0,0.0,0.0,0.0,0.0,0.0,0.0,0.0,0.0,0.0,0.0,0.0,0.0,0.0,0.0,0.0,0.0,0.0,0.0,0.0,0.0,0.0,0.0,0.0,0.0,0.0,0.0,0.0,0.0,0.0,0.0,0.0,0.0,0.0,0.0,0.0,0.0,0.0,0.0,0.0,0.0,0.0,0.0,0.0,0.0,0.0,0.0,0.0,0.0,0.0,0.0,0.0,0.0,0.0,0.0,0.0,0.0,0.0,0.0,0.0,0.0,0.0,0.0,0.0,0.0,0.0,0.0,-2.5033,-2.6045,-2.8189,-2.9516,-3.048,-3.1033,-3.0368,-2.9769,-2.9169,0.0,0.0,0.0,0.0,0.0,0.0,0.0,0.0,0.0,0.0,0.0,0.0,0.0,0.0,0.0,0.0,0.0,0.0,0.0,0.0,0.0,0.0,0.0,0.0,0.0,0.0,0.0,0.0,0.0,0.0,0.0,0.0,0.0,0.0,0.0,0.0,0.0,0.0,-3.0968,-3.2148,0.0,0.0,0.0,0.0,0.0,0.0,0.0,0.0,-3.456,0.0,0.0,0.0,0.0,0.0,0.0,0.0,0.0,0.0,0.0,0.0,0.0,0.0,0.0,0.0,0.0,0.0,0.0,0.0,0.0,0.0,0.0,0.0,0.0,0.0,0.0,0.0,0.0,0.0,0.0,0.0,0.0,0.0,0.0,0.0,0.0,0.0,0.0,0.0,0.0,0.0,0.0,0.0,0.0,0.0,0.0,0.0,0.0,0.0,0.0,0.0,0.0,0.0,0.0,0.0,0.0,-2.5803,-2.5286,-2.6282,-2.8861,-2.9769,-3.0251,-3.0362,-3.0243,-2.9704,-2.8666,0.0,0.0,0.0,0.0,0.0,0.0,0.0,0.0,0.0,0.0,0.0,0.0,0.0,0.0,0.0,0.0,0.0,0.0,0.0,0.0,0.0,0.0,0.0,0.0,0.0,0.0,0.0,0.0,0.0,0.0,0.0,0.0,0.0,0.0,0.0,0.0,0.0,0.0,0.0,-3.3037,-3.3502,0.0,0.0,0.0,0.0,0.0,0.0,0.0,0.0,-3.5429,0.0,0.0,0.0,0.0,0.0,0.0,0.0,0.0,0.0,0.0,0.0,0.0,0.0,0.0,0.0,0.0,0.0,0.0,0.0,0.0,0.0,0.0,0.0,0.0,0.0,0.0,0.0,0.0,0.0,0.0,0.0,0.0,0.0,0.0,0.0,0.0,0.0,0.0,0.0,0.0,0.0,0.0,0.0,0.0,0.0,0.0,0.0,0.0,0.0,0.0,0.0,0.0,0.0,0.0,0.0,-2.5893,-2.5978,-2.695,-2.8911,-2.963,-2.9867,-2.9666,-2.9975,-2.9488,0.0,0.0,0.0,0.0,0.0,0.0,0.0,0.0,0.0,0.0,0.0,0.0,0.0,0.0,0.0,0.0,0.0,0.0,0.0,0.0,0.0,0.0,0.0,0.0,0.0,0.0,0.0,0.0,0.0,0.0,0.0,0.0,0.0,0.0,0.0,0.0,0.0,0.0,0.0,0.0,-3.3826,-3.4498,-3.6007,0.0,0.0,0.0,0.0,0.0,0.0,-3.5551,-3.5663,0.0,0.0,0.0,0.0,0.0,0.0,0.0,0.0,0.0,0.0,0.0,0.0,0.0,0.0,0.0,0.0,0.0,0.0,0.0,0.0,0.0,0.0,0.0,0.0,0.0,0.0,0.0,0.0,0.0,0.0,0.0,0.0,0.0,0.0,0.0,0.0,0.0,0.0,0.0,0.0,0.0,0.0,0.0,0.0,0.0,0.0,0.0,0.0,0.0,0.0,0.0,0.0,0.0,0.0,0.0,-2.5762,-2.6529,-2.7576,-2.8872,-2.9432,-2.9477,-2.9121,-2.9414,-2.8993,0.0,0.0,0.0,0.0,0.0,0.0,0.0,0.0,0.0,0.0,0.0,0.0,0.0,0.0,0.0,0.0,0.0,0.0,0.0,0.0,0.0,0.0,0.0,0.0,0.0,0.0,0.0,0.0,0.0,0.0,0.0,0.0,0.0,0.0,0.0,0.0,0.0,0.0,0.0,0.0,0.0,-3.5436,-3.6861,-3.6079,0.0,0.0,0.0,0.0,-3.5822,-3.6083,0.0,0.0,0.0,0.0,0.0,0.0,0.0,0.0,0.0,0.0,0.0,0.0,0.0,0.0,0.0,0.0,0.0,0.0,0.0,0.0,0.0,0.0,0.0,0.0,0.0,0.0,0.0,0.0,0.0,0.0,0.0,0.0,0.0,0.0,0.0,0.0,0.0,0.0,0.0,0.0,0.0,0.0,0.0,0.0,0.0,0.0,0.0,0.0,0.0,0.0,0.0,0.0,0.0,0.0,0.0,0.0,-2.5112,-2.6299,-2.7614,-2.8996,-2.9144,-2.9167,-2.9098,-2.8216,-2.7754,0.0,0.0,0.0,0.0,0.0,0.0,0.0,0.0,0.0,0.0,0.0,0.0,0.0,0.0,0.0,0.0,0.0,0.0,0.0,0.0,0.0,0.0,0.0,0.0,0.0,0.0,0.0,0.0,0.0,0.0,0.0,0.0,0.0,0.0,0.0,0.0,0.0,0.0,0.0,0.0,0.0,-3.5473,-3.7143,-3.6096,-3.4953,0.0,0.0,-3.6806,-3.6537,-3.7708,0.0,0.0,0.0,0.0,0.0,0.0,0.0,0.0,0.0,0.0,0.0,0.0,0.0,0.0,0.0,0.0,0.0,0.0,0.0,0.0,0.0,0.0,0.0,0.0,0.0,0.0,0.0,0.0,0.0,0.0,0.0,0.0,0.0,0.0,0.0,0.0,0.0,0.0,0.0,0.0,0.0,0.0,0.0,0.0,0.0,0.0,0.0,0.0,0.0,0.0,0.0,0.0,0.0,0.0,0.0,-2.4353,-2.4953,-2.6936,-2.8302,-2.8912,-2.9305,-2.938,-2.9098,-2.8222,-2.7709,0.0,0.0,0.0,0.0,0.0,0.0,0.0,0.0,0.0,0.0,0.0,0.0,0.0,0.0,0.0,0.0,0.0,0.0,0.0,0.0,0.0,0.0,0.0,0.0,0.0,0.0,0.0,0.0,0.0,0.0,0.0,0.0,0.0,0.0,0.0,0.0,0.0,0.0,0.0,0.0,0.0,0.0,-3.7039,-3.6603,0.0,0.0,0.0,-3.6802,-3.5933,0.0,0.0,0.0,0.0,0.0,0.0,0.0,0.0,0.0,0.0,0.0,0.0,0.0,0.0,0.0,0.0,0.0,0.0,0.0,0.0,0.0,0.0,0.0,0.0,0.0,0.0,0.0,0.0,0.0,0.0,0.0,0.0,0.0,0.0,0.0,0.0,0.0,0.0,0.0,0.0,0.0,0.0,0.0,0.0,0.0,0.0,0.0,0.0,0.0,0.0,0.0,0.0,0.0,0.0,0.0,0.0,0.0,-2.4858,-2.742,-2.8771,-2.8826,-2.9335,-2.9432,-2.9106,-2.8447,0.0,0.0,0.0,0.0,0.0,0.0,0.0,0.0,0.0,0.0,0.0,0.0,0.0,0.0,0.0,0.0,0.0,0.0,0.0,0.0,0.0,0.0,0.0,0.0,0.0,0.0,0.0,-3.1913,0.0,0.0,0.0,0.0,0.0,0.0,0.0,0.0,0.0,0.0,0.0,0.0,0.0,0.0,-3.7011,-3.6952,-3.7031,-3.7154,0.0,0.0,-3.6864,-3.6219,-3.8043,-3.8698,0.0,0.0,0.0,0.0,0.0,0.0,0.0,0.0,0.0,0.0,0.0,0.0,0.0,0.0,0.0,0.0,0.0,0.0,0.0,0.0,0.0,0.0,0.0,0.0,0.0,0.0,0.0,0.0,0.0,0.0,0.0,0.0,0.0,0.0,0.0,0.0,0.0,0.0,0.0,0.0,0.0,0.0,0.0,0.0,0.0,0.0,0.0,0.0,0.0,0.0,0.0,0.0,0.0,0.0,0.0,-2.4876,-2.7314,-2.87,-2.8897,-2.8928,-2.9013,-2.9098,-2.865,-2.811,0.0,0.0,0.0,0.0,0.0,0.0,0.0,0.0,0.0,0.0,0.0,0.0,0.0,0.0,0.0,0.0,0.0,0.0,0.0,0.0,0.0,0.0,0.0,0.0,0.0,0.0,0.0,0.0,0.0,0.0,0.0,0.0,0.0,0.0,0.0,0.0,0.0,0.0,0.0,0.0,0.0,-3.6888,-3.7054,-3.6974,-3.7356,0.0,0.0,-3.7323,-3.8463,-3.9811,-3.9914,-3.7388,0.0,0.0,0.0,0.0,0.0,0.0,0.0,0.0,0.0,0.0,0.0,0.0,0.0,0.0,0.0,0.0,0.0,0.0,0.0,0.0,0.0,0.0,0.0,0.0,0.0,0.0,0.0,0.0,0.0,0.0,0.0,0.0,0.0,0.0,0.0,0.0,0.0,0.0,0.0,0.0,0.0,0.0,0.0,0.0,0.0,0.0,0.0,0.0,0.0,0.0,0.0,0.0,0.0,-2.497,-2.544,-2.7609,-2.8755,-2.8834,-2.8959,-2.9052,-2.9075,-2.8525,-2.7981,0.0,0.0,0.0,0.0,0.0,0.0,0.0,0.0,0.0,0.0,0.0,0.0,0.0,0.0,0.0,0.0,0.0,0.0,0.0,0.0,0.0,0.0,0.0,0.0,0.0,0.0,0.0,0.0,-3.3455,-3.3496,-3.3126,0.0,0.0,0.0,0.0,0.0,0.0,0.0,0.0,0.0,0.0,-3.7224,-3.807,-3.8161,0.0,0.0,-3.8438,-3.7997,-3.7666,-3.8799,-3.882,-3.6174,-3.5774,0.0,0.0,0.0,0.0,0.0,0.0,0.0,0.0,0.0,0.0,0.0,0.0,0.0,0.0,0.0,0.0,0.0,0.0,0.0,0.0,0.0,0.0,0.0,0.0,0.0,0.0,0.0,0.0,0.0,0.0,0.0,0.0,0.0,0.0,0.0,0.0,0.0,0.0,0.0,0.0,0.0,0.0,0.0,0.0,0.0,0.0,0.0,0.0,0.0,0.0,0.0,0.0,-2.534,-2.5738,-2.7688,-2.87,-2.8747,-2.8905,-2.9021,-2.9013,-2.8625,-2.8151,0.0,0.0,0.0,0.0,0.0,0.0,0.0,0.0,0.0,0.0,0.0,0.0,0.0,0.0,0.0,0.0,0.0,0.0,0.0,0.0,0.0,0.0,0.0,0.0,0.0,0.0,0.0,0.0,-3.3649,-3.364,-3.3255,0.0,0.0,0.0,0.0,0.0,0.0,0.0,0.0,0.0,0.0,-3.772,-3.8198,-3.8285,-3.8285,-3.8225,-3.7948,-3.7531,-3.6976,-3.772,-3.7729,-3.5895,0.0,0.0,0.0,0.0,0.0,0.0,0.0,0.0,0.0,0.0,0.0,0.0,0.0,0.0,0.0,0.0,0.0,0.0,0.0,0.0,0.0,0.0,0.0,0.0,0.0,0.0,0.0,0.0,0.0,0.0,-2.5719,0.0,0.0,0.0,0.0,0.0,0.0,0.0,0.0,0.0,0.0,0.0,0.0,0.0,0.0,0.0,0.0,0.0,0.0,0.0,0.0,0.0,0.0,-2.5775,-2.5648,-2.7481,-2.8468,-2.8612,-2.8747,-2.885,-2.8904,-2.9036,-2.8781,-2.8202,0.0,0.0,0.0,0.0,0.0,0.0,0.0,0.0,0.0,0.0,0.0,0.0,0.0,0.0,0.0,0.0,0.0,0.0,0.0,0.0,0.0,0.0,0.0,0.0,0.0,0.0,-3.2076,-3.2618,-3.3144,0.0,0.0,0.0,0.0,0.0,0.0,0.0,0.0,0.0,0.0,-3.7001,-3.8269,-3.7042,-3.6898,-3.6991,-3.6991,-3.5962,-3.5562,-3.69,-3.7009,-3.697,0.0,0.0,0.0,0.0,0.0,0.0,0.0,0.0,0.0,0.0,0.0,0.0,0.0,0.0,0.0,0.0,0.0,0.0,0.0,0.0,0.0,0.0,0.0,0.0,0.0,0.0,0.0,-2.7611,-2.7647,0.0,0.0,0.0,0.0,0.0,0.0,0.0,0.0,0.0,0.0,0.0,-2.8936,-2.8646,0.0,0.0,0.0,0.0,0.0,0.0,0.0,0.0,0.0,0.0,0.0,0.0,-2.6005,-2.6442,-2.7821,-2.8589,-2.8723,-2.8811,-2.8912,-2.9013,-2.9075,-2.8955,-2.8677,0.0,0.0,0.0,0.0,0.0,0.0,0.0,0.0,0.0,0.0,0.0,0.0,0.0,0.0,0.0,0.0,0.0,0.0,0.0,0.0,0.0,0.0,0.0,0.0,0.0,-3.3225,0.0,0.0,0.0,0.0,0.0,0.0,0.0,0.0,0.0,0.0,0.0,-3.4849,-3.5821,-3.5958,-3.6093,-3.6615,-3.6687,-3.7036,0.0,0.0,0.0,0.0,0.0,0.0,0.0,0.0,0.0,0.0,0.0,0.0,0.0,0.0,-3.5385,-3.4649,-3.5257,-3.5865,-3.574,0.0,0.0,0.0,0.0,0.0,0.0,0.0,0.0,0.0,0.0,0.0,0.0,0.0,0.0,0.0,0.0,-2.887,0.0,0.0,0.0,0.0,0.0,0.0,0.0,0.0,-2.8235,-2.9228,-3.077,-3.0168,-3.0228,0.0,-2.9639,-2.7904,0.0,0.0,0.0,0.0,0.0,0.0,0.0,0.0,-2.6402,-2.6801,-2.7969,-2.8636,-2.8732,-2.8842,-2.8928,-2.9029,-2.9075,-2.915,-2.922,-2.9605,-2.9589,0.0,0.0,0.0,0.0,0.0,0.0,0.0,0.0,0.0,0.0,0.0,0.0,0.0,0.0,0.0,0.0,0.0,0.0,0.0,0.0,0.0,0.0,0.0,-3.3638,0.0,0.0,0.0,0.0,0.0,0.0,0.0,0.0,0.0,-3.5201,-3.5268,-3.5573,-3.6487,-3.6264,-3.5971,-3.5884,0.0,0.0,0.0,0.0,0.0,0.0,0.0,-3.4783,-3.441,-3.473,-3.5294,-3.613,-3.6632,-3.6891,-3.6891,0.0,0.0,-3.6076,-3.6535,-3.7075,-3.7052,-3.7075,-3.717,-3.7265,-3.7358,-3.745,0.0,0.0,0.0,0.0,0.0,0.0,0.0,0.0,-3.1288,-3.0177,0.0,-3.0122,0.0,0.0,0.0,0.0,0.0,-2.817,0.0,0.0,-3.0695,-3.1979,-3.3128,-3.1562,-3.1193,-3.1885,-2.9611,-2.8169,-2.7651,-2.7527,0.0,0.0,0.0,0.0,0.0,0.0,-2.6901,-2.6791,-2.7977,-2.8612,-2.8621,-2.8779,-2.8904,-2.8904,-2.9036,-2.9319,-2.975,-2.957,-2.972,-3.0284,-2.9625,0.0,0.0,0.0,0.0,0.0,0.0,0.0,0.0,0.0,0.0,0.0,0.0,0.0,0.0,0.0,0.0,0.0,0.0,0.0,0.0,-3.368,0.0,0.0,0.0,0.0,0.0,0.0,0.0,0.0,0.0,0.0,-3.462,-3.5695,-3.6519,-3.6501,0.0,0.0,0.0,0.0,-3.5857,-3.3471,-3.3017,-3.3136,-3.3289,-3.4232,-3.5417,-3.665,0.0,0.0,-3.8842,-3.7847,-3.7096,-3.7064,-3.8136,-3.8542,-3.7286,-3.7191,-3.7209,-3.7209,-3.7343,-3.7362,-3.7738,-3.8151,-3.824,-3.228,0.0,0.0,0.0,0.0,-3.1219,-3.1955,-3.3465,-3.2795,-3.2286,-3.195,-3.2349,0.0,0.0,0.0,0.0,0.0,0.0,-3.0617,-3.1442,-3.1681,-3.2618,-3.4146,-3.3621,-3.3508,-3.3707,-3.2301,-3.1267,-3.0606,-2.9418,-2.7938,-2.6199,0.0,0.0,0.0,0.0,-2.7055,-2.743,-2.8116,-2.8541,-2.8747,-2.8818,-2.8881,-2.9029,-2.9387,-2.9655,-2.981,-3.0973,-3.1417,-3.0986,-3.1763,0.0,0.0,0.0,0.0,0.0,0.0,0.0,0.0,0.0,0.0,0.0,0.0,0.0,0.0,0.0,0.0,0.0,0.0,0.0,-3.3742,-3.4927,-3.4976,0.0,0.0,0.0,0.0,0.0,0.0,0.0,0.0,0.0,-3.5925,-3.5389,-3.5046,0.0,0.0,-3.4714,-3.3913,-3.5065,-3.6094,-3.6344,0.0,0.0,0.0,-3.672,-3.642,-3.6902,-3.8042,-3.8877,-3.8916,-3.9371,-3.9759,-3.9725,-4.006,-4.0193,-3.9881,-3.9992,-4.0118,-4.0178,-4.0453,-4.072,-4.0877,-4.0919,-4.096,-3.532,-3.4633,-3.3269,-3.3109,-3.3692,-3.3178,-3.3926,-3.5456,-3.4869,-3.4212,-3.359,-3.4206,-3.3156,-3.0912,-3.0912,0.0,0.0,0.0,-3.2001,-3.3086,-3.2719,-3.3402,-3.4861,-3.4624,-3.4531,-3.4549,-3.3419,-3.2555,-3.1882,-3.0037,-2.8399,-2.691,0.0,0.0,-2.6335,-2.6823,-2.7252,-2.7619,-2.8185,-2.8589,-2.881,-2.8873,-2.9068,-2.938,-2.9477,-2.9611,-2.9826,-3.1245,-3.1883,-3.156,-3.2557,-3.295,0.0,0.0,0.0,0.0,0.0,0.0,0.0,0.0,0.0,0.0,0.0,-3.0559,0.0,0.0,0.0,0.0,-3.4031,-3.4416,-3.4967,-3.5272,0.0,0.0,0.0,0.0,0.0,0.0,0.0,-3.3987,-3.5419,-3.6485,-3.6485,-3.5763,-3.5459,-3.6127,-3.5856,-3.539,-3.48,0.0,-3.7053,-3.7366,-3.7001,-3.7018,-3.7969,-3.7861,-3.7843,-3.8457,-3.9181,-3.9656,-3.9725,-4.0395,-4.0877,-4.0894,-4.0894,-4.0894,-4.0894,-4.1214,-4.1463,-4.1305,-4.1485,-4.1731,-4.1885,-4.2074,-4.2257,-3.7864,-3.7595,-3.4421,-3.4079,-3.5567,-3.519,-3.5935,-3.7433,-3.7057,-3.5839,-3.4223,-3.5642,-3.4421,-3.1301,-3.1284,0.0,-3.247,-3.247,-3.3237,-3.4556,-3.3858,-3.4303,-3.5532,-3.4912,-3.465,-3.4748,-3.3421,-3.2478,-3.1825,-2.9977,-2.8791,-2.8265,-2.7872,-2.7347,-2.6776,-2.717,-2.7465,-2.7543,-2.8194,-2.8677,-2.8944,-2.9233,-2.9585,-3.0016,-2.9608,-2.9608,-3.0032,-3.0942,-3.1614,-3.206,-3.2482,-3.3145,-3.4024,0.0,0.0,0.0,0.0,0.0,0.0,0.0,0.0,0.0,0.0,0.0,0.0,0.0,0.0,0.0,-3.5959,0.0,-3.649,-3.5269,0.0,0.0,0.0,-3.4861,-3.6326,-3.6506,-3.6481,-3.6499,0.0,0.0,-3.6655,0.0,-3.7265,-3.8767,-3.8824,-3.8244,-3.6884,-3.7897,-3.8456,-3.737,-3.7146,-3.7146,-3.7558,-3.8364,-3.9401,-4.0464,-4.0894,-4.0825,-4.0808,-4.086,-4.0894,-4.0894,-4.0918,-4.0948,-4.0959,-4.1305,-4.1445,-4.1134,-4.1111,-4.1232,-4.1626,-4.2074,-4.248,-3.7685,-3.7596,-3.6792,-3.686,-3.7494,-3.7041,-3.7112,-3.7451,-3.7075,-3.6452,-3.5745,-3.6128,-3.563,-3.4469,-3.4486,-3.4609,-3.4783,-3.48,-3.4986,-3.5312,-3.516,-3.5261,-3.5583,-3.543,-3.5082,-3.4527,-3.3862,-3.2971,-3.1906,-3.1482,-3.0399,-2.89,-2.9109,-2.8421,-2.6845,-2.6911,-2.7172,-2.7673,-2.7828,-2.8653,-3.0145,-3.1216,-3.1861,-3.2012,-3.1907,-3.1901,-3.2012,-3.2767,-3.305,-3.2805,-3.3404,-3.3524,-3.3016,-3.2331,0.0,0.0,0.0,0.0,0.0,0.0,0.0,0.0,0.0,-3.2233,-3.1651,0.0,-3.311,0.0,-3.6696,-3.817,-3.8065,-3.7732,0.0,0.0,-3.599,-3.5946,-3.6447,-3.74,-3.7638,-3.6624,-3.7503,-3.8187,-3.8126,-3.817,-3.878,-4.0147,-3.9037,-3.7912,-3.7586,-3.8712,-3.9517,-3.925,-3.9517,-3.9916,-3.9847,-4.0193,-4.0492,-4.0825,-4.0894,-4.0894,-4.0894,-4.0894,-4.0894,-4.0918,-4.1163,-4.1311,-4.1351,-4.1713,-4.1948,-4.1945,-4.2175,-4.2456,-4.2575,-4.2883,-4.3214,-3.7503,-3.7595,-3.7595,-3.7828,-3.8175,-3.7828,-3.7721,-3.7792,-3.7577,-3.7245,-3.6838,-3.6471,-3.6152,-3.5893,-3.5689,-3.5616,-3.5616,-3.5616,-3.5616,-3.5616,-3.5616,-3.5616,-3.5616,-3.5616,-3.538,-3.4996,-3.4398,-3.3751,-3.3065,-3.2767,-3.1944,-3.0665,-3.0935,-3.0337,-2.8806,-2.7721,-2.7274,-2.7517,-2.8316,-2.9557,-3.126,-3.2083,-3.238,-3.2144,-3.2111,-3.1984,-3.1717,-3.2359,-3.257,-3.2248,-3.2836,-3.3072,-3.2784,-3.2174,-3.1863,0.0,0.0,0.0,0.0,0.0,0.0,0.0,0.0,0.0,0.0,0.0,-3.4614,-3.514,-3.7318,-3.8385,-3.765,-3.7577,-3.7491,-3.7335,-3.7318,-3.7638,-3.8355,-3.914,-3.933,-3.8545,-3.9202,-3.9703,-3.9635,-3.9698,-4.0014,-4.0791,-3.9899,-3.917,-3.9222,-3.9887,-4.0366,-4.036,-4.0642,-4.0894,-4.0894,-4.0894,-4.0894,-4.0894,-4.0894,-4.0894,-4.0894,-4.0894,-4.0959,-4.1117,-4.1192,-4.1305,-4.1468,-4.1534,-4.1622,-4.1666,-4.1969,-4.232,-4.2557,-4.292,-4.325,-3.7353,-3.7522,-3.7522,-3.7757,-3.8124,-3.7934,-3.7986,-3.8209,-3.8209,-3.795,-3.745,-3.6658,-3.6284,-3.6262,-3.5822,-3.5616,-3.5616,-3.5616,-3.5616,-3.5616,-3.5616,-3.5616,-3.5616,-3.5616,-3.5616,-3.5566,-3.4962,-3.4619,-3.452,-3.3955,-3.3324,-3.2713,-3.2757,-3.2276,-3.1199,-2.9123,-2.7943,-2.7705,-2.9442,-3.0997,-3.2253,-3.2478,-3.2293,-3.173,-3.1719,-3.1468,-3.0958,-3.1452,-3.167,-3.1517,-3.1991,-3.2504,-3.3039,-3.2292,-3.2185,0.0,-3.242,0.0,0.0,0.0,0.0,0.0,0.0,0.0,0.0,-3.6297,-3.645,-3.678,-3.7906,-3.8151,-3.7008,-3.6887,-3.7422,-3.8715,-3.891,-3.9445,-4.0722,-4.0894,-4.0894,-4.0894,-4.0894,-4.0894,-4.0843,-4.0894,-4.0894,-4.0894,-4.0808,-4.0711,-4.0843,-4.0825,-4.0843,-4.0894,-4.0894,-4.0894,-4.0894,-4.0894,-4.0894,-4.0894,-4.0894,-4.0894,-4.0894,-4.0894,-4.1012,-4.1283,-4.1186,-4.114,-4.1445,-4.126,-4.1117,-4.1209,-4.149,-4.1778,-4.2074,-4.2478,-4.2806,-3.7085,-3.7124,-3.7124,-3.7354,-3.7703,-3.7667,-3.7881,-3.8209,-3.8209,-3.7933,-3.7433,-3.6658,-3.6284,-3.6259,-3.5805,-3.5616,-3.5616,-3.5616,-3.5616,-3.5616,-3.5616,-3.5616,-3.5616,-3.5616,-3.5616,-3.56,-3.5447,-3.516,-3.4735,-3.5048,-3.4309,-3.2657,-3.3053,-3.2484,-3.1044,0.0,0.0,0.0,-3.1331,-3.2365,-3.2763,-3.3177,-3.3376,-3.3345,-3.3376,0.0,-3.327,-3.3488,-3.3376,-3.2929,-3.3017,0.0,0.0,0.0,0.0,0.0,0.0,0.0,0.0,0.0,0.0,0.0,-3.595,-3.5916,-3.6262,-3.6402,-3.6984,-3.8235,-3.8611,-3.9121,-3.9945,-4.0049,-4.0152,-4.0429,-4.0446,-4.0601,-4.0877,-4.0894,-4.0894,-4.0894,-4.0894,-4.0894,-4.0894,-4.0894,-4.0894,-4.0894,-4.0894,-4.0894,-4.0894,-4.0894,-4.0894,-4.0894,-4.0894,-4.0894,-4.0894,-4.0894,-4.0894,-4.0894,-4.0894,-4.0894,-4.0894,-4.0894,-4.0894,-4.1041,-4.1232,-4.1396,-4.1512,-4.1735,-4.1864,-4.1948,-4.199,-4.1969,-4.1713,-4.2011,-4.2338,-3.7066,0.0,-3.7046,-3.7279,0.0,-3.7649,-3.7828,-3.8209,-3.8209,-3.8089,-3.7792,-3.6976,-3.6597,-3.6557,-3.5915,-3.5616,-3.5616,-3.5616,-3.5616,-3.5616,-3.5616,-3.5616,-3.5616,-3.5616,-3.5616,-3.5616,-3.5616,-3.5447,-3.5224,-3.547,-3.5082,-3.4097,-3.4358,-3.4052,-3.3258,-3.3309,-3.2854,-3.1783,-3.2641,-3.3453,-3.4285,-3.4571,-3.4593,-3.4401,0.0,0.0,0.0,0.0,0.0,0.0,0.0,0.0,0.0,0.0,0.0,-3.5786,-3.6088,-3.6599,-3.7322,-3.7417,-3.7745,-3.8458,-3.851,-3.82,-3.746,-3.819,-3.8972,-3.9664,-3.9779,-4.0107,-4.0713,-4.0864,-4.0894,-4.0894,-4.0894,-4.0894,-4.0894,-4.0894,-4.0894,-4.0894,-4.0894,-4.0894,-4.0894,-4.0894,-4.0894,-4.0894,-4.0894,-4.0894,-4.0894,-4.0894,-4.0894,-4.0894,-4.0894,-4.0894,-4.0894,-4.0894,-4.0894,-4.0894,-4.0894,-4.0894,-4.0894,-4.0894,-4.0965,-4.114,-4.1232,-4.1305,-4.1756,-4.1864,-4.1906,-4.2136,-4.2216,-4.2136,-4.1906,-4.2198,-4.2616,-3.7184,-3.7317,-3.7143,-3.7353,-3.7846,-3.7685,-3.7846,-3.8209,0.0,0.0,0.0,-3.7357,-3.7017,-3.6941,-3.6165,-3.5805,-3.5734,-3.5734,-3.5689,-3.56,-3.5616,-3.5616,-3.5616,-3.5616,-3.5622,-3.5622,-3.5622,-3.56,-3.5622,-3.5622,-3.5616,-3.5616,-3.5616,-3.5616,-3.5616,-3.5616,-3.503,-3.3884,-3.3698,-3.4283,-3.554,-3.5494,-3.5245,-3.4806,-3.4789,-3.4558,-3.4091,-3.3997,-3.3917,-3.387,-3.3874,-3.4267,-3.5082,-3.5411,-3.5955,-3.6814,-3.7025,-3.7646,-3.8927,-3.8991,-3.9566,-4.0825,-4.0894,-4.0347,-3.9015,-4.014,-4.0864,-4.0745,-4.084,-4.0847,-4.0745,-4.084,-4.0894,-4.0894,-4.0894,-4.0894,-4.0894,-4.0894,-4.0894,-4.0894,-4.0894,-4.0894,-4.0894,-4.0894,-4.0894,-4.0894,-4.0894,-4.0894,-4.0894,-4.0894,-4.0894,-4.0894,-4.0894,-4.0894,-4.0894,-4.0894,-4.0894,-4.0894,-4.0894,-4.0894,-4.0912,-4.0965,-4.114,-4.1423,-4.126,-4.1485,-4.2029,-4.1927,-4.1735,-4.2011,-4.2074,-4.2115,-4.2216,-4.2498,-4.2807,-3.7468,-3.7468,-3.7317,-3.741,-3.7667,-3.7811,-3.7986,-3.8192,-3.8209,-3.8209,-3.8157,-3.7632,-3.7396,-3.7395,-3.6921,-3.6536,-3.6233,-3.6195,-3.5997,0.0,-3.5616,-3.5616,-3.5616,-3.5616,-3.5661,-3.5773,-3.5644,-3.5667,-3.5751,-3.5661,-3.5616,-3.5616,-3.5616,-3.5616,-3.5616,-3.5616,-3.556,-3.545,-3.4844,-3.4627,-3.4853,-3.4341,-3.4045,-3.3984,-3.4065,-3.4003,-3.392,-3.4051,-3.4056,-3.4071,-3.4639,-3.5328,-3.6086,-3.7344,-3.8434,-3.9181,-3.9876,-4.0359,-4.0549,-4.0584,-4.067,-4.0877,-4.0894,-4.0784,-4.0595,-4.0774,-4.0894,-4.0871,-4.0888,-4.0894,-4.0871,-4.0871,-4.0894,-4.0894,-4.0894,-4.0894,-4.0894,-4.0894,-4.0894,-4.0894,-4.0894,-4.0894,-4.0894,-4.0894,-4.0894,-4.0894,-4.0894,-4.0894,-4.0894,-4.0894,-4.0894,-4.0894,-4.0894,-4.0894,-4.0894,-4.0894,-4.0894,-4.0894,-4.0918,-4.0942,-4.0965,-4.1186,-4.1396,-4.149,-4.1648,-4.1927,-4.2175,-4.2157,-4.1969,-4.1799,-4.1778,-4.1842,-4.2198,-4.2398,-4.2418,-3.7685,-3.7505,-3.7431,-3.7485,-3.7613,-3.7934,-3.8106,-3.8192,-3.8209,-3.8209,-3.814,-3.7703,-3.7505,-3.7451,-3.7094,-3.6678,-3.6284,-3.6284,-3.6045,-3.5622,-3.5616,-3.5616,-3.5616,-3.5616,-3.5644,-3.5689,-3.5622,-3.5644,-3.5667,-3.5644,-3.5616,-3.5616,-3.5616,-3.5616,-3.56,-3.5667,-3.5751,-3.5795,-3.5477,-3.5372,-3.5502,-3.5177,-3.5027,-3.509,-3.5073,-3.5056,-3.5135,-3.5509,-3.5796,-3.5942,-3.6582,-3.7322,-3.8112,-3.8751,-3.9451,-4.0191,-4.0515,-4.068,-4.068,-4.068,-4.0704,-4.0793,-4.0793,-4.0817,-4.0894,-4.0894,-4.0864,-4.0704,-4.0817,-4.0888,-4.0817,-4.0864,-4.0894,-4.0894,-4.0894,-4.0894,-4.0894,-4.0894,-4.0894,-4.0894,-4.0894,-4.0894,-4.0894,-4.0894,-4.0894,-4.0894,-4.0894,-4.0894,-4.0894,-4.0894,-4.0894,-4.0894,-4.0894,-4.0894,-4.0894,-4.0894,-4.0894,-4.0894,-4.1088,-4.1209,-4.1255,-4.1401,-4.149,-4.149,-4.1556,-4.1578,-4.1796,-4.1821,-4.1906,-4.23,-4.2259,-4.242,-4.277,-4.2902,-4.2757,-3.8048,-3.7755,-3.7703,-3.7703,-3.7757,-3.8072,-3.8209,-3.8209,-3.8209,-3.8209,-3.814,-3.7827,-3.765,-3.7632,-3.7321,-3.7005,-3.6717,-3.669,-3.6496,-3.6135,-3.5938,-3.587,-3.5836,-3.5701,-3.5622,-3.5661,-3.5644,-3.5729,-3.5864,-3.5921,-3.5904,-3.5915,-3.5876,-3.5876,-3.5898,-3.6192,-3.6349,-3.6377,-3.6355,-3.6307,-3.6161,-3.6233,-3.6319,-3.6397,-3.6468,-3.6571,-3.6715,-3.7136,-3.7511,-3.7745,-3.8367,-3.8998,-3.9664,-3.9778,-4.0109,-4.0659,-4.0655,-4.0607,-4.059,-4.0607,-4.0631,-4.0745,-4.0745,-4.0769,-4.0823,-4.0888,-4.0799,-4.0607,-4.0704,-4.0752,-4.0721,-4.0793,-4.0864,-4.0871,-4.0894,-4.0894,-4.0894,-4.0894,-4.0894,-4.0894,-4.0894,-4.0894,-4.0894,-4.0894,-4.0894,-4.0894,-4.0894,-4.0894,-4.0894,-4.0894,-4.0894,-4.0894,-4.0894,-4.0894,-4.0894,-4.0894,-4.0894,-4.0894,-4.1117,-4.1277,-4.1328,-4.1401,-4.1512,-4.1512,-4.1529,-4.1644,-4.1799,-4.1969,-4.2259,-4.2713,-4.2787,-4.292,-4.316,-4.3137,-4.3133,-3.8624,-3.853,-3.8247,-3.8136,-3.8123,-3.8174,-3.8209,-3.8209,-3.8209,-3.8209,-3.8192,-3.814,-3.8141,-3.814,-3.8089,-3.7988,-3.7825,-3.7837,-3.7759,-3.757,-3.6992,-3.6694,-3.6603,-3.5977,-3.5667,-3.5824,-3.5858,-3.6214,-3.6758,-3.6888,-3.6905,-3.6871,-3.674,-3.674,-3.6916,-3.7523,-3.7939,-3.8151,-3.8054,-3.7342,-3.6139,-3.6786,-3.7129,-3.7018,-3.765,-3.8054,-3.8099,-3.8231,-3.8334,-3.8543,-3.9198,-3.9606,-3.9767,-4.0371,-4.0802,-4.0871,-4.0864,-4.0847,-4.0847,-4.0847,-4.0823,-4.0888,-4.0847,-4.0817,-4.0721,-4.0799,-4.0823,-4.0697,-4.06,-4.0607,-4.0673,-4.0721,-4.0793,-4.0871,-4.0894,-4.0894,-4.0894,-4.0894,-4.0894,-4.0894,-4.0894,-4.0894,-4.0894,-4.0894,-4.0894,-4.0894,-4.0894,-4.0894,-4.0894,-4.0894,-4.0894,-4.0894,-4.0894,-4.0894,-4.0894,-4.0894,-4.0894,-4.0894,-4.0942,-4.1065,-4.1186,-4.1378,-4.1516,-4.1821,-4.2095,-4.2458,-4.2635,-4.3032,-4.305,-4.2883,-4.2938,-4.2939,-4.2922,-4.2794,-4.2765,-3.897,-3.8744,-3.8489,-3.8236,-3.8055,-3.814,-3.8209,-3.8209,-3.8209,-3.8209,-3.8281,-3.8716,-3.8645,-3.8245,-3.8698,-3.8744,-3.8454,-3.8896,-3.8818,-3.834,-3.8003,-3.7723,-3.7422,-3.7144,-3.6998,-3.7045,-3.7114,-3.729,-3.7475,-3.7549,-3.7549,-3.7543,-3.7566,-3.7596,-3.7699,-3.8054,-3.8282,-3.8282,-3.8305,-3.7929,-3.732,-3.753,-3.7683,-3.7654,-3.7944,-3.8184,-3.8328,-3.8727,-3.906,-3.9279,-3.9921,-4.0352,-4.0405,-4.0668,-4.0793,-4.0769,-4.0607,-4.051,-4.0436,-4.0419,-4.0461,-4.0534,-4.0551,-4.0551,-4.0583,-4.0558,-4.051,-4.0502,-4.0607,-4.0769,-4.0817,-4.0817,-4.0823,-4.0888,-4.0894,-4.0894,-4.0894,-4.0894,-4.0894,-4.0894,-4.0894,-4.0894,-4.0894,-4.0894,-4.0894,-4.0894,-4.0894,-4.0894,-4.0894,-4.0894,-4.0894,-4.0894,-4.0894,-4.0894,-4.0894,-4.0894,-4.0894,-4.0942,-4.1094,-4.1283,-4.16,-4.1756,-4.199,-4.2236,-4.2438,-4.2537,-4.2398,-4.2596,-4.2713,-4.2787,-4.316,-4.3268,-4.325,-4.3118,-4.3222,-3.9275,-3.897,-3.8707,-3.8399,-3.8053,-3.8157,-3.8209,-3.8263,-3.8409,-3.8535,-3.859,-3.9351,-3.9387,-3.8952,-3.946,-3.9536,-3.9435,-3.9933,-3.9864,-3.9225,-3.8996,-3.8643,-3.82,-3.7973,-3.7905,-3.7977,-3.8044,-3.8169,-3.8303,-3.8265,-3.8282,-3.833,-3.8377,-3.8455,-3.8559,-3.8825,-3.8985,-3.8916,-3.8956,-3.8869,-3.8646,-3.8639,-3.8537,-3.8384,-3.8571,-3.8768,-3.8892,-3.9463,-3.9849,-4.0043,-4.0459,-4.0745,-4.084,-4.0721,-4.0648,-4.0624,-4.0461,-4.033,-4.0213,-4.0213,-4.0246,-4.0337,-4.0337,-4.0387,-4.0461,-4.0412,-4.0362,-4.0387,-4.0624,-4.0776,-4.0799,-4.084,-4.0864,-4.0871,-4.0894,-4.0894,-4.0894,-4.0894,-4.0894,-4.0894,-4.0894,-4.0894,-4.0894,-4.0894,-4.0894,-4.0894,-4.0894,-4.0894,-4.0894,-4.0894,-4.0894,-4.0894,-4.0894,-4.0894,-4.0894,-4.0894,-4.0935,-4.1094,-4.1333,-4.1604,-4.2074,-4.2177,-4.2198,-4.2257,-4.232,-4.2458,-4.2577,-4.2536,-4.2516,-4.2826,-4.3178,-4.3462,-4.3444,-4.3461,-4.3479,-3.9482,-3.9418,-3.904,-3.8728,-3.8462,-3.8272,-3.8209,-3.8263,-3.8971,-3.9315,-3.9387,-4.0148,-4.042,-4.0347,-4.0474,-4.0634,-4.0846,-4.0933,-4.0891,-4.0597,-3.9986,-3.9408,-3.8928,-3.8244,-3.8011,-3.8265,-3.8376,-3.8732,-3.9367,-3.9245,-3.9214,-3.9317,-3.9221,-3.9293,-3.9575,-4.013,-4.0559,-4.0415,-4.0285,-4.0248,-4.0143,-4.0135,-3.9778,-3.9292,-3.9795,-4.0231,-4.0477,-4.057,-4.0659,-4.0819,-4.0734,-4.0697,-4.068,-4.0583,-4.0534,-4.0517,-4.051,-4.0485,-4.0468,-4.0461,-4.0485,-4.0485,-4.0485,-4.0485,-4.051,-4.0485,-4.0485,-4.0485,-4.0534,-4.0541,-4.0566,-4.0655,-4.0769,-4.0847,-4.0894,-4.0894,-4.0894,-4.0894,-4.0894,-4.0894,-4.0894,-4.0894,-4.0894,-4.0894,-4.0894,-4.0894,-4.0894,-4.0894,-4.0894,-4.0894,-4.0894,-4.0894,-4.0894,-4.0894,-4.0894,-4.0995,-4.114,-4.1288,-4.149,-4.1713,-4.1969,-4.2216,-4.2277,-4.2358,-4.2595,-4.2768,-4.2844,-4.2882,-4.2882,-4.3087,-4.3286,-4.348,-4.3479,-4.3479,-4.3479,-3.9776,-4.0005,-3.9365,-3.915,-3.9202,-3.8634,-3.8322,-3.8281,-3.9043,-3.9387,-3.9623,-4.0727,-4.127,-4.1288,-4.1814,-4.1812,-4.1517,-4.1967,-4.2031,-4.166,-4.109,-4.0602,-4.0127,-3.9549,-3.9366,-3.953,-3.9617,-3.9874,-4.0192,-4.0117,-4.0068,-4.0099,-4.0158,-4.0206,-4.036,-4.0655,-4.0793,-4.0697,-4.0576,-4.0485,-4.0412,-4.0337,-4.0243,-4.0192,-4.0397,-4.0558,-4.0558,-4.0648,-4.0697,-4.0655,-4.059,-4.0558,-4.0576,-4.0607,-4.0648,-4.0607,-4.0624,-4.0583,-4.051,-4.051,-4.051,-4.051,-4.051,-4.051,-4.051,-4.051,-4.051,-4.051,-4.0583,-4.0607,-4.0631,-4.0673,-4.0721,-4.0769,-4.0847,-4.0894,-4.0894,-4.0894,-4.0894,-4.0894,-4.0894,-4.0894,-4.0894,-4.0894,-4.0894,-4.0894,-4.0894,-4.0894,-4.0894,-4.0894,-4.0894,-4.0894,-4.0894,-4.0995,-4.1283,-4.1283,-4.1356,-4.1534,-4.1753,-4.2154,-4.2458,-4.2575,-4.2634,-4.2614,-4.2825,-4.2881,-4.2919,-4.3123,-4.316,-4.3214,-4.341,-4.348,-4.3479,-4.3479,-4.3479,-4.0045,-4.0096,-3.9741,-3.955,-3.9439,-3.8792,-3.8433,-3.8416,-3.9313,-3.9767,-4.0039,-4.1397,-4.2085,-4.2176,-4.2665,-4.2611,-4.2175,-4.2665,-4.2673,-4.2277,-4.1931,-4.1547,-4.1116,-4.0642,-4.0507,-4.0597,-4.0614,-4.0655,-4.0673,-4.0607,-4.0558,-4.0583,-4.0648,-4.0721,-4.0769,-4.0864,-4.0799,-4.0673,-4.06,-4.0517,-4.0461,-4.0436,-4.0502,-4.0624,-4.0655,-4.0631,-4.0583,-4.0648,-4.0648,-4.0517,-4.051,-4.051,-4.051,-4.06,-4.0631,-4.0648,-4.0624,-4.0607,-4.0534,-4.051,-4.0485,-4.0436,-4.0436,-4.0436,-4.0436,-4.0436,-4.0461,-4.051,-4.0583,-4.0648,-4.0648,-4.0673,-4.0721,-4.0769,-4.084,-4.0894,-4.0894,-4.0894,-4.0894,-4.0894,-4.0894,-4.0894,-4.0894,-4.0894,-4.0894,-4.0894,-4.0894,-4.0894,-4.0894,-4.0894,-4.0965,-4.1047,-4.1117,-4.1328,-4.167,-4.1885,-4.2011,-4.2175,-4.2195,-4.2575,-4.2787,-4.2882,-4.2919,-4.2919,-4.2919,-4.2919,-4.3031,-4.3286,-4.3357,-4.3357,-4.3427,-4.3479,-4.3479,-4.3479,-4.3479,-4.0309,-3.9815,-4.0157,-3.99,-3.9324,-3.881,-3.8507,-3.8775,-3.9942,-4.0473,-4.0709,-4.2176,-4.2793,-4.2846,-4.2865,-4.2883,-4.2829,-4.2883,-4.2749,-4.2438,-4.2338,-4.2118,-4.1746,-4.1281,-4.1076,-4.1185,-4.1001,-4.0817,-4.0721,-4.0697,-4.0697,-4.0697,-4.0704,-4.0793,-4.0888,-4.0871,-4.0776,-4.0607,-4.0648,-4.0576,-4.0362,-4.0551,-4.0607,-4.0558,-4.0648,-4.0673,-4.0673,-4.0673,-4.0624,-4.0493,-4.0485,-4.051,-4.051,-4.0534,-4.0534,-4.0541,-4.0517,-4.0493,-4.0534,-4.051,-4.0461,-4.0379,-4.033,-4.0355,-4.0355,-4.0337,-4.0387,-4.0485,-4.0534,-4.0534,-4.0534,-4.0624,-4.0745,-4.0871,-4.0871,-4.0894,-4.0894,-4.0894,-4.0894,-4.0894,-4.0894,-4.0894,-4.0894,-4.0894,-4.0894,-4.0894,-4.0894,-4.0894,-4.0918,-4.0942,-4.1117,-4.1356,-4.1494,-4.1692,-4.2136,-4.2555,-4.2729,-4.2881,-4.2844,-4.2994,-4.2995,-4.3068,-4.2994,-4.2975,-4.2919,-4.2919,-4.2957,-4.3196,-4.3304,-4.3321,-4.341,-4.3479,-4.3479,-4.3479,-4.3479,-4.0153,-4.0347,-4.0002,-3.9941,-3.99,-3.9282,-3.9091,-3.944,-4.0567,-4.1131,-4.1542,-4.2614,-4.3069,-4.292,-4.2919,-4.2919,-4.2919,-4.29,-4.2825,-4.2692,-4.2418,-4.2259,-4.2139,-4.1756,-4.1432,-4.1276,-4.1024,-4.0888,-4.084,-4.084,-4.0823,-4.084,-4.0823,-4.0864,-4.0894,-4.0894,-4.0799,-4.0655,-4.0673,-4.0648,-4.0576,-4.0648,-4.069,-4.0631,-4.0673,-4.0624,-4.0453,-4.0412,-4.0404,-4.0362,-4.0362,-4.0436,-4.06,-4.0648,-4.068,-4.0776,-4.0776,-4.0728,-4.0648,-4.0624,-4.0558,-4.0461,-4.0419,-4.0436,-4.0436,-4.0436,-4.0461,-4.051,-4.0576,-4.06,-4.0534,-4.0624,-4.0721,-4.0769,-4.0864,-4.0912,-4.0894,-4.0894,-4.0894,-4.0894,-4.0894,-4.0894,-4.0894,-4.0894,-4.0894,-4.0894,-4.0894,-4.0894,-4.0942,-4.114,-4.1311,-4.1494,-4.1756,-4.2118,-4.2577,-4.2864,-4.2995,-4.3142,-4.3196,-4.3105,-4.3142,-4.3105,-4.3068,-4.3031,-4.2957,-4.2975,-4.3013,-4.3105,-4.3268,-4.3339,-4.3462,-4.3479,-4.3479,-4.3479,-4.3479,-4.0171,-4.0328,-4.0134,-4.0058,-4.0096,-3.9735,-3.975,-4.0127,-4.1243,-4.177,-4.2048,-4.2867,-4.316,-4.2939,-4.2919,-4.2919,-4.2919,-4.2919,-4.2938,-4.2919,-4.271,-4.2632,-4.2673,-4.2279,-4.1778,-4.1383,-4.1192,-4.1041,-4.0894,-4.0894,-4.0894,-4.0894,-4.0894,-4.0894,-4.0894,-4.0894,-4.084,-4.0738,-4.0745,-4.0745,-4.0697,-4.0714,-4.069,-4.0631,-4.0624,-4.0527,-4.033,-4.0355,-4.0355,-4.033,-4.0379,-4.0551,-4.0745,-4.0793,-4.0793,-4.0817,-4.0817,-4.0769,-4.0631,-4.0631,-4.0648,-4.0534,-4.0534,-4.0558,-4.0558,-4.0558,-4.0583,-4.0655,-4.0721,-4.0745,-4.068,-4.0704,-4.0769,-4.0769,-4.0817,-4.0864,-4.0871,-4.0894,-4.0894,-4.0894,-4.0894,-4.0894,-4.0894,-4.0894,-4.0894,-4.0894,-4.0894,-4.0995,-4.1094,-4.1333,-4.1561,-4.1864,-4.2279,-4.2655,-4.3013,-4.3178,-4.3232,-4.3339,-4.3427,-4.325,-4.3142,-4.3087,-4.3032,-4.3068,-4.3031,-4.3214,-4.3268,-4.3339,-4.3444,-4.3479,-4.3479,-4.3479,-4.3479,-4.3479,-4.3479,-4.0272,-3.9721,-4.0384,-4.0309,-3.9852,-4.0171,-4.0491,-4.0793,-4.1942,-4.2429,-4.2455,-4.3044,-4.3196,-4.2976,-4.292,-4.2919,-4.2919,-4.2919,-4.2975,-4.3049,-4.303,-4.3086,-4.3196,-4.2807,-4.2277,-4.1692,-4.1512,-4.1283,-4.1018,-4.0918,-4.0894,-4.0894,-4.0894,-4.0894,-4.0894,-4.0894,-4.084,-4.0745,-4.0817,-4.0799,-4.0697,-4.0697,-4.0648,-4.0534,-4.0534,-4.0461,-4.0379,-4.0453,-4.0461,-4.0379,-4.0534,-4.0721,-4.084,-4.0871,-4.0793,-4.068,-4.0697,-4.0648,-4.0576,-4.0607,-4.0648,-4.0534,-4.0583,-4.0697,-4.0631,-4.0631,-4.0673,-4.0776,-4.084,-4.0847,-4.084,-4.0864,-4.0864,-4.0847,-4.0793,-4.0817,-4.0871,-4.0894,-4.0894,-4.0894,-4.0894,-4.0894,-4.0894,-4.0894,-4.0918,-4.0989,-4.0995,-4.1163,-4.1507,-4.1756,-4.2032,-4.234,-4.2635,-4.2883,-4.3142,-4.3304,-4.3357,-4.3392,-4.3479,-4.3375,-4.325,-4.3178,-4.3142,-4.316,-4.3178,-4.3357,-4.3462,-4.3479,-4.3479,-4.3479,-4.3479,-4.3479,-4.3479,-4.3479,-4.3479,-3.9796,-3.9627,-3.9833,-4.0134,-4.0459,-4.0639,-4.1305,-4.2224,-4.2805,-4.3144,-4.3291,-4.3485,-4.3442,-4.3178,-4.2995,-4.2919,-4.2919,-4.2919,-4.2975,-4.3086,-4.3012,-4.3123,-4.3287,-4.3031,-4.2731,-4.2398,-4.1842,-4.1445,-4.1311,-4.1088,-4.0942,-4.0894,-4.0942,-4.0894,-4.0894,-4.0894,-4.084,-4.0721,-4.0738,-4.068,-4.0607,-4.0673,-4.0631,-4.0534,-4.0583,-4.0558,-4.0502,-4.0558,-4.0648,-4.06,-4.0648,-4.0721,-4.0745,-4.068,-4.0631,-4.0607,-4.0648,-4.0648,-4.0558,-4.0607,-4.0648,-4.0534,-4.0558,-4.0558,-4.0558,-4.0558,-4.0558,-4.0631,-4.068,-4.0721,-4.0655,-4.0721,-4.0745,-4.0769,-4.0793,-4.0864,-4.0888,-4.0894,-4.0894,-4.0894,-4.0894,-4.0894,-4.0894,-4.0942,-4.1018,-4.1255,-4.1373,-4.1512,-4.1906,-4.2257,-4.2518,-4.2537,-4.2732,-4.2958,-4.3178,-4.3339,-4.3462,-4.3462,-4.3479,-4.3479,-4.341,-4.3375,-4.3375,-4.3392,-4.3339,-4.3462,-4.3479,-4.3479,-4.3479,-4.3479,-4.3479,-4.3479,-4.3479,-4.3479,-4.3479,-3.9908,-3.9627,-3.9965,-4.0378,-4.0891,-4.1548,-4.2313,-4.3067,-4.3601,-4.381,-4.3846,-4.3873,-4.3662,-4.3321,-4.3142,-4.305,-4.2975,-4.2994,-4.3086,-4.3196,-4.3196,-4.3214,-4.3233,-4.3105,-4.3013,-4.2788,-4.2338,-4.2011,-4.1799,-4.1534,-4.1351,-4.1209,-4.1163,-4.1065,-4.0894,-4.0894,-4.0888,-4.0817,-4.0793,-4.0745,-4.068,-4.068,-4.0631,-4.0583,-4.0673,-4.0673,-4.068,-4.0728,-4.0769,-4.0721,-4.0714,-4.0714,-4.0714,-4.0648,-4.0583,-4.0583,-4.0673,-4.0631,-4.0558,-4.0624,-4.0673,-4.0607,-4.0631,-4.0655,-4.068,-4.0655,-4.068,-4.0704,-4.0745,-4.0745,-4.0704,-4.0745,-4.0752,-4.0817,-4.0864,-4.0894,-4.0894,-4.0894,-4.0894,-4.0894,-4.0894,-4.0894,-4.0894,-4.1041,-4.1237,-4.1468,-4.1687,-4.2011,-4.2418,-4.2711,-4.292,-4.2883,-4.2939,-4.316,-4.3268,-4.3392,-4.3462,-4.3479,-4.3479,-4.3479,-4.3479,-4.3479,-4.3479,-4.3462,-4.3479,-4.3479,-4.3479,-4.3479,-4.3479,-4.3479,-4.3479,-4.3479,-4.3479,-4.3479,-4.3479,-4.0497,-3.9927,-4.0628,-4.0985,-4.1342,-4.2618,-4.3262,-4.3576,-4.4144,-4.4327,-4.417,-4.4106,-4.3809,-4.3355,-4.3285,-4.3196,-4.3067,-4.3068,-4.3196,-4.3305,-4.3375,-4.3358,-4.3233,-4.3323,-4.3178,-4.2902,-4.2901,-4.2616,-4.23,-4.2198,-4.1948,-4.167,-4.1561,-4.1396,-4.1255,-4.1117,-4.1041,-4.1094,-4.1157,-4.1065,-4.0977,-4.0954,-4.0884,-4.0697,-4.0721,-4.0793,-4.084,-4.0871,-4.084,-4.0714,-4.0714,-4.0714,-4.0714,-4.0697,-4.0673,-4.0673,-4.0673,-4.0648,-4.0583,-4.0673,-4.0721,-4.0721,-4.084,-4.0894,-4.0847,-4.0847,-4.0847,-4.0847,-4.0894,-4.0888,-4.0888,-4.0888,-4.0888,-4.0888,-4.0894,-4.0894,-4.0894,-4.0894,-4.0894,-4.0918,-4.0918,-4.0948,-4.1065,-4.1283,-4.1587,-4.199,-4.2177,-4.2458,-4.2788,-4.2995,-4.3124,-4.316,-4.325,-4.3392,-4.3427,-4.3463,-4.3462,-4.3479,-4.3479,-4.3479,-4.3479,-4.3479,-4.3479,-4.3479,-4.3479,-4.3479,-4.3479,-4.3479,-4.3479,-4.3479,-4.3479,-4.3479,-4.3479,-4.3479,-4.3479,-4.1629,-4.1479,-4.1667,-4.2149,-4.275,-4.3144,-4.3651,-4.4233,-4.4407,-4.4454,-4.4364,-4.4199,-4.3921,-4.3612,-4.3408,-4.3178,-4.3031,-4.3068,-4.3142,-4.3233,-4.3376,-4.3394,-4.3359,-4.3429,-4.3392,-4.3232,-4.3013,-4.2863,-4.2711,-4.2458,-4.2157,-4.2074,-4.2053,-4.199,-4.1903,-4.1778,-4.1906,-4.1885,-4.1799,-4.1561,-4.1361,-4.1499,-4.1361,-4.0894,-4.0888,-4.0912,-4.0894,-4.0894,-4.084,-4.0745,-4.0714,-4.0738,-4.0697,-4.0607,-4.0583,-4.0607,-4.0673,-4.0697,-4.0714,-4.0769,-4.0847,-4.0864,-4.0888,-4.0894,-4.0894,-4.0894,-4.0894,-4.0894,-4.0894,-4.0894,-4.0894,-4.0894,-4.0894,-4.0894,-4.0918,-4.0918,-4.0894,-4.0918,-4.0942,-4.0971,-4.1209,-4.1396,-4.1418,-4.1796,-4.2136,-4.2478,-4.2713,-4.292,-4.3105,-4.3268,-4.3304,-4.3304,-4.3375,-4.3444,-4.3392,-4.3428,-4.3479,-4.3479,-4.3479,-4.3479,-4.3479,-4.3479,-4.3479,-4.3479,-4.3479,-4.3479,-4.3479,-4.3479,-4.3479,-4.3479,-4.3479,-4.3479,-4.3479,-4.3479,-4.3479,-4.2374,-4.2042,-4.2436,-4.2881,-4.3313,-4.3688,-4.4088,-4.4444,-4.4482,-4.4482,-4.4468,-4.4335,-4.414,-4.3873,-4.3612,-4.3391,-4.3232,-4.3215,-4.3287,-4.3339,-4.341,-4.3428,-4.3446,-4.348,-4.3479,-4.3462,-4.3304,-4.3196,-4.3105,-4.292,-4.2751,-4.2518,-4.2518,-4.236,-4.2236,-4.2236,-4.2175,-4.2157,-4.2118,-4.1952,-4.1825,-4.1931,-4.1952,-4.1512,-4.1485,-4.149,-4.1512,-4.1283,-4.1163,-4.1047,-4.0894,-4.0769,-4.0697,-4.0648,-4.0631,-4.0704,-4.0728,-4.0793,-4.0817,-4.0864,-4.0894,-4.0894,-4.0894,-4.0894,-4.0894,-4.0894,-4.0894,-4.0894,-4.0894,-4.0894,-4.0894,-4.0894,-4.0894,-4.0942,-4.1088,-4.1163,-4.1186,-4.1186,-4.1186,-4.126,-4.1561,-4.1774,-4.1987,-4.2277,-4.2478,-4.275,-4.305,-4.325,-4.3268,-4.341,-4.3356,-4.3392,-4.3444,-4.3463,-4.3357,-4.3375,-4.3462,-4.3479,-4.3479,-4.3479,-4.3479,-4.3479,-4.3479,-4.3479,-4.3479,-4.3479,-4.3479,-4.3479,-4.3479,-4.3479,-4.3479,-4.3479,-4.3479,-4.3479,-4.3479,-4.305,-4.2436,-4.3182,-4.3482,-4.3595,-4.4195,-4.4463,-4.4482,-4.4482,-4.4482,-4.4482,-4.4482,-4.4306,-4.4075,-4.3876,-4.3681,-4.3513,-4.3411,-4.3375,-4.3444,-4.3462,-4.3462,-4.3497,-4.3479,-4.3479,-4.3479,-4.3444,-4.3444,-4.3444,-4.3462,-4.3214,-4.3013,-4.2976,-4.2845,-4.25,-4.2438,-4.25,-4.2519,-4.2519,-4.242,-4.236,-4.24,-4.24,-4.2257,-4.2095,-4.2074,-4.1969,-4.1731,-4.1468,-4.1472,-4.1134,-4.0871,-4.0769,-4.0745,-4.0769,-4.0888,-4.0871,-4.0871,-4.0888,-4.0912,-4.0894,-4.0894,-4.1067,-4.1101,-4.1119,-4.136,-4.1481,-4.136,-4.1343,-4.117,-4.1084,-4.107,-4.1053,-4.1088,-4.1373,-4.1561,-4.1604,-4.1648,-4.1735,-4.167,-4.199,-4.2277,-4.2458,-4.2692,-4.2863,-4.3013,-4.3304,-4.3479,-4.3479,-4.3479,-4.3444,-4.3427,-4.3462,-4.3497,-4.341,-4.3375,-4.3479,-4.3479,-4.3479,-4.3479,-4.3479,-4.3479,-4.3479,-4.3479,-4.3479,-4.3479,-4.3479,-4.3479,-4.3479,-4.3479,-4.3479,-4.3479,-4.3479,-4.3479,-4.3479,-4.4219,-4.4088,-4.4238,-4.4275,-4.4294,-4.4444,-4.4482,-4.4482,-4.4482,-4.4482,-4.4482,-4.4482,-4.435,-4.4136,-4.406,-4.3873,-4.3646,-4.3532,-4.3481,-4.3532,-4.3513,-4.3479,-4.3479,-4.3479,-4.3479,-4.3479,-4.3479,-4.3479,-4.3479,-4.3479,-4.3427,-4.3392,-4.3357,-4.325,-4.3214,-4.3286,-4.3142,-4.3105,-4.3124,-4.3014,-4.2883,-4.2995,-4.3014,-4.2788,-4.2518,-4.2358,-4.2177,-4.1799,-4.1512,-4.1468,-4.1111,-4.0935,-4.0864,-4.0847,-4.0864,-4.0888,-4.0894,-4.0894,-4.0894,-4.0894,-4.0894,-4.1032,-4.1412,-4.1792,-4.1971,-4.2344,-4.2482,-4.2465,-4.2137,-4.1826,-4.1809,-4.165,-4.1461,-4.1547,-4.1884,-4.2216,-4.2279,-4.2476,-4.2671,-4.2599,-4.2771,-4.2806,-4.292,-4.3032,-4.3142,-4.3232,-4.3375,-4.3479,-4.3479,-4.3479,-4.3479,-4.3479,-4.3479,-4.3479,-4.3462,-4.3462,-4.3479,-4.3479,-4.3479,-4.3479,-4.3479,-4.3479,-4.3479,-4.3479,-4.3479,-4.3479,-4.3479,-4.3479,-4.3479,-4.3479,-4.3479,-4.3479,-4.3479,-4.3479,-4.3479,-4.4783,-4.4655,-4.4655,-4.4581,-4.4515,-4.4482,-4.4482,-4.4482,-4.4482,-4.4482,-4.4482,-4.4501,-4.4482,-4.4388,-4.4254,-4.4102,-4.3949,-4.3695,-4.3664,-4.3732,-4.3582,-4.3479,-4.3479,-4.3479,-4.3479,-4.3479,-4.3479,-4.3479,-4.3479,-4.3479,-4.3479,-4.3479,-4.3479,-4.3479,-4.3479,-4.3462,-4.3479,-4.3479,-4.3479,-4.341,-4.3214,-4.3427,-4.3339,-4.3196,-4.2995,-4.2884,-4.2733,-4.2177,-4.1885,-4.1753,-4.1255,-4.0965,-4.0894,-4.0894,-4.0912,-4.0929,-4.0912,-4.0894,-4.0894,-4.0912,-4.1151,-4.1783,-4.1994,-4.2375,-4.2777,-4.3117,-4.3283,-4.3162,-4.3024,-4.2725,-4.2979,-4.2473,-4.2484,-4.2973,-4.3173,-4.3342,-4.3676,-4.3943,-4.3909,-4.3748,-4.3559,-4.3433,-4.3214,-4.3339,-4.3444,-4.3479,-4.3479,-4.3479,-4.3479,-4.3479,-4.3479,-4.3479,-4.3479,-4.3479,-4.3479,-4.3479,-4.3479,-4.3479,-4.3479,-4.3479,-4.3479,-4.3479,-4.3479,-4.3479,-4.3479,-4.3479,-4.3479,-4.3479,-4.3479,-4.3479,-4.3479,-4.3479,-4.3479,-4.3479,-4.3479,-4.5074,-4.4872,-4.4891,-4.4789,-4.4635,-4.4573,-4.456,-4.4546,-4.4528,-4.451,-4.4537,-4.4537,-4.46,-4.4653,-4.4508,-4.4346,-4.4313,-4.402,-4.3965,-4.391,-4.3749,-4.3599,-4.3496,-4.3479,-4.3479,-4.3479,-4.3479,-4.3479,-4.3479,-4.3479,-4.3479,-4.3479,-4.3479,-4.3479,-4.3479,-4.3479,-4.3479,-4.3479,-4.3479,-4.3479,-4.3479,-4.3479,-4.3479,-4.3479,-4.3479,-4.3444,-4.3321,-4.2732,-4.238,-4.2095,-4.1578,-4.1041,-4.1012,-4.0942,-4.0963,-4.1067,-4.0998,-4.0935,-4.1018,-4.1041,-4.1487,-4.2368,-4.2445,-4.3008,-4.3586,-4.3821,-4.3827,-4.3746,-4.363,-4.3805,-4.4085,-4.365,-4.3788,-4.4249,-4.4437,-4.4513,-4.4915,-4.5138,-4.5124,-4.4856,-4.4417,-4.4122,-4.3978,-4.3427,-4.3479,-4.3479,-4.3479,-4.3479,-4.3479,-4.3479,-4.3479,-4.3479,-4.3479,-4.3479,-4.3479,-4.3479,-4.3479,-4.3479,-4.3479,-4.3479,-4.3479,-4.3479,-4.3479,-4.3479,-4.3479,-4.3479,-4.3479,-4.3479,-4.3479,-4.3479,-4.3479,-4.3479,-4.3479,-4.3479,-4.3479,-4.518,-4.514,-4.5159,-4.5148,-4.5071,-4.4843,-4.4758,-4.4752,-4.4587,-4.4565,-4.4685,-4.4667,-4.4764,-4.4808,-4.4675,-4.4572,-4.4519,-4.4397,-4.4217,-4.4106,-4.3939,-4.3749,-4.3566,-4.3479,-4.3479,-4.3479,-4.3479,-4.3479,-4.3479,-4.3479,-4.3479,-4.3479,-4.3479,-4.3479,-4.3479,-4.3479,-4.3479,-4.3479,-4.3479,-4.3479,-4.3479,-4.3479,-4.3479,-4.3479,-4.3479,-4.3479,-4.3444,-4.3013,-4.275,-4.2653,-4.1906,-4.1468,-4.1396,-4.1088,-4.1339,-4.1464,-4.1391,-4.1082,-4.1485,-4.1686,-4.2081,-4.3007,-4.3279,-4.3788,-4.4327,-4.4852,-4.5172,-4.5789,-4.5236,-4.5035,-4.5334,-4.5132,-4.5147,-4.521,-4.5365,-4.5473,-4.5805,-4.6027,-4.6033,-4.5971,-4.5553,-4.5132,-4.4838,-4.4086,-4.3479,-4.3479,-4.3497,-4.3552,-4.3681,-4.3846,-4.3975,-4.4103,-4.4085,-4.4066,-4.3846,-4.3791,-4.3773,-4.3681,-4.3516,-4.3552,-4.3681,-4.3718,-4.3479,-4.3479,-4.3479,-4.3479,-4.3479,-4.3479,-4.3479,-4.3479,-4.3479,-4.3479,-4.3479,-4.3479,-4.3479,-4.5273,-4.5371,-4.5381,-4.5294,-4.5161,-4.4927,-4.4837,-4.4856,-4.47,-4.4699,-4.4802,-4.4808,-4.4902,-4.4979,-4.4965,-4.4988,-4.4934,-4.4745,-4.4572,-4.4346,-4.4166,-4.3942,-4.3781,-4.3599,-4.3479,-4.3479,-4.3479,-4.3479,-4.3479,-4.3479,-4.3479,-4.3479,-4.3479,-4.3479,-4.3479,-4.3479,-4.3479,-4.3479,-4.3479,-4.3479,-4.3479,-4.3479,-4.3479,-4.3479,-4.3479,-4.3479,-4.341,-4.3123,-4.2919,-4.2749,-4.2011,-4.178,-4.196,-4.1893,-4.1957,-4.2957,-4.2818,-4.2737,-4.2886,-4.3068,-4.3527,-4.4067,-4.4489,-4.4756,-4.5259,-4.5635,-4.6062,-4.6519,-4.6283,-4.6305,-4.6464,-4.6217,-4.6499,-4.6564,-4.6345,-4.6646,-4.6814,-4.6723,-4.6805,-4.675,-4.6669,-4.6231,-4.5737,-4.4984,-4.4415,-4.4232,-4.425,-4.4268,-4.4525,-4.4837,-4.4947,-4.5039,-4.4966,-4.4874,-4.4544,-4.4323,-4.436,-4.4213,-4.3644,-4.3736,-4.4011,-4.4011,-4.3663,-4.3479,-4.3479,-4.3479,-4.3479,-4.3479,-4.3479,-4.3479,-4.3479,-4.3479,-4.3479,-4.3479,-4.3479,-4.5303,-4.5509,-4.5526,-4.5463,-4.5343,-4.5069,-4.5003,-4.5085,-4.4845,-4.484,-4.495,-4.4979,-4.5068,-4.5148,-4.5224,-4.5235,-4.5256,-4.5034,-4.4879,-4.4682,-4.4416,-4.417,-4.3955,-4.3732,-4.3582,-4.3496,-4.3479,-4.3479,-4.3479,-4.3479,-4.3479,-4.3479,-4.3479,-4.3479,-4.3479,-4.3479,-4.3479,-4.3479,-4.3479,-4.3479,-4.3479,-4.3479,-4.3479,-4.3479,-4.3479,-4.3479,-4.3444,-4.3268,-4.3087,-4.3264,-4.2555,-4.2524,-4.3191,-4.298,-4.3191,-4.4061,-4.4377,-4.4671,-4.4645,-4.472,-4.5057,-4.533,-4.5616,-4.5567,-4.6158,-4.6387,-4.656,-4.7044,-4.7017,-4.7263,-4.7505,-4.7195,-4.7354,-4.7526,-4.7509,-4.7843,-4.799,-4.7549,-4.7413,-4.7525,-4.7458,-4.7347,-4.6744,-4.5975,-4.5425,-4.5112,-4.4984,-4.5003,-4.5296,-4.5681,-4.5663,-4.5681,-4.559,-4.548,-4.5241,-4.5002,-4.5002,-4.48,-4.4232,-4.3993,-4.4342,-4.4066,-4.3571,-4.3479,-4.3479,-4.3479,-4.3479,-4.3479,-4.3479,-4.3479,-4.3479,-4.3479,-4.3479,-4.3479,-4.3479,-4.5243,-4.5594,-4.559,-4.5665,-4.5789,-4.5496,-4.5333,-4.5304,-4.5011,-4.4955,-4.5103,-4.5192,-4.5254,-4.5286,-4.5267,-4.5277,-4.5297,-4.5267,-4.5068,-4.4891,-4.4714,-4.4443,-4.4177,-4.3971,-4.3779,-4.3565,-4.3496,-4.3479,-4.3479,-4.3479,-4.3479,-4.3479,-4.3479,-4.3479,-4.3479,-4.3479,-4.3589,-4.3626,-4.3681,-4.3626,-4.3626,-4.3608,-4.3588,-4.3497,-4.3479,-4.3479,-4.3479,-4.3501,-4.3741,-4.4291,-4.364,-4.3727,-4.4474,-4.4116,-4.441,-4.5321,-4.5886,-4.6287,-4.6534,-4.5739,-4.5164,-4.5543,-4.594,-4.6271,-4.6781,-4.6863,-4.7093,-4.7464,-4.7548,-4.7733,-4.8035,-4.8212,-4.8044,-4.8008,-4.7952,-4.7987,-4.8041,-4.7882,-4.7826,-4.8154,-4.8139,-4.7899,-4.7751,-4.6984,-4.6305,-4.5938,-4.5847,-4.5847,-4.6067,-4.6342,-4.6195,-4.614,-4.6085,-4.5993,-4.5902,-4.581,-4.5792,-4.5571,-4.5112,-4.4819,-4.4764,-4.4268,-4.3773,-4.3479,-4.3479,-4.3479,-4.3479,-4.3479,-4.3479,-4.3479,-4.3479,-4.3479,-4.3479,-4.3479,-4.3479,-4.5124,-4.5419,-4.5419,-4.5509,-4.5708,-4.539,-4.5333,-4.5342,-4.5132,-4.5103,-4.5213,-4.5256,-4.5277,-4.5277,-4.5277,-4.5277,-4.5277,-4.5277,-4.5194,-4.5076,-4.4887,-4.4695,-4.443,-4.4166,-4.3908,-4.3765,-4.3615,-4.3479,-4.3479,-4.3552,-4.3497,-4.3479,-4.3608,-4.3479,-4.3479,-4.3571,-4.3773,-4.4158,-4.4232,-4.4232,-4.4232,-4.4213,-4.4011,-4.3533,-4.3479,-4.3479,-4.3552,-4.4011,-4.4378,-4.462,-4.4568,-4.516,-4.5755,-4.5297,-4.569,-4.6604,-4.7008,-4.7409,-4.7767,-4.6954,-4.6507,-4.6302,-4.657,-4.6822,-4.727,-4.7335,-4.7569,-4.7856,-4.7995,-4.8132,-4.8229,-4.8287,-4.8249,-4.823,-4.821,-4.8172,-4.8113,-4.7995,-4.7995,-4.8267,-4.8306,-4.8213,-4.8122,-4.7976,-4.7352,-4.6801,-4.6746,-4.6746,-4.6929,-4.7076,-4.6985,-4.6966,-4.6929,-4.6783,-4.6709,-4.6654,-4.6617,-4.6305,-4.5975,-4.5681,-4.5388,-4.4782,-4.4305,-4.3901,-4.3626,-4.3754,-4.3754,-4.3552,-4.3497,-4.3515,-4.3497,-4.3479,-4.3479,-4.3479,-4.3479,-4.5106,-4.5272,-4.5282,-4.5419,-4.5575,-4.5381,-4.5332,-4.5381,-4.5256,-4.5203,-4.5277,-4.5277,-4.5277,-4.5277,-4.5277,-4.5277,-4.5277,-4.5277,-4.5277,-4.5194,-4.5087,-4.491,-4.4663,-4.4388,-4.4075,-4.3955,-4.3682,-4.3479,-4.3497,-4.3736,-4.3901,-4.3993,-4.4048,-4.4085,-4.357,-4.3808,-4.4158,-4.458,-4.4984,-4.5039,-4.504,-4.5039,-4.4929,-4.436,-4.436,-4.4378,-4.4507,-4.4856,-4.5223,-4.5462,-4.5673,-4.6098,-4.645,-4.6708,-4.6919,-4.7415,-4.7818,-4.7975,-4.8093,-4.7875,-4.7464,-4.7114,-4.7084,-4.7356,-4.7671,-4.7816,-4.7995,-4.8172,-4.8267,-4.8324,-4.8324,-4.8324,-4.8324,-4.8267,-4.8267,-4.8248,-4.8248,-4.819,-4.8209,-4.8324,-4.8324,-4.8324,-4.8288,-4.8196,-4.7976,-4.7516,-4.7535,-4.7553,-4.77,-4.7847,-4.7921,-4.7921,-4.7957,-4.7774,-4.759,-4.7461,-4.7369,-4.7223,-4.6893,-4.6452,-4.6049,-4.5461,-4.5057,-4.4837,-4.4562,-4.4287,-4.4232,-4.4287,-4.3938,-4.3551,-4.3533,-4.3479,-4.3479,-4.3479,-4.3479,-4.5181,-4.5277,-4.5288,-4.5448,-4.5643,-4.5549,-4.5485,-4.5448,-4.5339,-4.5267,-4.5277,-4.5277,-4.5277,-4.5277,-4.5277,-4.5277,-4.5277,-4.5277,-4.5277,-4.5256,-4.5235,-4.5076,-4.4945,-4.4702,-4.4649,-4.4061,-4.4091,-4.4088,-4.3735,-4.4447,-4.4706,-4.4837,-4.5076,-4.4966,-4.3736,-4.4323,-4.469,-4.4874,-4.559,-4.581,-4.5883,-4.5865,-4.5755,-4.548,-4.5424,-4.5369,-4.5424,-4.57,-4.6085,-4.6488,-4.6514,-4.7002,-4.7726,-4.7559,-4.7688,-4.8097,-4.821,-4.8267,-4.8267,-4.7875,-4.765,-4.7548,-4.7485,-4.7775,-4.8132,-4.8248,-4.8209,-4.8324,-4.8324,-4.8324,-4.8324,-4.8324,-4.8324,-4.8324,-4.8324,-4.8324,-4.8324,-4.8324,-4.8324,-4.8324,-4.8324,-4.8324,-4.8324,-4.8306,-4.8306,-4.8196,-4.8269,-4.8324,-4.8324,-4.8324,-4.8324,-4.8324,-4.8324,-4.8196,-4.7994,-4.8141,-4.8122,-4.8012,-4.7719,-4.7186,-4.6746,-4.625,-4.5938,-4.5736,-4.5424,-4.5076,-4.5094,-4.5168,-4.4433,-4.3681,-4.3534,-4.3479,-4.3479,-4.3496,-4.3496,-4.5265,-4.5277,-4.5277,-4.535,-4.5419,-4.539,-4.537,-4.536,-4.5309,-4.5297,-4.5277,-4.5277,-4.5277,-4.5277,-4.5277,-4.5277,-4.5277,-4.5277,-4.5277,-4.5277,-4.5335,-4.5647,-4.5643,-4.5635,-4.5625,-4.5836,-4.5736,-4.5305,-4.5149,-4.5582,-4.5602,-4.5716,-4.5883,-4.559,-4.5278,-4.548,-4.57,-4.625,-4.6581,-4.6672,-4.6691,-4.6654,-4.6489,-4.603,-4.603,-4.6049,-4.6104,-4.6452,-4.6874,-4.7223,-4.7212,-4.7803,-4.825,-4.8035,-4.8132,-4.8287,-4.8324,-4.8324,-4.8305,-4.8093,-4.7935,-4.7836,-4.7877,-4.8075,-4.8305,-4.8324,-4.8324,-4.8324,-4.8324,-4.8324,-4.8324,-4.8324,-4.8324,-4.8324,-4.8324,-4.8324,-4.8324,-4.8324,-4.8324,-4.8324,-4.8324,-4.8324,-4.8324,-4.8324,-4.8324,-4.8324,-4.8324,-4.8324,-4.8324,-4.8324,-4.8324,-4.8324,-4.8324,-4.8324,-4.8324,-4.8324,-4.8324,-4.8177,-4.8012,-4.7737,-4.7315,-4.6948,-4.6562,-4.625,-4.6049,-4.5865,-4.5645,-4.5296,-4.4452,-4.3846,-4.3643,-4.3496,-4.3496,-4.3513,-4.3513,-4.5277,-4.5277,-4.5277,-4.5277,-4.5277,-4.5277,-4.5277,-4.5277,-4.5297,-4.543,-4.564,-4.5468,-4.5488,-4.5575,-4.5411,-4.5297,-4.5277,-4.5277,-4.5277,-4.5335,-4.564,-4.5993,-4.6298,-4.6597,-4.6637,-4.701,-4.6914,-4.6533,-4.5984,-4.6542,-4.6793,-4.682,-4.6709,-4.6838,-4.6673,-4.6654,-4.6507,-4.6966,-4.7204,-4.7516,-4.7516,-4.7461,-4.7296,-4.6966,-4.6819,-4.6819,-4.6893,-4.7168,-4.7498,-4.7682,-4.7957,-4.8324,-4.8324,-4.8324,-4.8324,-4.8324,-4.8324,-4.8324,-4.8305,-4.8305,-4.8113,-4.7955,-4.8172,-4.8287,-4.8324,-4.8324,-4.8324,-4.8324,-4.8324,-4.8343,-4.8361,-4.8361,-4.8343,-4.8343,-4.8343,-4.8343,-4.8324,-4.8324,-4.8324,-4.8324,-4.8324,-4.8324,-4.8324,-4.8324,-4.8324,-4.8324,-4.8324,-4.8324,-4.8324,-4.8324,-4.8324,-4.8324,-4.8324,-4.8324,-4.8324,-4.8324,-4.8324,-4.8324,-4.8177,-4.8031,-4.7939,-4.7553,-4.7168,-4.6893,-4.6966,-4.6801,-4.6012,-4.5369,-4.469,-4.4065,-4.3622,-4.3531,-4.3513,-4.3531,-4.3565,-4.5277,-4.5277,-4.5277,-4.5277,-4.5297,-4.5373,-4.5392,-4.5354,-4.5297,-4.5736,-4.6405,-4.5602,-4.5564,-4.6099,-4.564,-4.543,-4.5564,-4.5545,-4.564,-4.5774,-4.6328,-4.6615,-4.695,-4.7298,-4.7618,-4.7502,-4.7442,-4.7515,-4.6708,-4.7155,-4.7738,-4.7996,-4.7884,-4.7884,-4.7719,-4.748,-4.7223,-4.748,-4.7773,-4.8031,-4.803,-4.8122,-4.8031,-4.7865,-4.7884,-4.7884,-4.7957,-4.8086,-4.8159,-4.8233,-4.8306,-4.8324,-4.8324,-4.8324,-4.8324,-4.8324,-4.8324,-4.8324,-4.8324,-4.8324,-4.8305,-4.8172,-4.8248,-4.8324,-4.8324,-4.8324,-4.8324,-4.8324,-4.8324,-4.8379,-4.8416,-4.8398,-4.836,-4.8361,-4.8361,-4.8343,-4.8324,-4.8324,-4.8324,-4.8324,-4.8324,-4.8324,-4.8324,-4.8324,-4.8398,-4.8324,-4.8324,-4.8324,-4.8324,-4.8324,-4.8324,-4.8324,-4.8324,-4.8324,-4.8324,-4.8324,-4.8324,-4.8324,-4.8324,-4.8214,-4.8158,-4.8122,-4.7829,-4.7719,-4.8067,-4.7664,-4.6342,-4.559,-4.5112,-4.4505,-4.3806,-4.3675,-4.3693,-4.3635,-4.3651,-4.5277,-4.5277,-4.5277,-4.5277,-4.5373,-4.5908,-4.6156,-4.6099,-4.5583,-4.5755,-4.6462,-4.566,-4.566,-4.564,-4.5965,-4.6118,-4.6385,-4.6729,-4.7024,-4.7207,-4.7245,-4.778,-4.8197,-4.8483,-4.8782,-4.9011,-4.9021,-4.865,-4.8155,-4.8233,-4.809,-4.8233,-4.8324,-4.8324,-4.8233,-4.8086,-4.7957,-4.7939,-4.8177,-4.8251,-4.8324,-4.8324,-4.8324,-4.8324,-4.8324,-4.8324,-4.8324,-4.8324,-4.8324,-4.8324,-4.8324,-4.8324,-4.8324,-4.8324,-4.8324,-4.8324,-4.8324,-4.8324,-4.8324,-4.8324,-4.8324,-4.8324,-4.8324,-4.8324,-4.8324,-4.8324,-4.8324,-4.8324,-4.8453,-4.86,-4.8655,-4.8636,-4.8636,-4.8636,-4.8618,-4.8563,-4.8581,-4.871,-4.871,-4.8783,-4.8746,-4.8765,-4.871,-4.8489,-4.8526,-4.8398,-4.8361,-4.8416,-4.8361,-4.8379,-4.8324,-4.8324,-4.8324,-4.8324,-4.8324,-4.8324,-4.8324,-4.8324,-4.8324,-4.8324,-4.8269,-4.8232,-4.8306,-4.8324,-4.8324,-4.7462,-4.6195,-4.5718,-4.5626,-4.4707,-4.4026,-4.3931,-4.3856,-4.3942,-4.3954,-4.5277,-4.5277,-4.5277,-4.5277,-4.543,-4.6156,-4.6672,-4.6863,-4.6481,-4.6596,-4.694,-4.6538,-4.629,-4.6443,-4.6825,-4.7035,-4.7062,-4.7368,-4.7635,-4.7693,-4.8181,-4.8525,-4.9014,-4.9423,-4.9666,-5.0018,-5.0038,-4.9608,-4.9064,-4.8532,-4.8306,-4.8306,-4.8324,-4.8324,-4.8288,-4.8269,-4.8288,-4.8269,-4.8306,-4.8324,-4.8324,-4.8324,-4.8324,-4.8324,-4.8324,-4.8324,-4.8324,-4.8324,-4.8324,-4.8324,-4.8324,-4.8324,-4.8324,-4.8324,-4.8324,-4.8324,-4.8324,-4.8324,-4.8324,-4.8324,-4.8324,-4.8324,-4.8324,-4.8324,-4.8324,-4.8324,-4.8324,-4.8343,-4.8636,-4.8875,-4.8912,-4.8948,-4.8967,-4.8985,-4.8912,-4.8838,-4.9003,-4.9187,-4.9279,-4.937,-4.9407,-4.9426,-4.9279,-4.8967,-4.8948,-4.9279,-4.9242,-4.8985,-4.8783,-4.8526,-4.8416,-4.8324,-4.8324,-4.8324,-4.8324,-4.8324,-4.8324,-4.8324,-4.8324,-4.8324,-4.8324,-4.8324,-4.8324,-4.8324,-4.8324,-4.7407,-4.6526,-4.6416,-4.6177,-4.5276,-4.4776,-4.4974,-4.4897,-4.4633,-4.4607,-4.5277,-4.5277,-4.5297,-4.5373,-4.5507,-4.6309,-4.715,-4.7865,-4.7941,-4.7971,-4.7903,-4.7799,-4.7597,-4.7474,-4.7769,-4.7895,-4.8009,-4.822,-4.8437,-4.8067,-4.8831,-4.9289,-4.95,-4.9882,-5.0076,-5.0221,-5.02,-4.9929,-4.9287,-4.8693,-4.8324,-4.8324,-4.8324,-4.8324,-4.8324,-4.8324,-4.8324,-4.8324,-4.8324,-4.8324,-4.8324,-4.8324,-4.8324,-4.8324,-4.8324,-4.8324,-4.8324,-4.8324,-4.8324,-4.8324,-4.8324,-4.8324,-4.8324,-4.8324,-4.8324,-4.8324,-4.8324,-4.8324,-4.8324,-4.8324,-4.8324,-4.8324,-4.8324,-4.8324,-4.8324,-4.8324,-4.8324,-4.8471,-4.8765,-4.9279,-4.9444,-4.9646,-4.9738,-4.9793,-4.9793,-4.9701,-4.9738,-4.9921,-5.0086,-5.0123,-5.0123,-5.0141,-5.0105,-4.9829,-4.9719,-5.0215,-5.0196,-4.9756,-4.9499,-4.9114,-4.8728,-4.8526,-4.8343,-4.8343,-4.8324,-4.8324,-4.8324,-4.8324,-4.8324,-4.8324,-4.8324,-4.8324,-4.8324,-4.8324,-4.8288,-4.7829,-4.7223,-4.6985,-4.6618,-4.6084,-4.5822,-4.6185,-4.6069,-4.5677,-4.5208,-4.5277,-4.5277,-4.5277,-4.5621,-4.629,-4.7111,-4.7971,-4.8831,-4.9461,-4.9308,-4.8754,-4.8162,-4.7845,-4.7971,-4.8582,-4.8774,-4.885,-4.9156,-4.9614,-4.9557,-4.9843,-4.9805,-4.9958,-5.013,-5.0302,-5.0302,-5.02,-4.9916,-4.9283,-4.8711,-4.8324,-4.8324,-4.8324,-4.8324,-4.8324,-4.8324,-4.8324,-4.8324,-4.8324,-4.8324,-4.8324,-4.8324,-4.8324,-4.8324,-4.8324,-4.8324,-4.8324,-4.8324,-4.8324,-4.8324,-4.8324,-4.8324,-4.8324,-4.8324,-4.8324,-4.8324,-4.8324,-4.8324,-4.8324,-4.8324,-4.8361,-4.8379,-4.8379,-4.8343,-4.8324,-4.8324,-4.8453,-4.8673,-4.9077,-4.9664,-5.005,-5.0306,-5.049,-5.0563,-5.0692,-5.06,-5.0527,-5.0747,-5.093,-5.093,-5.0912,-5.0912,-5.0894,-5.0784,-5.0674,-5.0655,-5.0674,-5.0527,-5.0508,-5.0196,-4.9426,-4.9095,-4.8489,-4.8379,-4.8343,-4.8324,-4.8324,-4.8324,-4.8324,-4.8324,-4.8324,-4.8324,-4.8324,-4.8324,-4.8214,-4.7846,-4.7535,-4.7204,-4.6856,-4.6653,-4.6797,-4.7143,-4.7212,-4.693,-4.6203,-4.5277,-4.5277,-4.5297,-4.5755,-4.6577,-4.7425,-4.8296,-4.9137,-4.9958,-5.0073,-4.9633,-4.9117,-4.8735,-4.8582,-4.927,-4.9595,-4.9652,-5.0034,-5.0092,-5.0225,-5.0302,-5.0245,-5.0302,-5.0302,-5.0302,-5.0259,-4.9942,-4.9556,-4.919,-4.8693,-4.8324,-4.8324,-4.8324,-4.8324,-4.8324,-4.8324,-4.8324,-4.8324,-4.8324,-4.8324,-4.8324,-4.8324,-4.8324,-4.8324,-4.8324,-4.8324,-4.8324,-4.8324,-4.8324,-4.8324,-4.8324,-4.8324,-4.8324,-4.8324,-4.8324,-4.8324,-4.8324,-4.8324,-4.8324,-4.8379,-4.8508,-4.8673,-4.8875,-4.8985,-4.9609,-4.9646,-4.9334,-4.9591,-5.0417,-5.1041,-5.0765,-5.0894,-5.0875,-5.0894,-5.1279,-5.1481,-5.1738,-5.2087,-5.216,-5.216,-5.216,-5.216,-5.2013,-5.1591,-5.1573,-5.1903,-5.1775,-5.1371,-5.1334,-5.1261,-5.049,-4.9829,-4.9315,-4.8618,-4.8343,-4.8324,-4.8324,-4.8324,-4.8324,-4.8324,-4.8324,-4.8324,-4.8324,-4.8324,-4.8288,-4.8141,-4.781,-4.7591,-4.7684,-4.7665,-4.7829,-4.8066,-4.8044,-4.791,-4.7257,-4.5277,-4.5297,-4.5441,-4.5927,-4.6748,-4.7608,-4.8487,-4.9308,-4.9996,-5.0302,-5.0225,-5.0187,-4.9843,-4.9748,-4.992,-5.0149,-5.0283,-5.0264,-5.0283,-5.0302,-5.0302,-5.0302,-5.0302,-5.0302,-5.0248,-5.0025,-4.9674,-4.9424,-4.9142,-4.8623,-4.8324,-4.8324,-4.8324,-4.8324,-4.8324,-4.8324,-4.8324,-4.8324,-4.8324,-4.8324,-4.8324,-4.8324,-4.8324,-4.8324,-4.8324,-4.8324,-4.8324,-4.8324,-4.8324,-4.8324,-4.8324,-4.8324,-4.8324,-4.8324,-4.8324,-4.8324,-4.8324,-4.8324,-4.8361,-4.8545,-4.8948,-4.9335,-4.9592,-5.0013,-5.06,-5.071,-5.0398,-5.071,-5.1536,-5.1756,-5.1499,-5.1518,-5.1463,-5.1499,-5.1958,-5.2289,-5.2711,-5.3057,-5.3057,-5.3057,-5.3057,-5.3057,-5.2821,-5.2399,-5.2509,-5.2858,-5.2803,-5.2435,-5.2123,-5.2013,-5.161,-5.1004,-5.0472,-4.9701,-4.8783,-4.8618,-4.8728,-4.8324,-4.8324,-4.8324,-4.8324,-4.8324,-4.8324,-4.8324,-4.8269,-4.8214,-4.8271,-4.818,-4.8329,-4.8402,-4.8456,-4.8453,-4.8505,-4.8353,-4.8074,-4.5277,-4.5335,-4.5984,-4.6768,-4.7627,-4.8449,-4.9328,-5.0015,-5.0187,-5.0302,-5.0302,-5.0302,-5.0168,-5.0054,-5.0168,-5.0302,-5.0302,-5.0302,-5.0302,-5.0302,-5.0302,-5.0302,-5.0302,-5.029,-5.0132,-4.9844,-4.9512,-4.9209,-4.9206,-4.8698,-4.8379,-4.8489,-4.8434,-4.8416,-4.8379,-4.8434,-4.86,-4.8636,-4.8581,-4.8581,-4.8434,-4.8398,-4.8324,-4.8324,-4.8324,-4.8324,-4.8324,-4.8324,-4.8324,-4.8324,-4.8324,-4.8324,-4.8324,-4.8324,-4.8324,-4.8324,-4.8324,-4.8324,-4.8398,-4.8875,-4.939,-4.9757,-5.0068,-5.0655,-5.1187,-5.1591,-5.1444,-5.1536,-5.2087,-5.2087,-5.1995,-5.2472,-5.2582,-5.2582,-5.2858,-5.2876,-5.3075,-5.3148,-5.3148,-5.3148,-5.3148,-5.3148,-5.3093,-5.2894,-5.2894,-5.3112,-5.3093,-5.2803,-5.2747,-5.2692,-5.2601,-5.2105,-5.1536,-5.0637,-4.9664,-4.9407,-4.9315,-4.8765,-4.8324,-4.8324,-4.8324,-4.8324,-4.8324,-4.8324,-4.8343,-4.8326,-4.8401,-4.8494,-4.8587,-4.8604,-4.8695,-4.8748,-4.88,-4.876,-4.8463]},{"header":{"parameterUnit":"m.s-1","parameterCategory":1,"la1":31.0,"la2":29.5877,"lo1":-88.7671,"lo2":-86.6584,"dy":0.0162,"dx":0.0185,"nx":115,"ny":88,"refTime":"2023-03-24T06:00:00:Z","depth":0,"parameterNumber":3,"parameterNumberName":"V-component_of_WINDS"},"data":[0.0,0.0,0.0,0.0,0.0,0.0,0.0,0.0,0.0,0.0,0.0,0.0,0.0,0.0,0.0,0.0,0.0,0.0,0.0,0.0,0.0,0.0,0.0,0.0,0.0,0.0,0.0,0.0,0.0,0.0,0.0,0.0,0.0,0.0,0.0,0.0,0.0,0.0,0.0,0.0,0.0,0.0,0.0,0.0,0.0,0.0,0.0,0.0,0.0,0.0,0.0,0.0,0.0,0.0,0.0,0.0,0.0,0.0,0.0,0.0,0.0,0.0,0.0,0.0,0.0,0.0,0.0,0.0,0.0,0.0,0.0,0.0,0.0,0.0,0.0,0.0,0.0,0.0,0.0,0.0,0.0,0.0,0.0,0.0,0.0,0.0,0.0,0.0,0.0,0.0,0.0,0.0,0.0,0.0,0.0,0.0,0.0,0.0,0.0,0.0,0.0,0.0,0.0,0.0,0.0,0.0,0.0,0.0,0.0,0.0,0.0,0.0,0.0,0.0,0.0,0.0,0.0,0.0,0.0,0.0,0.0,0.0,0.0,0.0,0.0,0.0,0.0,0.0,0.0,0.0,0.0,0.0,0.0,0.0,0.0,0.0,0.0,0.0,0.0,0.0,0.0,0.0,0.0,0.0,0.0,0.0,0.0,0.0,0.0,0.0,0.0,0.0,0.0,0.0,0.0,0.0,0.0,0.0,0.0,0.0,0.0,0.0,0.0,0.0,0.0,0.0,0.0,0.0,0.0,0.0,0.0,0.0,0.0,0.0,0.0,0.0,0.0,0.0,0.0,0.0,0.0,0.0,0.0,0.0,0.0,0.0,0.0,0.0,0.0,0.0,0.0,0.0,0.0,0.0,0.0,0.0,0.0,0.0,0.0,0.0,0.0,0.0,0.0,0.0,0.0,0.0,0.0,0.0,0.0,0.0,0.0,0.0,0.0,0.0,0.0,0.0,0.0,0.0,0.0,0.0,0.0,0.0,0.0,0.0,0.0,0.0,0.0,0.0,0.0,0.0,0.0,0.0,0.0,0.0,0.0,0.0,0.0,0.0,0.0,0.0,0.0,0.0,0.0,0.0,0.0,0.0,0.0,0.0,0.0,0.0,0.0,0.0,0.0,0.0,0.0,0.0,0.0,0.0,0.0,0.0,0.0,0.0,0.0,0.0,0.0,0.0,0.0,0.0,0.0,0.0,0.0,0.0,0.0,0.0,0.0,0.0,0.0,0.0,0.0,0.0,0.0,0.0,0.0,0.0,0.0,0.0,0.0,0.0,0.0,0.0,0.0,0.0,0.0,0.0,0.0,0.0,0.0,0.0,0.0,0.0,0.0,0.0,0.0,0.0,0.0,0.0,0.0,0.0,0.0,0.0,0.0,0.0,0.0,0.0,0.0,0.0,0.0,0.0,0.0,0.0,0.0,0.0,0.0,0.0,0.0,0.0,0.0,0.0,0.0,0.0,0.0,0.0,0.0,0.0,0.0,0.0,0.0,0.0,0.0,0.0,0.0,0.0,0.0,0.0,0.0,0.0,0.0,0.0,0.0,0.0,0.0,0.0,0.0,0.0,0.0,0.0,0.0,0.0,0.0,0.0,0.0,0.0,0.0,0.0,0.0,0.0,0.0,0.0,0.0,0.0,0.0,0.0,0.0,0.0,0.0,0.0,0.0,0.0,0.0,0.0,0.0,0.0,0.0,0.0,0.0,0.0,0.0,0.0,0.0,0.0,0.0,0.0,0.0,0.0,0.0,0.0,0.0,0.0,0.0,0.0,0.0,0.0,0.0,0.0,0.0,0.0,0.0,0.0,0.0,0.0,0.0,0.0,0.0,0.0,0.0,0.0,0.0,0.0,0.0,0.0,0.0,0.0,0.0,0.0,0.0,0.0,0.0,0.0,0.0,0.0,0.0,0.0,0.0,0.0,0.0,0.0,0.0,0.0,0.0,0.0,0.0,0.0,0.0,0.0,0.0,0.0,0.0,0.0,0.0,0.0,0.0,0.0,0.0,0.0,0.0,0.0,0.0,0.0,0.0,0.0,0.0,0.0,0.0,0.0,0.0,0.0,0.0,0.0,0.0,0.0,0.0,0.0,0.0,0.0,0.0,0.0,0.0,0.0,0.0,0.0,0.0,0.0,0.0,0.0,0.0,0.0,0.0,0.0,0.0,0.0,0.0,0.0,0.0,0.0,0.0,0.0,0.0,0.0,0.0,0.0,0.0,0.0,0.0,0.0,0.0,0.0,0.0,0.0,0.0,0.0,0.0,0.0,0.0,0.0,0.0,0.0,0.0,0.0,0.0,0.0,0.0,0.0,0.0,0.0,0.0,0.0,0.0,0.0,0.0,0.0,0.0,0.0,0.0,0.0,0.0,0.0,0.0,0.0,0.0,0.0,0.0,0.0,0.0,0.0,0.0,0.0,0.0,0.0,0.0,0.0,0.0,0.0,0.0,0.0,0.0,0.0,0.0,0.0,0.0,0.0,0.0,0.0,0.0,0.0,0.0,0.0,0.0,0.0,0.0,0.0,0.0,0.0,0.0,0.0,0.0,0.0,0.0,0.0,0.0,0.0,0.0,0.0,0.0,0.0,0.0,0.0,0.0,0.0,0.0,0.0,0.0,0.0,0.0,0.0,0.0,0.0,0.0,0.0,0.0,0.0,0.0,0.0,0.0,0.0,0.0,0.0,0.0,0.0,0.0,0.0,0.0,0.0,0.0,0.0,0.0,0.0,0.0,0.0,0.0,0.0,0.0,0.0,0.0,0.0,0.0,0.0,0.0,0.0,0.0,0.0,0.0,0.0,0.0,0.0,0.0,0.0,0.0,0.0,0.0,0.0,0.0,0.0,0.0,0.0,0.0,0.0,0.0,0.0,0.0,0.0,0.0,0.0,0.0,0.0,0.0,0.0,0.0,0.0,0.0,0.0,0.0,0.0,0.0,0.0,0.0,0.0,0.0,0.0,0.0,0.0,0.0,0.0,0.0,0.0,0.0,0.0,0.0,0.0,0.0,0.0,0.0,0.0,0.0,0.0,0.0,0.0,0.0,0.0,0.0,0.0,0.0,0.0,0.0,0.0,0.0,0.0,0.0,0.0,0.0,0.0,0.0,0.0,0.0,0.0,0.0,0.0,0.0,0.0,0.0,0.0,0.0,0.0,0.0,0.0,0.0,0.0,0.0,0.0,0.0,0.0,0.0,0.0,0.0,0.0,0.0,0.0,0.0,0.0,0.0,0.0,0.0,0.0,0.0,0.0,0.0,0.0,0.0,0.0,0.0,0.0,0.0,0.0,0.0,0.0,0.0,0.0,0.0,0.0,0.0,0.0,0.0,0.0,0.0,0.0,0.0,0.0,0.0,0.0,0.0,0.0,0.0,0.0,0.0,0.0,0.0,0.0,0.0,0.0,0.0,0.0,0.0,0.0,0.0,0.0,0.0,0.0,0.0,0.0,0.0,0.0,0.0,0.0,0.0,0.0,0.0,0.0,0.0,0.0,0.0,0.0,0.0,0.0,0.0,0.0,0.0,0.0,0.0,0.0,0.0,0.0,0.0,0.0,0.0,0.0,0.0,0.0,0.0,0.0,0.0,0.0,0.0,0.0,0.0,0.0,0.0,0.0,0.0,0.0,0.0,0.0,0.0,0.0,0.0,0.0,0.0,0.0,0.0,0.0,0.0,0.0,0.0,0.0,0.0,0.0,0.0,0.0,0.0,0.0,0.0,0.0,0.0,0.0,0.0,0.0,0.0,0.0,0.0,0.0,0.0,0.0,0.0,0.0,0.0,0.0,0.0,0.0,0.0,0.0,0.0,0.0,0.0,0.0,0.0,0.0,0.0,0.0,0.0,0.0,0.0,0.0,0.0,0.0,0.0,0.0,0.0,0.0,0.0,0.0,0.0,0.0,0.0,0.0,0.0,0.0,0.0,0.0,0.0,0.0,0.0,0.0,0.0,0.0,0.0,0.0,0.0,0.0,0.0,0.0,0.0,0.0,0.0,0.0,0.0,0.0,0.0,0.0,0.0,0.0,0.0,0.0,0.0,0.0,0.0,0.0,0.0,0.0,0.0,0.0,0.0,0.0,0.0,0.0,0.0,0.0,0.0,0.0,0.0,0.0,0.0,0.0,0.0,0.0,0.0,0.0,0.0,0.0,0.0,0.0,0.0,0.0,0.0,0.0,0.0,0.0,0.0,0.0,0.0,0.0,0.0,0.0,0.0,0.0,0.0,0.0,0.0,0.0,0.0,0.0,0.0,0.0,0.0,0.0,0.0,0.0,0.0,0.0,-1.6722,0.0,0.0,0.0,0.0,0.0,0.0,0.0,0.0,0.0,0.0,0.0,0.0,0.0,0.0,0.0,0.0,0.0,0.0,0.0,0.0,0.0,0.0,0.0,0.0,0.0,0.0,0.0,0.0,0.0,0.0,0.0,0.0,0.0,0.0,0.0,0.0,0.0,0.0,0.0,0.0,0.0,0.0,0.0,0.0,0.0,0.0,0.0,0.0,0.0,0.0,0.0,0.0,0.0,0.0,0.0,0.0,0.0,0.0,0.0,0.0,0.0,0.0,0.0,0.0,0.0,0.0,0.0,0.0,0.0,0.0,0.0,0.0,0.0,0.0,0.0,0.0,0.0,0.0,0.0,0.0,0.0,0.0,0.0,0.0,0.0,0.0,0.0,0.0,0.0,0.0,0.0,0.0,0.0,0.0,0.0,0.0,0.0,0.0,0.0,0.0,0.0,0.0,0.0,0.0,0.0,0.0,0.0,0.0,0.0,0.0,-1.6976,-1.6909,-1.6976,-1.6931,-1.6733,0.0,0.0,0.0,0.0,0.0,0.0,0.0,0.0,0.0,0.0,0.0,0.0,0.0,0.0,0.0,0.0,0.0,0.0,0.0,0.0,0.0,0.0,0.0,0.0,0.0,0.0,0.0,0.0,0.0,0.0,0.0,0.0,0.0,0.0,0.0,0.0,0.0,0.0,0.0,0.0,0.0,0.0,0.0,0.0,0.0,0.0,0.0,0.0,0.0,0.0,0.0,0.0,0.0,0.0,0.0,0.0,0.0,0.0,0.0,0.0,0.0,0.0,0.0,0.0,0.0,0.0,0.0,0.0,0.0,0.0,0.0,0.0,0.0,0.0,0.0,0.0,0.0,0.0,0.0,0.0,0.0,0.0,0.0,0.0,0.0,0.0,0.0,0.0,0.0,0.0,0.0,0.0,0.0,0.0,0.0,0.0,0.0,0.0,0.0,0.0,0.0,0.0,0.0,0.0,0.0,0.0,0.0,0.0,0.0,0.0,0.0,0.0,-1.692,-1.6807,-1.6761,0.0,0.0,0.0,0.0,0.0,0.0,0.0,0.0,0.0,0.0,0.0,0.0,0.0,0.0,0.0,0.0,0.0,0.0,0.0,0.0,0.0,0.0,0.0,0.0,0.0,0.0,0.0,0.0,0.0,0.0,0.0,0.0,0.0,0.0,0.0,0.0,0.0,0.0,0.0,0.0,0.0,0.0,0.0,0.0,0.0,0.0,0.0,0.0,0.0,0.0,0.0,0.0,0.0,0.0,0.0,0.0,0.0,0.0,0.0,0.0,0.0,0.0,0.0,0.0,0.0,0.0,0.0,0.0,0.0,0.0,0.0,0.0,0.0,0.0,0.0,0.0,0.0,0.0,0.0,0.0,0.0,0.0,0.0,0.0,0.0,0.0,0.0,0.0,0.0,0.0,0.0,0.0,0.0,0.0,0.0,0.0,0.0,0.0,0.0,0.0,0.0,0.0,0.0,0.0,0.0,0.0,0.0,0.0,0.0,0.0,-1.7011,-1.7011,-1.6983,0.0,-1.6658,0.0,0.0,0.0,0.0,0.0,0.0,0.0,0.0,0.0,0.0,0.0,0.0,0.0,0.0,0.0,0.0,0.0,0.0,0.0,0.0,0.0,0.0,0.0,0.0,0.0,0.0,0.0,0.0,0.0,0.0,0.0,0.0,0.0,0.0,0.0,0.0,0.0,0.0,0.0,0.0,0.0,0.0,0.0,0.0,0.0,0.0,0.0,0.0,0.0,0.0,0.0,0.0,0.0,0.0,0.0,0.0,0.0,0.0,0.0,0.0,0.0,0.0,0.0,0.0,0.0,0.0,0.0,0.0,0.0,0.0,0.0,0.0,0.0,0.0,0.0,0.0,0.0,0.0,0.0,0.0,0.0,0.0,0.0,0.0,0.0,0.0,0.0,0.0,0.0,0.0,0.0,0.0,0.0,0.0,0.0,0.0,0.0,0.0,0.0,0.0,0.0,0.0,0.0,0.0,0.0,0.0,0.0,0.0,0.0,0.0,-1.6937,-1.7011,-1.6768,-1.6591,0.0,0.0,0.0,0.0,0.0,0.0,0.0,0.0,0.0,0.0,0.0,0.0,0.0,0.0,0.0,0.0,0.0,0.0,0.0,0.0,0.0,0.0,0.0,0.0,0.0,0.0,0.0,0.0,0.0,0.0,0.0,0.0,0.0,0.0,0.0,0.0,0.0,0.0,0.0,0.0,0.0,0.0,0.0,0.0,0.0,0.0,0.0,0.0,0.0,0.0,0.0,0.0,0.0,0.0,0.0,0.0,0.0,0.0,0.0,0.0,0.0,0.0,0.0,0.0,0.0,0.0,0.0,0.0,0.0,0.0,0.0,0.0,0.0,0.0,0.0,0.0,0.0,0.0,0.0,0.0,0.0,0.0,0.0,0.0,0.0,0.0,0.0,0.0,0.0,0.0,0.0,0.0,0.0,0.0,0.0,0.0,0.0,0.0,0.0,0.0,0.0,0.0,0.0,0.0,0.0,0.0,0.0,0.0,0.0,0.0,-1.692,-1.6797,-1.6835,-1.6534,-1.6384,-1.6335,0.0,0.0,0.0,0.0,0.0,0.0,0.0,0.0,0.0,0.0,0.0,0.0,0.0,0.0,0.0,0.0,0.0,0.0,0.0,0.0,0.0,0.0,0.0,0.0,0.0,0.0,0.0,0.0,0.0,0.0,0.0,0.0,0.0,0.0,0.0,0.0,0.0,0.0,0.0,0.0,0.0,0.0,0.0,0.0,0.0,0.0,0.0,0.0,0.0,0.0,0.0,0.0,0.0,0.0,0.0,0.0,0.0,0.0,0.0,0.0,0.0,0.0,0.0,0.0,0.0,0.0,0.0,0.0,0.0,0.0,0.0,0.0,0.0,0.0,0.0,0.0,0.0,0.0,0.0,0.0,0.0,0.0,0.0,0.0,0.0,0.0,0.0,0.0,0.0,0.0,0.0,0.0,0.0,0.0,0.0,0.0,0.0,0.0,0.0,0.0,0.0,0.0,0.0,0.0,0.0,0.0,0.0,0.0,-1.7011,-1.687,-1.6676,-1.6449,-1.6402,-1.6306,0.0,0.0,0.0,0.0,0.0,0.0,0.0,0.0,0.0,0.0,0.0,0.0,0.0,0.0,0.0,0.0,0.0,0.0,0.0,0.0,0.0,0.0,0.0,0.0,0.0,0.0,0.0,0.0,0.0,0.0,0.0,0.0,0.0,0.0,0.0,0.0,0.0,0.0,0.0,0.0,0.0,0.0,0.0,0.0,0.0,0.0,0.0,0.0,0.0,0.0,0.0,0.0,0.0,0.0,0.0,0.0,0.0,0.0,0.0,0.0,0.0,0.0,0.0,0.0,0.0,0.0,0.0,0.0,0.0,0.0,0.0,0.0,0.0,0.0,0.0,0.0,0.0,0.0,0.0,0.0,0.0,0.0,0.0,0.0,0.0,0.0,0.0,0.0,0.0,0.0,0.0,0.0,0.0,0.0,0.0,0.0,0.0,0.0,0.0,0.0,0.0,0.0,0.0,0.0,0.0,0.0,0.0,0.0,0.0,-1.6421,-1.609,-1.5998,-1.6185,-1.5758,-1.5635,0.0,0.0,0.0,0.0,0.0,0.0,0.0,0.0,0.0,0.0,0.0,0.0,0.0,0.0,0.0,0.0,0.0,0.0,0.0,0.0,0.0,0.0,0.0,0.0,0.0,0.0,0.0,0.0,0.0,0.0,0.0,0.0,0.0,0.0,0.0,0.0,0.0,0.0,0.0,0.0,0.0,0.0,0.0,0.0,0.0,0.0,0.0,0.0,0.0,0.0,0.0,0.0,0.0,0.0,0.0,0.0,0.0,0.0,0.0,0.0,0.0,0.0,0.0,0.0,0.0,0.0,0.0,0.0,0.0,0.0,0.0,0.0,0.0,0.0,0.0,0.0,0.0,0.0,0.0,0.0,0.0,0.0,0.0,0.0,0.0,0.0,0.0,0.0,0.0,0.0,0.0,0.0,0.0,0.0,0.0,0.0,0.0,0.0,0.0,0.0,0.0,0.0,0.0,0.0,0.0,0.0,0.0,0.0,0.0,-1.6094,0.0,-1.5865,0.0,-1.5498,-1.5314,0.0,0.0,0.0,0.0,0.0,0.0,0.0,0.0,0.0,0.0,0.0,0.0,0.0,0.0,0.0,0.0,0.0,0.0,0.0,0.0,0.0,0.0,0.0,0.0,0.0,0.0,0.0,0.0,0.0,0.0,0.0,0.0,0.0,0.0,0.0,0.0,0.0,0.0,0.0,0.0,0.0,0.0,0.0,0.0,0.0,0.0,0.0,0.0,0.0,0.0,0.0,0.0,0.0,0.0,0.0,0.0,0.0,0.0,0.0,0.0,0.0,0.0,0.0,0.0,0.0,0.0,0.0,0.0,0.0,0.0,0.0,0.0,0.0,0.0,0.0,0.0,0.0,0.0,0.0,0.0,0.0,0.0,0.0,0.0,0.0,0.0,0.0,0.0,0.0,0.0,0.0,0.0,0.0,0.0,0.0,0.0,0.0,0.0,0.0,0.0,0.0,0.0,0.0,0.0,0.0,0.0,0.0,0.0,-1.6073,-1.6084,-1.6388,-1.6276,-1.5756,-1.5666,-1.5388,0.0,0.0,0.0,0.0,0.0,0.0,0.0,0.0,0.0,0.0,0.0,0.0,0.0,0.0,0.0,0.0,0.0,0.0,0.0,0.0,0.0,0.0,0.0,0.0,0.0,0.0,0.0,0.0,0.0,0.0,0.0,0.0,0.0,0.0,0.0,0.0,0.0,0.0,0.0,0.0,0.0,0.0,0.0,0.0,0.0,0.0,0.0,0.0,0.0,0.0,0.0,0.0,0.0,0.0,0.0,0.0,0.0,0.0,0.0,0.0,0.0,0.0,0.0,0.0,0.0,0.0,0.0,0.0,0.0,0.0,0.0,0.0,0.0,0.0,0.0,0.0,0.0,0.0,0.0,0.0,0.0,0.0,0.0,0.0,0.0,0.0,0.0,0.0,0.0,0.0,0.0,0.0,0.0,0.0,0.0,0.0,0.0,0.0,0.0,0.0,0.0,0.0,0.0,0.0,0.0,0.0,0.0,0.0,0.0,-1.5376,-1.5599,-1.5994,-1.6385,-1.5425,-1.4976,0.0,0.0,0.0,0.0,0.0,0.0,0.0,0.0,0.0,0.0,0.0,0.0,0.0,0.0,0.0,0.0,0.0,0.0,0.0,0.0,0.0,0.0,0.0,0.0,0.0,0.0,0.0,0.0,0.0,0.0,0.0,0.0,0.0,0.0,0.0,0.0,0.0,0.0,0.0,0.0,0.0,0.0,0.0,0.0,0.0,0.0,0.0,0.0,0.0,0.0,0.0,0.0,0.0,0.0,0.0,0.0,0.0,0.0,0.0,0.0,0.0,0.0,0.0,0.0,0.0,0.0,0.0,0.0,0.0,0.0,0.0,0.0,0.0,0.0,0.0,0.0,0.0,0.0,0.0,0.0,0.0,0.0,0.0,0.0,0.0,0.0,0.0,0.0,0.0,0.0,0.0,0.0,0.0,0.0,0.0,0.0,0.0,0.0,0.0,0.0,0.0,0.0,0.0,0.0,0.0,0.0,0.0,0.0,0.0,-1.6206,-1.631,-1.6654,-1.7263,-1.5882,-1.517,-1.5315,0.0,0.0,0.0,0.0,0.0,0.0,0.0,0.0,0.0,0.0,0.0,0.0,0.0,0.0,0.0,0.0,0.0,0.0,0.0,0.0,0.0,0.0,0.0,0.0,0.0,0.0,0.0,0.0,0.0,0.0,0.0,0.0,0.0,0.0,0.0,0.0,0.0,0.0,0.0,0.0,0.0,0.0,0.0,0.0,0.0,0.0,0.0,0.0,0.0,0.0,0.0,0.0,0.0,0.0,0.0,0.0,0.0,0.0,0.0,0.0,0.0,0.0,0.0,0.0,0.0,0.0,0.0,0.0,0.0,0.0,0.0,0.0,0.0,0.0,0.0,0.0,0.0,0.0,0.0,0.0,0.0,0.0,0.0,0.0,0.0,0.0,0.0,0.0,0.0,0.0,0.0,0.0,0.0,0.0,0.0,0.0,0.0,0.0,0.0,0.0,0.0,0.0,0.0,0.0,0.0,0.0,0.0,0.0,-1.8308,-1.8256,-1.8226,-1.8265,-1.6932,-1.5942,0.0,0.0,0.0,0.0,0.0,0.0,0.0,0.0,0.0,0.0,0.0,0.0,0.0,0.0,0.0,0.0,0.0,0.0,0.0,0.0,0.0,0.0,0.0,0.0,0.0,0.0,0.0,0.0,0.0,0.0,0.0,0.0,0.0,0.0,0.0,0.0,0.0,0.0,0.0,0.0,0.0,0.0,0.0,0.0,0.0,0.0,0.0,0.0,0.0,0.0,0.0,0.0,0.0,0.0,0.0,0.0,0.0,0.0,0.0,0.0,0.0,0.0,0.0,0.0,0.0,0.0,0.0,0.0,0.0,0.0,0.0,0.0,0.0,0.0,0.0,0.0,0.0,0.0,0.0,0.0,0.0,0.0,0.0,0.0,0.0,0.0,0.0,0.0,0.0,0.0,0.0,0.0,0.0,0.0,0.0,0.0,0.0,0.0,0.0,0.0,0.0,0.0,0.0,0.0,0.0,0.0,0.0,0.0,0.0,-1.9666,-2.0355,-2.0621,-2.0367,-1.8563,-1.7471,0.0,0.0,0.0,0.0,0.0,0.0,0.0,0.0,0.0,0.0,0.0,0.0,0.0,0.0,0.0,0.0,0.0,0.0,0.0,0.0,0.0,0.0,0.0,0.0,0.0,0.0,0.0,0.0,0.0,0.0,0.0,0.0,0.0,0.0,0.0,0.0,0.0,0.0,0.0,0.0,0.0,0.0,0.0,0.0,0.0,0.0,0.0,0.0,0.0,0.0,0.0,0.0,0.0,0.0,0.0,0.0,0.0,0.0,0.0,0.0,0.0,0.0,0.0,0.0,0.0,0.0,0.0,0.0,0.0,0.0,0.0,0.0,0.0,0.0,0.0,0.0,0.0,0.0,0.0,0.0,0.0,0.0,0.0,0.0,0.0,0.0,0.0,0.0,0.0,0.0,0.0,0.0,0.0,0.0,0.0,0.0,0.0,0.0,0.0,0.0,0.0,0.0,0.0,0.0,0.0,0.0,0.0,0.0,-1.9324,-2.0049,-2.1609,-2.2421,-2.2444,-1.9916,-1.8498,0.0,0.0,0.0,0.0,0.0,0.0,0.0,0.0,0.0,0.0,0.0,0.0,0.0,0.0,0.0,0.0,0.0,0.0,0.0,0.0,0.0,0.0,0.0,0.0,0.0,0.0,0.0,0.0,0.0,0.0,0.0,0.0,0.0,0.0,0.0,0.0,0.0,0.0,0.0,0.0,0.0,0.0,0.0,0.0,0.0,0.0,0.0,0.0,0.0,0.0,0.0,0.0,0.0,0.0,0.0,0.0,0.0,0.0,0.0,0.0,0.0,0.0,0.0,0.0,0.0,0.0,0.0,0.0,0.0,0.0,0.0,0.0,0.0,0.0,0.0,0.0,0.0,0.0,0.0,0.0,0.0,0.0,0.0,0.0,0.0,0.0,0.0,0.0,0.0,0.0,0.0,0.0,0.0,0.0,0.0,0.0,0.0,0.0,0.0,0.0,0.0,0.0,0.0,0.0,0.0,0.0,0.0,0.0,-1.9577,-1.9894,-2.219,-2.3625,-2.4028,-2.1063,-1.9306,0.0,0.0,0.0,0.0,0.0,0.0,0.0,0.0,0.0,0.0,0.0,0.0,0.0,0.0,0.0,0.0,0.0,0.0,0.0,0.0,0.0,0.0,0.0,0.0,0.0,0.0,0.0,0.0,0.0,0.0,0.0,0.0,0.0,0.0,0.0,0.0,0.0,0.0,0.0,0.0,0.0,0.0,0.0,0.0,0.0,0.0,0.0,0.0,0.0,0.0,0.0,0.0,0.0,0.0,0.0,0.0,0.0,0.0,0.0,0.0,0.0,0.0,0.0,0.0,0.0,0.0,0.0,0.0,0.0,0.0,0.0,0.0,0.0,0.0,0.0,0.0,0.0,0.0,0.0,0.0,0.0,0.0,0.0,0.0,0.0,0.0,0.0,0.0,0.0,0.0,0.0,0.0,0.0,0.0,0.0,0.0,0.0,0.0,0.0,0.0,0.0,0.0,0.0,0.0,0.0,0.0,0.0,0.0,-1.9831,-2.0304,-2.234,-2.3453,-2.3556,-2.1739,-2.0592,0.0,0.0,0.0,0.0,0.0,0.0,0.0,0.0,0.0,0.0,0.0,0.0,0.0,0.0,0.0,0.0,0.0,0.0,0.0,0.0,0.0,0.0,0.0,0.0,0.0,0.0,0.0,0.0,0.0,0.0,0.0,0.0,0.0,0.0,0.0,0.0,0.0,0.0,0.0,0.0,0.0,0.0,0.0,0.0,0.0,0.0,0.0,0.0,-1.4089,0.0,0.0,0.0,0.0,0.0,0.0,0.0,0.0,0.0,0.0,0.0,0.0,0.0,0.0,0.0,0.0,0.0,0.0,0.0,0.0,0.0,0.0,0.0,0.0,0.0,0.0,0.0,0.0,0.0,0.0,0.0,0.0,0.0,0.0,0.0,0.0,0.0,0.0,0.0,0.0,0.0,0.0,0.0,0.0,0.0,0.0,0.0,0.0,0.0,0.0,0.0,0.0,0.0,0.0,0.0,0.0,0.0,0.0,0.0,-1.9424,-2.04,-2.1894,-2.28,-2.2995,-2.2131,-2.1335,0.0,0.0,0.0,0.0,0.0,0.0,0.0,0.0,0.0,0.0,0.0,0.0,0.0,0.0,0.0,0.0,0.0,0.0,0.0,0.0,0.0,0.0,0.0,0.0,0.0,0.0,0.0,0.0,0.0,0.0,0.0,0.0,0.0,0.0,0.0,0.0,0.0,0.0,0.0,0.0,0.0,0.0,0.0,0.0,0.0,0.0,0.0,0.0,0.0,0.0,0.0,0.0,0.0,0.0,0.0,0.0,0.0,0.0,0.0,0.0,0.0,0.0,0.0,0.0,0.0,0.0,0.0,0.0,0.0,0.0,0.0,0.0,0.0,0.0,0.0,0.0,0.0,0.0,0.0,0.0,0.0,0.0,0.0,0.0,0.0,0.0,0.0,0.0,0.0,0.0,0.0,0.0,0.0,0.0,0.0,0.0,0.0,0.0,0.0,0.0,0.0,0.0,0.0,0.0,0.0,0.0,0.0,-1.8146,-1.8879,-2.0481,-2.1445,-2.2145,-2.2547,-2.2266,-2.1629,-2.0758,0.0,0.0,0.0,0.0,0.0,0.0,0.0,0.0,0.0,0.0,0.0,0.0,0.0,0.0,0.0,0.0,0.0,0.0,0.0,0.0,0.0,0.0,0.0,0.0,0.0,0.0,0.0,0.0,0.0,0.0,0.0,0.0,0.0,0.0,0.0,0.0,0.0,0.0,-1.395,-1.4229,0.0,0.0,0.0,0.0,0.0,0.0,0.0,0.0,-1.4095,0.0,0.0,0.0,0.0,0.0,0.0,0.0,0.0,0.0,0.0,0.0,0.0,0.0,0.0,0.0,0.0,0.0,0.0,0.0,0.0,0.0,0.0,0.0,0.0,0.0,0.0,0.0,0.0,0.0,0.0,0.0,0.0,0.0,0.0,0.0,0.0,0.0,0.0,0.0,0.0,0.0,0.0,0.0,0.0,0.0,0.0,0.0,0.0,0.0,0.0,0.0,0.0,0.0,0.0,0.0,0.0,-1.8747,-1.8329,-1.9051,-2.1017,-2.1629,-2.1929,-2.2009,-2.1973,-2.1285,-1.9979,0.0,0.0,0.0,0.0,0.0,0.0,0.0,0.0,0.0,0.0,0.0,0.0,0.0,0.0,0.0,0.0,0.0,0.0,0.0,0.0,0.0,0.0,0.0,0.0,0.0,0.0,0.0,0.0,0.0,0.0,0.0,0.0,0.0,0.0,0.0,0.0,0.0,0.0,0.0,-1.4969,-1.4741,0.0,0.0,0.0,0.0,0.0,0.0,0.0,0.0,-1.4857,0.0,0.0,0.0,0.0,0.0,0.0,0.0,0.0,0.0,0.0,0.0,0.0,0.0,0.0,0.0,0.0,0.0,0.0,0.0,0.0,0.0,0.0,0.0,0.0,0.0,0.0,0.0,0.0,0.0,0.0,0.0,0.0,0.0,0.0,0.0,0.0,0.0,0.0,0.0,0.0,0.0,0.0,0.0,0.0,0.0,0.0,0.0,0.0,0.0,0.0,0.0,0.0,0.0,0.0,0.0,-1.8856,-1.9004,-1.976,-2.1247,-2.1086,-2.1157,-2.1504,-2.1038,-2.0267,0.0,0.0,0.0,0.0,0.0,0.0,0.0,0.0,0.0,0.0,0.0,0.0,0.0,0.0,0.0,0.0,0.0,0.0,0.0,0.0,0.0,0.0,0.0,0.0,0.0,0.0,0.0,0.0,0.0,0.0,0.0,0.0,0.0,0.0,0.0,0.0,0.0,0.0,0.0,0.0,-1.5684,-1.5813,-1.6552,0.0,0.0,0.0,0.0,0.0,0.0,-1.4817,-1.4955,0.0,0.0,0.0,0.0,0.0,0.0,0.0,0.0,0.0,0.0,0.0,0.0,0.0,0.0,0.0,0.0,0.0,0.0,0.0,0.0,0.0,0.0,0.0,0.0,0.0,0.0,0.0,0.0,0.0,0.0,0.0,0.0,0.0,0.0,0.0,0.0,0.0,0.0,0.0,0.0,0.0,0.0,0.0,0.0,0.0,0.0,0.0,0.0,0.0,0.0,0.0,0.0,0.0,0.0,0.0,-1.8803,-1.9541,-2.0359,-2.1267,-2.0656,-2.0592,-2.1158,-2.0168,-1.9326,0.0,0.0,0.0,0.0,0.0,0.0,0.0,0.0,0.0,0.0,0.0,0.0,0.0,0.0,0.0,0.0,0.0,0.0,0.0,0.0,0.0,0.0,0.0,0.0,0.0,0.0,0.0,0.0,0.0,0.0,0.0,0.0,0.0,0.0,0.0,0.0,0.0,0.0,0.0,0.0,0.0,-1.6713,-1.7582,-1.6394,0.0,0.0,0.0,0.0,-1.493,-1.5316,0.0,0.0,0.0,0.0,0.0,0.0,0.0,0.0,0.0,0.0,0.0,0.0,0.0,0.0,0.0,0.0,0.0,0.0,0.0,0.0,0.0,0.0,0.0,0.0,0.0,0.0,0.0,0.0,0.0,0.0,0.0,0.0,0.0,0.0,0.0,0.0,0.0,0.0,0.0,0.0,0.0,0.0,0.0,0.0,0.0,0.0,0.0,0.0,0.0,0.0,0.0,0.0,0.0,0.0,0.0,0.0,-1.8203,-1.9327,-2.034,-2.1164,-2.1126,-2.1094,-2.119,-1.9941,-1.9031,0.0,0.0,0.0,0.0,0.0,0.0,0.0,0.0,0.0,0.0,0.0,0.0,0.0,0.0,0.0,0.0,0.0,0.0,0.0,0.0,0.0,0.0,0.0,0.0,0.0,0.0,0.0,0.0,0.0,0.0,0.0,0.0,0.0,0.0,0.0,0.0,0.0,0.0,0.0,0.0,0.0,-1.6588,-1.7025,-1.6308,-1.5516,0.0,0.0,-1.6871,-1.5745,-1.7433,0.0,0.0,0.0,0.0,0.0,0.0,0.0,0.0,0.0,0.0,0.0,0.0,0.0,0.0,0.0,0.0,0.0,0.0,0.0,0.0,0.0,0.0,0.0,0.0,0.0,0.0,0.0,0.0,0.0,0.0,0.0,0.0,0.0,0.0,0.0,0.0,0.0,0.0,0.0,0.0,0.0,0.0,0.0,0.0,0.0,0.0,0.0,0.0,0.0,0.0,0.0,0.0,0.0,0.0,0.0,-1.7653,-1.8255,-1.9977,-2.1086,-2.1443,-2.0903,-2.0764,-2.119,-1.9488,-1.8646,0.0,0.0,0.0,0.0,0.0,0.0,0.0,0.0,0.0,0.0,0.0,0.0,0.0,0.0,0.0,0.0,0.0,0.0,0.0,0.0,0.0,0.0,0.0,0.0,0.0,0.0,0.0,0.0,0.0,0.0,0.0,0.0,0.0,0.0,0.0,0.0,0.0,0.0,0.0,0.0,0.0,0.0,-1.7617,-1.7214,0.0,0.0,0.0,-1.7112,-1.5811,0.0,0.0,0.0,0.0,0.0,0.0,0.0,0.0,0.0,0.0,0.0,0.0,0.0,0.0,0.0,0.0,0.0,0.0,0.0,0.0,0.0,0.0,0.0,0.0,0.0,0.0,0.0,0.0,0.0,0.0,0.0,0.0,0.0,0.0,0.0,0.0,0.0,0.0,0.0,0.0,0.0,0.0,0.0,0.0,0.0,0.0,0.0,0.0,0.0,0.0,0.0,0.0,0.0,0.0,0.0,0.0,0.0,-1.8352,-2.0569,-2.173,-2.1624,-2.0828,-2.0656,-2.1146,-1.9506,0.0,0.0,0.0,0.0,0.0,0.0,0.0,0.0,0.0,0.0,0.0,0.0,0.0,0.0,0.0,0.0,0.0,0.0,0.0,0.0,0.0,0.0,0.0,0.0,0.0,0.0,0.0,-1.7193,0.0,0.0,0.0,0.0,0.0,0.0,0.0,0.0,0.0,0.0,0.0,0.0,0.0,0.0,-1.7902,-1.8023,-1.7861,-1.7921,0.0,0.0,-1.7485,-1.6745,-1.8504,-1.9031,0.0,0.0,0.0,0.0,0.0,0.0,0.0,0.0,0.0,0.0,0.0,0.0,0.0,0.0,0.0,0.0,0.0,0.0,0.0,0.0,0.0,0.0,0.0,0.0,0.0,0.0,0.0,0.0,0.0,0.0,0.0,0.0,0.0,0.0,0.0,0.0,0.0,0.0,0.0,0.0,0.0,0.0,0.0,0.0,0.0,0.0,0.0,0.0,0.0,0.0,0.0,0.0,0.0,0.0,0.0,-1.8491,-2.0676,-2.1726,-2.1431,-2.1356,-2.1273,-2.119,-2.0341,-1.9546,0.0,0.0,0.0,0.0,0.0,0.0,0.0,0.0,0.0,0.0,0.0,0.0,0.0,0.0,0.0,0.0,0.0,0.0,0.0,0.0,0.0,0.0,0.0,0.0,0.0,0.0,0.0,0.0,0.0,0.0,0.0,0.0,0.0,0.0,0.0,0.0,0.0,0.0,0.0,0.0,0.0,-1.8241,-1.7723,-1.7934,-1.8574,0.0,0.0,-1.8507,-1.9545,-2.0725,-2.0612,-1.7883,0.0,0.0,0.0,0.0,0.0,0.0,0.0,0.0,0.0,0.0,0.0,0.0,0.0,0.0,0.0,0.0,0.0,0.0,0.0,0.0,0.0,0.0,0.0,0.0,0.0,0.0,0.0,0.0,0.0,0.0,0.0,0.0,0.0,0.0,0.0,0.0,0.0,0.0,0.0,0.0,0.0,0.0,0.0,0.0,0.0,0.0,0.0,0.0,0.0,0.0,0.0,0.0,0.0,-1.8561,-1.8911,-2.0805,-2.1718,-2.158,-2.138,-2.1253,-2.1221,-2.0583,-1.9867,0.0,0.0,0.0,0.0,0.0,0.0,0.0,0.0,0.0,0.0,0.0,0.0,0.0,0.0,0.0,0.0,0.0,0.0,0.0,0.0,0.0,0.0,0.0,0.0,0.0,0.0,0.0,0.0,-1.7789,-1.767,-1.7198,0.0,0.0,0.0,0.0,0.0,0.0,0.0,0.0,0.0,0.0,-1.8357,-1.8981,-1.9235,0.0,0.0,-1.9638,-1.9256,-1.9088,-1.9876,-1.962,-1.7254,-1.6729,0.0,0.0,0.0,0.0,0.0,0.0,0.0,0.0,0.0,0.0,0.0,0.0,0.0,0.0,0.0,0.0,0.0,0.0,0.0,0.0,0.0,0.0,0.0,0.0,0.0,0.0,0.0,0.0,0.0,0.0,0.0,0.0,0.0,0.0,0.0,0.0,0.0,0.0,0.0,0.0,0.0,0.0,0.0,0.0,0.0,0.0,0.0,0.0,0.0,0.0,0.0,0.0,-1.8751,-1.9263,-2.0959,-2.1824,-2.1761,-2.1486,-2.1328,-2.1273,-2.0845,-2.0266,0.0,0.0,0.0,0.0,0.0,0.0,0.0,0.0,0.0,0.0,0.0,0.0,0.0,0.0,0.0,0.0,0.0,0.0,0.0,0.0,0.0,0.0,0.0,0.0,0.0,0.0,0.0,0.0,-1.7798,-1.7605,-1.699,0.0,0.0,0.0,0.0,0.0,0.0,0.0,0.0,0.0,0.0,-1.8806,-1.9463,-1.9507,-1.9507,-1.9582,-1.9179,-1.8661,-1.8285,-1.8806,-1.8657,-1.6929,0.0,0.0,0.0,0.0,0.0,0.0,0.0,0.0,0.0,0.0,0.0,0.0,0.0,0.0,0.0,0.0,0.0,0.0,0.0,0.0,0.0,0.0,0.0,0.0,0.0,0.0,0.0,0.0,0.0,0.0,-1.6983,0.0,0.0,0.0,0.0,0.0,0.0,0.0,0.0,0.0,0.0,0.0,0.0,0.0,0.0,0.0,0.0,0.0,0.0,0.0,0.0,0.0,0.0,-1.9116,-1.9415,-2.123,-2.2092,-2.1906,-2.1761,-2.1592,-2.1388,-2.1242,-2.0862,-2.0163,0.0,0.0,0.0,0.0,0.0,0.0,0.0,0.0,0.0,0.0,0.0,0.0,0.0,0.0,0.0,0.0,0.0,0.0,0.0,0.0,0.0,0.0,0.0,0.0,0.0,0.0,-1.7055,-1.7116,-1.7162,0.0,0.0,0.0,0.0,0.0,0.0,0.0,0.0,0.0,0.0,-1.8802,-1.971,-1.8721,-1.8397,-1.8342,-1.8342,-1.7153,-1.6583,-1.7502,-1.7951,-1.8031,0.0,0.0,0.0,0.0,0.0,0.0,0.0,0.0,0.0,0.0,0.0,0.0,0.0,0.0,0.0,0.0,0.0,0.0,0.0,0.0,0.0,0.0,0.0,0.0,0.0,0.0,0.0,-1.7253,-1.7234,0.0,0.0,0.0,0.0,0.0,0.0,0.0,0.0,0.0,0.0,0.0,-1.8302,-1.8249,0.0,0.0,0.0,0.0,0.0,0.0,0.0,0.0,0.0,0.0,0.0,0.0,-1.933,-1.979,-2.1204,-2.1937,-2.1792,-2.1612,-2.1443,-2.1273,-2.1221,-2.0653,-1.948,0.0,0.0,0.0,0.0,0.0,0.0,0.0,0.0,0.0,0.0,0.0,0.0,0.0,0.0,0.0,0.0,0.0,0.0,0.0,0.0,0.0,0.0,0.0,0.0,0.0,-1.7388,0.0,0.0,0.0,0.0,0.0,0.0,0.0,0.0,0.0,0.0,0.0,-1.7518,-1.8105,-1.8223,-1.839,-1.8656,-1.8643,-1.882,0.0,0.0,0.0,0.0,0.0,0.0,0.0,0.0,0.0,0.0,0.0,0.0,0.0,0.0,-1.65,-1.5382,-1.5697,-1.6203,-1.6477,0.0,0.0,0.0,0.0,0.0,0.0,0.0,0.0,0.0,0.0,0.0,0.0,0.0,0.0,0.0,0.0,-1.804,0.0,0.0,0.0,0.0,0.0,0.0,0.0,0.0,-1.7729,-1.8131,-1.8717,-1.8578,-1.9073,0.0,-2.0323,-2.0042,0.0,0.0,0.0,0.0,0.0,0.0,0.0,0.0,-1.9581,-2.0059,-2.1268,-2.1874,-2.1749,-2.1537,-2.1356,-2.1285,-2.1221,-2.0649,-1.9478,-1.8815,-1.84,0.0,0.0,0.0,0.0,0.0,0.0,0.0,0.0,0.0,0.0,0.0,0.0,0.0,0.0,0.0,0.0,0.0,0.0,0.0,0.0,0.0,0.0,0.0,-1.7651,0.0,0.0,0.0,0.0,0.0,0.0,0.0,0.0,0.0,-1.7599,-1.7728,-1.8076,-1.8691,-1.8527,-1.8328,-1.8284,0.0,0.0,0.0,0.0,0.0,0.0,0.0,-1.622,-1.5818,-1.6103,-1.6693,-1.7525,-1.7966,-1.8193,-1.8193,0.0,0.0,-1.6727,-1.7085,-1.7634,-1.7772,-1.7634,-1.7432,-1.7229,-1.7025,-1.6821,0.0,0.0,0.0,0.0,0.0,0.0,0.0,0.0,-1.7837,-1.7998,0.0,-1.8504,0.0,0.0,0.0,0.0,0.0,-1.739,0.0,0.0,-1.8081,-1.8556,-1.9416,-1.9105,-1.9776,-2.1255,-2.0638,-2.0607,-2.1169,-2.1362,0.0,0.0,0.0,0.0,0.0,0.0,-1.986,-2.0235,-2.1322,-2.1906,-2.1862,-2.1588,-2.1388,-2.1388,-2.1242,-2.0816,-2.0161,-2.0561,-2.0378,-1.9386,-1.9147,0.0,0.0,0.0,0.0,0.0,0.0,0.0,0.0,0.0,0.0,0.0,0.0,0.0,0.0,0.0,0.0,0.0,0.0,0.0,0.0,-1.7908,0.0,0.0,0.0,0.0,0.0,0.0,0.0,0.0,0.0,0.0,-1.745,-1.8138,-1.8758,-1.8749,0.0,0.0,0.0,0.0,-1.7683,-1.5475,-1.4917,-1.4796,-1.4691,-1.569,-1.6845,-1.7974,0.0,0.0,-2.0005,-1.9076,-1.8394,-1.8328,-1.9327,-1.9691,-1.8539,-1.829,-1.8299,-1.8299,-1.8113,-1.7621,-1.6753,-1.6589,-1.6133,-1.4839,0.0,0.0,0.0,0.0,-1.6251,-1.6991,-1.756,-1.8744,-1.9113,-1.8914,-1.9198,0.0,0.0,0.0,0.0,0.0,0.0,-1.8442,-1.866,-1.8755,-1.9166,-1.9764,-1.9656,-1.9886,-2.0353,-2.1228,-2.154,-2.1431,-2.2168,-2.1437,-1.9298,0.0,0.0,0.0,0.0,-2.0111,-2.0717,-2.1623,-2.1999,-2.1761,-2.1667,-2.1517,-2.1285,-2.072,-2.0334,-2.0107,-2.0404,-2.0403,-2.0027,-2.048,0.0,0.0,0.0,0.0,0.0,0.0,0.0,0.0,0.0,0.0,0.0,0.0,0.0,0.0,0.0,0.0,0.0,0.0,0.0,-1.7706,-1.8473,-1.8548,0.0,0.0,0.0,0.0,0.0,0.0,0.0,0.0,0.0,-1.8503,-1.8178,-1.7905,0.0,0.0,-1.7308,-1.6724,-1.7435,-1.7996,-1.8021,0.0,0.0,0.0,-1.8009,-1.7911,-1.7948,-1.9123,-2.0023,-1.9989,-2.0386,-2.0697,-2.0679,-2.0965,-2.1091,-2.0761,-2.0158,-1.973,-1.9651,-1.9079,-1.8503,-1.82,-1.8058,-1.7916,-1.5312,-1.5419,-1.5118,-1.5045,-1.5177,-1.6272,-1.6961,-1.7437,-1.854,-1.9013,-1.9004,-1.9304,-1.9095,-1.8482,-1.8482,0.0,0.0,0.0,-1.8944,-1.9295,-1.9225,-1.9528,-2.0127,-1.999,-2.0189,-2.0657,-2.1188,-2.1446,-2.1505,-2.1524,-2.0823,-1.9417,0.0,0.0,-1.931,-2.003,-2.0629,-2.105,-2.1725,-2.1937,-2.171,-2.1561,-2.1265,-2.0764,-2.0592,-2.0399,-2.0118,-2.0877,-2.1153,-2.079,-2.1549,-2.1449,0.0,0.0,0.0,0.0,0.0,0.0,0.0,0.0,0.0,0.0,0.0,-1.6983,0.0,0.0,0.0,0.0,-1.8286,-1.8395,-1.8397,-1.8656,0.0,0.0,0.0,0.0,0.0,0.0,0.0,-1.7317,-1.8291,-1.8993,-1.8993,-1.8518,-1.8214,-1.8408,-1.8122,-1.7789,-1.7398,0.0,-1.8829,-1.8988,-1.8802,-1.8811,-1.9138,-1.9135,-1.9126,-1.9384,-2.0072,-2.0643,-2.0679,-2.1253,-2.1678,-2.1687,-2.1687,-2.1687,-2.1687,-2.0943,-2.0447,-2.0763,-2.0402,-1.9849,-1.9476,-1.9063,-1.8703,-1.617,-1.6103,-1.5415,-1.5173,-1.5281,-1.613,-1.6614,-1.6764,-1.7626,-1.8113,-1.8341,-1.9001,-1.908,-1.8668,-1.8658,0.0,-1.9031,-1.9031,-1.9383,-1.9951,-1.9597,-1.9805,-2.0566,-2.0156,-2.0564,-2.1607,-2.0782,-2.074,-2.1416,-2.0172,-1.9695,-2.0208,-2.0813,-2.0795,-2.0223,-2.0801,-2.1123,-2.1182,-2.1585,-2.1757,-2.1662,-2.1337,-2.0812,-2.0151,-2.078,-2.078,-2.0162,-2.1666,-2.2239,-2.1625,-2.2428,-2.2147,-2.0545,0.0,0.0,0.0,0.0,0.0,0.0,0.0,0.0,0.0,0.0,0.0,0.0,0.0,0.0,0.0,-1.907,0.0,-1.9402,-1.8704,0.0,0.0,0.0,-1.839,-1.896,-1.9207,-1.9295,-1.9051,0.0,0.0,-1.9132,0.0,-1.9399,-2.0235,-2.021,-1.9802,-1.8945,-1.9623,-1.9859,-1.8938,-1.8774,-1.8774,-1.9085,-1.9653,-2.0456,-2.1289,-2.1687,-2.165,-2.1641,-2.1668,-2.1687,-2.1687,-2.1642,-2.1544,-2.1607,-2.0763,-2.0439,-2.1186,-2.123,-2.0952,-2.0022,-1.9063,-1.8141,-1.6533,-1.6542,-1.6381,-1.5932,-1.5435,-1.6299,-1.6669,-1.6772,-1.7634,-1.8373,-1.9056,-1.921,-1.9598,-2.0102,-2.0112,-2.0133,-2.0183,-2.0193,-2.0301,-2.0439,-2.0351,-2.041,-2.0595,-2.0507,-2.0408,-2.0389,-2.07,-2.1056,-2.147,-2.1085,-2.0941,-2.0997,-2.0572,-2.0226,-2.0001,-2.0141,-2.0476,-2.0948,-2.1065,-2.1202,-2.1305,-2.0956,-2.0543,-2.0198,-2.0327,-2.0372,-2.0198,-2.0976,-2.1617,-2.2023,-2.2637,-2.2772,-2.2269,-2.1501,0.0,0.0,0.0,0.0,0.0,0.0,0.0,0.0,0.0,-1.7546,-1.7185,0.0,-1.7605,0.0,-1.9307,-2.0029,-2.0186,-2.0063,0.0,0.0,-1.9136,-1.9012,-1.9024,-1.9729,-1.9907,-1.9065,-1.9575,-2.0038,-2.0112,-2.0029,-2.0295,-2.1178,-2.0267,-1.9422,-1.9203,-2.0045,-2.0571,-2.0323,-2.0571,-2.0945,-2.0909,-2.1091,-2.1361,-2.165,-2.1687,-2.1687,-2.1687,-2.1687,-2.1687,-2.1642,-2.1087,-2.0709,-2.0673,-1.984,-1.9338,-1.9392,-1.8888,-1.8295,-1.8017,-1.7271,-1.648,-1.6894,-1.6689,-1.6689,-1.6203,-1.5472,-1.6154,-1.6304,-1.6188,-1.6632,-1.7318,-1.8167,-1.8935,-1.9578,-2.005,-2.045,-2.0615,-2.0615,-2.0615,-2.0615,-2.0615,-2.0615,-2.0615,-2.0615,-2.0615,-2.0478,-2.0205,-2.0414,-2.0581,-2.0762,-2.0575,-2.0596,-2.083,-2.0427,-2.0127,-1.9983,-1.9591,-1.968,-2.0176,-2.0338,-2.0648,-2.1135,-2.0884,-2.0529,-2.0135,-2.0114,-1.9986,-1.9675,-2.0269,-2.0849,-2.1344,-2.1941,-2.2046,-2.1596,-2.0994,-2.025,0.0,0.0,0.0,0.0,0.0,0.0,0.0,0.0,0.0,0.0,0.0,-1.8356,-1.8488,-1.9634,-2.0249,-1.9966,-1.998,-1.9934,-1.9852,-1.9842,-1.9907,-2.018,-2.0702,-2.0802,-2.028,-2.0625,-2.0889,-2.1019,-2.0941,-2.1053,-2.1632,-2.0936,-2.0391,-2.0418,-2.0875,-2.1181,-2.1235,-2.1496,-2.1687,-2.1687,-2.1687,-2.1687,-2.1687,-2.1687,-2.1687,-2.1687,-2.1687,-2.1607,-2.1177,-2.0988,-2.0763,-2.0393,-2.0257,-2.0076,-1.9985,-1.9293,-1.8511,-1.801,-1.7178,-1.644,-1.727,-1.6853,-1.6853,-1.6368,-1.5597,-1.6004,-1.588,-1.5389,-1.5389,-1.5865,-1.6821,-1.8527,-1.9292,-1.9332,-2.0216,-2.0615,-2.0615,-2.0615,-2.0615,-2.0615,-2.0615,-2.0615,-2.0615,-2.0615,-2.0615,-2.0586,-2.0185,-2.0038,-2.0131,-1.9703,-1.9776,-2.0293,-2.0221,-2.0071,-1.9876,-1.9094,-1.8892,-1.9309,-1.9673,-2.0226,-2.0945,-2.074,-2.0375,-1.9876,-1.982,-1.9521,-1.8971,-1.951,-1.9934,-2.0176,-2.0775,-2.0807,-2.0098,-1.9934,-1.9434,0.0,-1.8017,0.0,0.0,0.0,0.0,0.0,0.0,0.0,0.0,-1.935,-1.9228,-1.9146,-1.9943,-2.0232,-1.9677,-1.9613,-1.9897,-2.0585,-2.0634,-2.0918,-2.1595,-2.1687,-2.1687,-2.1687,-2.1687,-2.1687,-2.1659,-2.1687,-2.1687,-2.1687,-2.1641,-2.1533,-2.1659,-2.165,-2.1659,-2.1687,-2.1687,-2.1687,-2.1687,-2.1687,-2.1687,-2.1687,-2.1687,-2.1687,-2.1687,-2.1687,-2.1463,-2.0808,-2.1042,-2.1132,-2.0439,-2.0853,-2.1177,-2.0997,-2.0348,-1.9704,-1.9063,-1.8195,-1.7512,-1.7838,-1.7757,-1.7757,-1.7221,-1.6492,-1.6525,-1.6128,-1.5389,-1.5389,-1.5906,-1.6813,-1.8527,-1.9292,-1.9381,-2.0206,-2.0615,-2.0615,-2.0615,-2.0615,-2.0615,-2.0615,-2.0615,-2.0615,-2.0615,-2.0615,-2.0605,-2.0517,-2.0814,-2.1442,-2.0697,-2.0412,-2.0456,-1.9811,-1.9278,-1.8792,0.0,0.0,0.0,-1.996,-2.0224,-2.0175,-1.964,-1.9221,-1.8962,-1.8787,0.0,-1.8537,-1.8467,-1.8787,-1.9445,-1.9643,0.0,0.0,0.0,0.0,0.0,0.0,0.0,0.0,0.0,0.0,0.0,-1.9418,-1.9399,-1.9332,-1.9152,-1.9304,-1.9904,-2.0153,-2.0528,-2.1183,-2.1238,-2.1293,-2.144,-2.1449,-2.1531,-2.1678,-2.1687,-2.1687,-2.1687,-2.1687,-2.1687,-2.1687,-2.1687,-2.1687,-2.1687,-2.1687,-2.1687,-2.1687,-2.1687,-2.1687,-2.1687,-2.1687,-2.1687,-2.1687,-2.1687,-2.1687,-2.1687,-2.1687,-2.1687,-2.1687,-2.1687,-2.1687,-2.1365,-2.0952,-2.0583,-2.0303,-1.9795,-1.9521,-1.9338,-1.9247,-1.9293,-1.984,-1.9201,-1.8519,-1.7878,0.0,-1.7919,-1.7383,0.0,-1.6615,-1.6203,-1.5389,-1.5389,-1.5631,-1.6188,-1.7885,-1.8647,-1.8727,-2.001,-2.0615,-2.0615,-2.0615,-2.0615,-2.0615,-2.0615,-2.0615,-2.0615,-2.0615,-2.0615,-2.0615,-2.0615,-2.0828,-2.1165,-2.0789,-2.0562,-2.0538,-2.0137,-1.9809,-1.9542,-1.9377,-1.9304,-1.9381,-1.9661,-1.9902,-2.0145,-1.9809,-1.9373,-1.8873,0.0,0.0,0.0,0.0,0.0,0.0,0.0,0.0,0.0,0.0,0.0,-2.0041,-1.9696,-1.9614,-2.0001,-1.9947,-2.0122,-2.061,-2.0638,-2.0472,-2.0075,-2.0199,-2.0559,-2.1089,-2.1039,-2.1213,-2.1819,-2.1785,-2.1687,-2.1687,-2.1687,-2.1687,-2.1687,-2.1687,-2.1687,-2.1687,-2.1687,-2.1687,-2.1687,-2.1687,-2.1687,-2.1687,-2.1687,-2.1687,-2.1687,-2.1687,-2.1687,-2.1687,-2.1687,-2.1687,-2.1687,-2.1687,-2.1687,-2.1687,-2.1687,-2.1687,-2.1687,-2.1687,-2.1553,-2.1132,-2.0952,-2.0763,-1.9749,-1.9521,-1.943,-1.8926,-1.8796,-1.8926,-1.943,-1.8788,-1.787,-1.7587,-1.7302,-1.7716,-1.727,-1.6211,-1.6484,-1.6162,-1.5389,0.0,0.0,0.0,-1.7074,-1.7755,-1.7868,-1.9432,-2.0206,-2.0372,-2.0372,-2.045,-2.0605,-2.0615,-2.0615,-2.0615,-2.0615,-2.0566,-2.0566,-2.0566,-2.0605,-2.0566,-2.0566,-2.0615,-2.0615,-2.0615,-2.0615,-2.0615,-2.0615,-2.0225,-1.9514,-1.9407,-1.9644,-2.0159,-2.0082,-1.9688,-1.8947,-1.8938,-1.8666,-1.8174,-1.8267,-1.8415,-1.8582,-1.8777,-1.8995,-1.9297,-1.9427,-1.9573,-1.9626,-1.9687,-2.0017,-2.0644,-2.0732,-2.0982,-2.165,-2.1687,-2.1509,-2.1018,-2.1399,-2.1785,-2.2008,-2.183,-2.1776,-2.2008,-2.183,-2.1687,-2.1687,-2.1687,-2.1687,-2.1687,-2.1687,-2.1687,-2.1687,-2.1687,-2.1687,-2.1687,-2.1687,-2.1687,-2.1687,-2.1687,-2.1687,-2.1687,-2.1687,-2.1687,-2.1687,-2.1687,-2.1687,-2.1687,-2.1687,-2.1687,-2.1687,-2.1687,-2.1687,-2.1696,-2.1553,-2.1132,-2.0484,-2.0853,-2.0402,-1.9209,-1.9384,-1.9795,-1.9201,-1.9063,-1.8972,-1.8796,-1.8149,-1.7458,-1.6829,-1.6829,-1.7302,-1.7147,-1.6574,-1.6294,-1.588,-1.5431,-1.5389,-1.5389,-1.5465,-1.646,-1.6895,-1.6944,-1.7908,-1.8767,-1.9469,-1.9499,-1.9902,0.0,-2.0615,-2.0615,-2.0615,-2.0615,-2.0537,-2.0342,-2.0527,-2.0489,-2.0381,-2.0537,-2.0615,-2.0615,-2.0615,-2.0615,-2.0615,-2.0615,-2.0479,-2.0159,-1.9764,-1.9591,-1.9669,-1.9183,-1.8872,-1.8741,-1.8592,-1.8462,-1.8369,-1.8248,-1.8156,-1.8211,-1.8515,-1.8883,-1.9289,-1.9961,-2.049,-2.0833,-2.1147,-2.1403,-2.1504,-2.1522,-2.1568,-2.1678,-2.1687,-2.1686,-2.1585,-2.1623,-2.1687,-2.1731,-2.1741,-2.1687,-2.1731,-2.1731,-2.1687,-2.1687,-2.1687,-2.1687,-2.1687,-2.1687,-2.1687,-2.1687,-2.1687,-2.1687,-2.1687,-2.1687,-2.1687,-2.1687,-2.1687,-2.1687,-2.1687,-2.1687,-2.1687,-2.1687,-2.1687,-2.1687,-2.1687,-2.1687,-2.1687,-2.1687,-2.1642,-2.1597,-2.1553,-2.1042,-2.0583,-2.0348,-1.9977,-1.9384,-1.8888,-1.888,-1.9293,-1.9658,-1.9704,-1.9567,-1.8788,-1.838,-1.8334,-1.6288,-1.6698,-1.6911,-1.6886,-1.6648,-1.6004,-1.559,-1.5431,-1.5389,-1.5389,-1.5506,-1.6345,-1.6698,-1.6772,-1.7594,-1.8487,-1.9292,-1.9292,-1.9775,-2.0566,-2.0615,-2.0615,-2.0615,-2.0615,-2.0527,-2.045,-2.0566,-2.0527,-2.0489,-2.0527,-2.0615,-2.0615,-2.0615,-2.0615,-2.0605,-2.0489,-2.0381,-2.0303,-2.0072,-1.986,-1.9628,-1.9449,-1.9316,-1.9201,-1.9192,-1.9182,-1.9077,-1.933,-1.9334,-1.9061,-1.9605,-2.0001,-2.0264,-2.0767,-2.1198,-2.1595,-2.194,-2.2087,-2.2087,-2.2087,-2.2043,-2.1919,-2.1919,-2.1874,-2.1687,-2.1687,-2.1785,-2.2043,-2.1874,-2.1741,-2.1874,-2.1785,-2.1687,-2.1687,-2.1687,-2.1687,-2.1687,-2.1687,-2.1687,-2.1687,-2.1687,-2.1687,-2.1687,-2.1687,-2.1687,-2.1687,-2.1687,-2.1687,-2.1687,-2.1687,-2.1687,-2.1687,-2.1687,-2.1687,-2.1687,-2.1687,-2.1687,-2.1687,-2.1275,-2.0997,-2.0907,-2.0529,-2.0348,-2.0348,-2.0212,-2.0167,-1.9712,-1.9613,-1.943,-1.8557,-1.865,-1.828,-1.7498,-1.7171,-1.7113,-1.5421,-1.6026,-1.6247,-1.6345,-1.6368,-1.5673,-1.5389,-1.5389,-1.5389,-1.5389,-1.5506,-1.6105,-1.6419,-1.646,-1.7107,-1.8049,-1.9012,-1.915,-1.9764,-2.081,-2.0801,-2.0762,-2.0742,-2.0664,-2.0566,-2.0537,-2.0527,-2.0576,-2.0654,-2.0635,-2.0625,-2.0683,-2.0713,-2.0713,-2.0674,-2.0633,-2.0513,-2.0424,-2.0464,-2.0229,-1.9685,-1.9878,-1.9925,-1.9865,-2.0059,-2.0116,-1.9934,-2.0426,-2.0473,-2.0122,-2.0615,-2.1009,-2.1089,-2.1373,-2.1664,-2.1961,-2.2132,-2.222,-2.2211,-2.222,-2.2176,-2.2008,-2.2008,-2.1963,-2.182,-2.1741,-2.1865,-2.222,-2.2043,-2.1954,-2.2052,-2.1919,-2.1785,-2.1731,-2.1687,-2.1687,-2.1687,-2.1687,-2.1687,-2.1687,-2.1687,-2.1687,-2.1687,-2.1687,-2.1687,-2.1687,-2.1687,-2.1687,-2.1687,-2.1687,-2.1687,-2.1687,-2.1687,-2.1687,-2.1687,-2.1687,-2.1687,-2.1687,-2.1177,-2.0862,-2.0718,-2.0529,-2.0303,-2.0303,-2.0311,-2.0031,-1.9658,-1.9293,-1.865,-1.7638,-1.7559,-1.7178,-1.6622,-1.6075,-1.5806,-1.3915,-1.4119,-1.4921,-1.536,-1.5548,-1.5423,-1.5389,-1.5389,-1.5389,-1.5389,-1.5431,-1.5506,-1.5555,-1.5506,-1.5631,-1.6814,-1.8551,-1.8659,-1.9761,-2.1528,-2.1357,-2.1132,-2.1133,-2.0771,-2.0489,-2.0371,-2.0391,-2.0593,-2.0902,-2.0711,-2.0721,-2.0861,-2.1052,-2.1052,-2.0939,-2.1176,-2.1193,-2.0768,-2.0985,-2.0699,-1.9929,-2.0129,-2.0317,-2.0519,-2.0869,-2.0985,-2.074,-2.0866,-2.0759,-2.0493,-2.0842,-2.1114,-2.1145,-2.1465,-2.1695,-2.1731,-2.1785,-2.1776,-2.1776,-2.1776,-2.182,-2.1741,-2.1776,-2.1874,-2.2052,-2.1865,-2.182,-2.2097,-2.2274,-2.222,-2.2141,-2.2052,-2.1919,-2.1731,-2.1687,-2.1687,-2.1687,-2.1687,-2.1687,-2.1687,-2.1687,-2.1687,-2.1687,-2.1687,-2.1687,-2.1687,-2.1687,-2.1687,-2.1687,-2.1687,-2.1687,-2.1687,-2.1687,-2.1687,-2.1687,-2.1687,-2.1687,-2.1687,-2.1597,-2.132,-2.1042,-2.0574,-2.0249,-1.9613,-1.9018,-1.8241,-1.7824,-1.6951,-1.685,-1.7271,-1.7239,-1.7185,-1.7016,-1.6267,-1.5618,-1.3039,-1.3578,-1.4342,-1.511,-1.5714,-1.5506,-1.5389,-1.5389,-1.5389,-1.5389,-1.5418,-1.5593,-1.5613,-1.5403,-1.5586,-1.6446,-1.7728,-1.7983,-1.9143,-2.0871,-2.0795,-2.1018,-2.1551,-2.1445,-2.1307,-2.1226,-2.1105,-2.1151,-2.1419,-2.1407,-2.1407,-2.1457,-2.1416,-2.1325,-2.1221,-2.1148,-2.1057,-2.1057,-2.1015,-2.097,-2.09,-2.0964,-2.105,-2.1141,-2.1304,-2.1275,-2.1136,-2.1302,-2.1263,-2.094,-2.1394,-2.1625,-2.1484,-2.1738,-2.1919,-2.1963,-2.222,-2.2397,-2.253,-2.252,-2.2485,-2.2353,-2.2362,-2.2362,-2.2264,-2.2309,-2.2397,-2.2451,-2.222,-2.1963,-2.1874,-2.1874,-2.182,-2.1741,-2.1687,-2.1687,-2.1687,-2.1687,-2.1687,-2.1687,-2.1687,-2.1687,-2.1687,-2.1687,-2.1687,-2.1687,-2.1687,-2.1687,-2.1687,-2.1687,-2.1687,-2.1687,-2.1687,-2.1687,-2.1687,-2.1687,-2.1687,-2.1597,-2.1221,-2.0808,-2.0121,-1.9749,-1.9247,-1.875,-1.8288,-1.8056,-1.838,-1.7917,-1.7638,-1.7559,-1.6676,-1.6393,-1.6386,-1.6014,-1.5732,-1.2289,-1.3039,-1.3802,-1.4692,-1.5616,-1.5465,-1.5389,-1.5411,-1.5518,-1.552,-1.5592,-1.5899,-1.5913,-1.5738,-1.5943,-1.6579,-1.7454,-1.7727,-1.8908,-2.0582,-2.068,-2.109,-2.1999,-2.1924,-2.1885,-2.1761,-2.1524,-2.154,-2.1781,-2.1926,-2.1935,-2.1852,-2.1768,-2.1591,-2.1484,-2.1245,-2.1278,-2.1405,-2.1372,-2.149,-2.1809,-2.1861,-2.1803,-2.1717,-2.1822,-2.1711,-2.1448,-2.1706,-2.1693,-2.1291,-2.1796,-2.2008,-2.183,-2.2052,-2.2185,-2.223,-2.2485,-2.2759,-2.2925,-2.2925,-2.2828,-2.2706,-2.2706,-2.2618,-2.2485,-2.2574,-2.2662,-2.2618,-2.223,-2.1909,-2.1865,-2.183,-2.1785,-2.1731,-2.1687,-2.1687,-2.1687,-2.1687,-2.1687,-2.1687,-2.1687,-2.1687,-2.1687,-2.1687,-2.1687,-2.1687,-2.1687,-2.1687,-2.1687,-2.1687,-2.1687,-2.1687,-2.1687,-2.1687,-2.1687,-2.1687,-2.1651,-2.1221,-2.0664,-2.0068,-1.9063,-1.8834,-1.8788,-1.8703,-1.8511,-1.8241,-1.7963,-1.811,-1.8156,-1.7412,-1.6574,-1.5872,-1.592,-1.5818,-1.5825,-1.1742,-1.1957,-1.3015,-1.3857,-1.4524,-1.5124,-1.5389,-1.5411,-1.5745,-1.5884,-1.5913,-1.6221,-1.6382,-1.6353,-1.6404,-1.7039,-1.8079,-1.8171,-1.934,-2.1246,-2.1149,-2.1564,-2.2418,-2.208,-2.178,-2.1649,-2.1492,-2.1414,-2.1597,-2.1978,-2.2074,-2.185,-2.2021,-2.1893,-2.1543,-2.1789,-2.2022,-2.2001,-2.2158,-2.2425,-2.2654,-2.2707,-2.2505,-2.2174,-2.2515,-2.2416,-2.2092,-2.2085,-2.1961,-2.1704,-2.1945,-2.2097,-2.2087,-2.2264,-2.2353,-2.2344,-2.2397,-2.2441,-2.2432,-2.2485,-2.2441,-2.2441,-2.2441,-2.2441,-2.2397,-2.2441,-2.2441,-2.2441,-2.2353,-2.2299,-2.2255,-2.2132,-2.1963,-2.1776,-2.1687,-2.1687,-2.1687,-2.1687,-2.1687,-2.1687,-2.1687,-2.1687,-2.1687,-2.1687,-2.1687,-2.1687,-2.1687,-2.1687,-2.1687,-2.1687,-2.1687,-2.1687,-2.1687,-2.1687,-2.1687,-2.1454,-2.1132,-2.0754,-2.0348,-1.984,-1.9293,-1.8796,-1.8657,-1.8473,-1.7971,-1.7606,-1.7419,-1.7326,-1.7326,-1.6864,-1.6346,-1.5879,-1.5825,-1.5825,-1.5825,-1.1782,-1.2374,-1.2648,-1.3481,-1.4608,-1.4733,-1.4999,-1.5418,-1.5774,-1.5913,-1.6009,-1.6455,-1.6727,-1.6734,-1.6894,-1.7106,-1.741,-1.7598,-1.844,-1.9815,-2.0319,-2.1024,-2.1958,-2.2433,-2.2557,-2.2308,-2.2073,-2.1932,-2.1879,-2.218,-2.2267,-2.217,-2.2145,-2.2058,-2.1857,-2.1845,-2.1919,-2.2097,-2.2318,-2.2441,-2.2574,-2.2706,-2.2595,-2.2164,-2.2277,-2.2309,-2.2309,-2.2185,-2.2097,-2.2132,-2.2211,-2.2309,-2.2318,-2.222,-2.2185,-2.222,-2.223,-2.2264,-2.2397,-2.2397,-2.2397,-2.2397,-2.2397,-2.2397,-2.2397,-2.2397,-2.2397,-2.2397,-2.2264,-2.222,-2.2176,-2.2141,-2.2052,-2.1963,-2.1776,-2.1687,-2.1687,-2.1687,-2.1687,-2.1687,-2.1687,-2.1687,-2.1687,-2.1687,-2.1687,-2.1687,-2.1687,-2.1687,-2.1687,-2.1687,-2.1687,-2.1687,-2.1687,-2.1454,-2.0808,-2.0808,-2.0619,-2.0257,-1.9803,-1.8934,-1.8241,-1.8017,-1.7878,-1.7924,-1.7466,-1.738,-1.7286,-1.677,-1.6676,-1.6534,-1.6015,-1.5879,-1.5825,-1.5825,-1.5825,-1.1767,-1.2211,-1.2435,-1.309,-1.4015,-1.4311,-1.4657,-1.5132,-1.5784,-1.6067,-1.6177,-1.6726,-1.7057,-1.704,-1.7238,-1.7216,-1.7094,-1.7238,-1.7785,-1.8657,-1.933,-2.0096,-2.1006,-2.1952,-2.228,-2.2157,-2.2167,-2.2132,-2.2141,-2.222,-2.2309,-2.2264,-2.2185,-2.2052,-2.1963,-2.1785,-2.1865,-2.2141,-2.2274,-2.2344,-2.2485,-2.253,-2.2451,-2.223,-2.2132,-2.2176,-2.2264,-2.2185,-2.2185,-2.2344,-2.2397,-2.2397,-2.2397,-2.2274,-2.2176,-2.2185,-2.223,-2.222,-2.2353,-2.2397,-2.2441,-2.253,-2.253,-2.253,-2.253,-2.253,-2.2485,-2.2397,-2.2264,-2.2185,-2.2185,-2.2141,-2.2052,-2.1963,-2.183,-2.1687,-2.1687,-2.1687,-2.1687,-2.1687,-2.1687,-2.1687,-2.1687,-2.1687,-2.1687,-2.1687,-2.1687,-2.1687,-2.1687,-2.1687,-2.1553,-2.1311,-2.1177,-2.0718,-1.9931,-1.9476,-1.9201,-1.8888,-1.8842,-1.8017,-1.7559,-1.7326,-1.7286,-1.7286,-1.7286,-1.7286,-1.7005,-1.64,-1.6157,-1.6157,-1.5967,-1.5825,-1.5825,-1.5825,-1.5825,-1.1558,-1.1511,-1.2277,-1.258,-1.2777,-1.3743,-1.4349,-1.4691,-1.5734,-1.6198,-1.6448,-1.6987,-1.7181,-1.7311,-1.7264,-1.7271,-1.725,-1.7271,-1.7652,-1.8288,-1.8519,-1.8918,-1.9633,-2.0638,-2.1042,-2.0872,-2.1401,-2.1874,-2.2052,-2.2097,-2.2097,-2.2097,-2.2043,-2.1919,-2.1741,-2.1731,-2.1909,-2.222,-2.2185,-2.2318,-2.2662,-2.2362,-2.222,-2.2309,-2.2185,-2.2141,-2.2141,-2.2141,-2.223,-2.2388,-2.2441,-2.2397,-2.2397,-2.2353,-2.2353,-2.2299,-2.2344,-2.2388,-2.2353,-2.2397,-2.2485,-2.2671,-2.2759,-2.2715,-2.2715,-2.2706,-2.2618,-2.2441,-2.2353,-2.2353,-2.2353,-2.223,-2.2008,-2.1731,-2.1731,-2.1687,-2.1687,-2.1687,-2.1687,-2.1687,-2.1687,-2.1687,-2.1687,-2.1687,-2.1687,-2.1687,-2.1687,-2.1687,-2.1642,-2.1597,-2.1177,-2.0619,-2.0294,-1.9886,-1.8926,-1.8064,-1.7699,-1.738,-1.7419,-1.7099,-1.7044,-1.6911,-1.7099,-1.7145,-1.7286,-1.7286,-1.7138,-1.6581,-1.6298,-1.6197,-1.6015,-1.5825,-1.5825,-1.5825,-1.5825,-1.1466,-1.1569,-1.1707,-1.2116,-1.258,-1.2906,-1.3651,-1.4697,-1.4916,-1.5583,-1.6574,-1.6625,-1.6803,-1.7232,-1.7286,-1.7286,-1.7286,-1.7333,-1.7466,-1.7738,-1.8334,-1.865,-1.8872,-1.9749,-2.0376,-2.0692,-2.1356,-2.1741,-2.183,-2.183,-2.182,-2.183,-2.182,-2.1785,-2.1687,-2.1687,-2.1865,-2.2132,-2.2141,-2.2185,-2.2318,-2.2185,-2.215,-2.2176,-2.2141,-2.223,-2.2539,-2.2574,-2.2627,-2.2662,-2.2662,-2.253,-2.2274,-2.2185,-2.2087,-2.1909,-2.1909,-2.1998,-2.2185,-2.223,-2.2309,-2.2485,-2.252,-2.253,-2.253,-2.253,-2.2485,-2.2397,-2.2318,-2.2274,-2.2353,-2.223,-2.2052,-2.1963,-2.1785,-2.1696,-2.1687,-2.1687,-2.1687,-2.1687,-2.1687,-2.1687,-2.1687,-2.1687,-2.1687,-2.1687,-2.1687,-2.1687,-2.1597,-2.1132,-2.0709,-2.0294,-1.9749,-1.8918,-1.7963,-1.7318,-1.7044,-1.6723,-1.6581,-1.6817,-1.6723,-1.6763,-1.6911,-1.7005,-1.7192,-1.7145,-1.6998,-1.6763,-1.6339,-1.615,-1.5872,-1.5825,-1.5825,-1.5825,-1.5825,-1.1472,-1.1564,-1.1461,-1.1723,-1.2211,-1.2386,-1.3108,-1.4062,-1.4302,-1.5152,-1.6193,-1.6294,-1.6622,-1.7185,-1.7286,-1.7286,-1.7286,-1.7286,-1.7239,-1.7286,-1.7746,-1.7932,-1.7785,-1.8603,-1.9704,-2.052,-2.0988,-2.1365,-2.1687,-2.1687,-2.1687,-2.1687,-2.1687,-2.1687,-2.1687,-2.1687,-2.183,-2.2061,-2.2008,-2.2008,-2.2097,-2.2106,-2.215,-2.2176,-2.223,-2.2407,-2.2759,-2.2715,-2.2715,-2.2759,-2.2671,-2.2362,-2.2008,-2.1919,-2.1919,-2.1874,-2.1874,-2.1963,-2.2176,-2.2176,-2.2185,-2.2353,-2.2353,-2.2309,-2.2309,-2.2309,-2.2264,-2.2132,-2.2052,-2.2008,-2.2087,-2.2043,-2.1963,-2.1963,-2.1874,-2.1785,-2.1731,-2.1687,-2.1687,-2.1687,-2.1687,-2.1687,-2.1687,-2.1687,-2.1687,-2.1687,-2.1687,-2.1454,-2.1221,-2.0664,-2.0158,-1.9521,-1.8603,-1.7777,-1.6998,-1.6629,-1.6487,-1.6204,-1.5967,-1.644,-1.6669,-1.681,-1.6951,-1.6911,-1.7005,-1.6534,-1.6393,-1.6204,-1.592,-1.5825,-1.5825,-1.5825,-1.5825,-1.5825,-1.5825,-1.1548,-1.1343,-1.158,-1.1558,-1.1522,-1.2233,-1.2718,-1.3058,-1.3881,-1.4817,-1.561,-1.5933,-1.6473,-1.7091,-1.7232,-1.7286,-1.7286,-1.7286,-1.72,-1.7066,-1.7167,-1.6972,-1.6636,-1.7458,-1.8657,-1.9886,-2.0303,-2.0808,-2.141,-2.1642,-2.1687,-2.1687,-2.1687,-2.1687,-2.1687,-2.1687,-2.183,-2.2008,-2.1874,-2.1865,-2.2097,-2.2097,-2.2185,-2.2353,-2.2353,-2.2485,-2.2671,-2.2539,-2.2485,-2.2671,-2.2353,-2.2052,-2.183,-2.1731,-2.1919,-2.2087,-2.2097,-2.2185,-2.2318,-2.222,-2.2185,-2.2353,-2.2264,-2.2097,-2.2176,-2.2176,-2.2141,-2.1909,-2.183,-2.1776,-2.183,-2.1785,-2.1785,-2.1776,-2.1919,-2.1874,-2.1731,-2.1687,-2.1687,-2.1687,-2.1687,-2.1687,-2.1687,-2.1687,-2.1642,-2.1508,-2.1454,-2.1087,-2.0357,-1.9749,-1.9155,-1.8465,-1.7824,-1.7271,-1.6669,-1.6298,-1.6157,-1.6062,-1.5825,-1.6109,-1.644,-1.6574,-1.6669,-1.6676,-1.6629,-1.6157,-1.5872,-1.5825,-1.5825,-1.5825,-1.5825,-1.5825,-1.5825,-1.5825,-1.5825,-1.1364,-1.1316,-1.1375,-1.1461,-1.1602,-1.1893,-1.253,-1.3262,-1.3036,-1.3914,-1.5012,-1.5345,-1.5812,-1.652,-1.7044,-1.7286,-1.7286,-1.7286,-1.72,-1.7026,-1.716,-1.6824,-1.6454,-1.7005,-1.7645,-1.838,-1.9567,-2.0439,-2.0709,-2.1275,-2.1597,-2.1687,-2.1597,-2.1687,-2.1687,-2.1687,-2.183,-2.2052,-2.2061,-2.2087,-2.222,-2.2141,-2.2176,-2.2353,-2.2264,-2.2309,-2.2451,-2.2309,-2.2185,-2.2274,-2.2185,-2.2052,-2.2008,-2.2087,-2.2176,-2.222,-2.2185,-2.2185,-2.2309,-2.222,-2.2185,-2.2353,-2.2309,-2.2309,-2.2309,-2.2309,-2.2309,-2.2176,-2.2087,-2.2052,-2.2132,-2.2052,-2.2008,-2.1963,-2.1919,-2.1785,-2.1741,-2.1687,-2.1687,-2.1687,-2.1687,-2.1687,-2.1687,-2.1597,-2.141,-2.0907,-2.0628,-2.0303,-1.943,-1.8703,-1.8102,-1.8056,-1.7591,-1.7084,-1.6574,-1.615,-1.5872,-1.5872,-1.5825,-1.5825,-1.6015,-1.6109,-1.6109,-1.6062,-1.6204,-1.5872,-1.5825,-1.5825,-1.5825,-1.5825,-1.5825,-1.5825,-1.5825,-1.5825,-1.5825,-1.1396,-1.1316,-1.1413,-1.1531,-1.1725,-1.1914,-1.2433,-1.2911,-1.276,-1.329,-1.4405,-1.4573,-1.5194,-1.6197,-1.6615,-1.6958,-1.7145,-1.7153,-1.6972,-1.669,-1.6636,-1.6588,-1.6595,-1.6871,-1.7052,-1.7505,-1.8519,-1.9201,-1.9658,-2.0257,-2.0673,-2.0997,-2.1087,-2.132,-2.1687,-2.1687,-2.1741,-2.1874,-2.1919,-2.2008,-2.2087,-2.2087,-2.2176,-2.2264,-2.2141,-2.2141,-2.2087,-2.1998,-2.1963,-2.2052,-2.2106,-2.2106,-2.2106,-2.2185,-2.2264,-2.2264,-2.2141,-2.2176,-2.2309,-2.223,-2.2141,-2.222,-2.2176,-2.2132,-2.2087,-2.2132,-2.2087,-2.2043,-2.2008,-2.2008,-2.2043,-2.2008,-2.1954,-2.1874,-2.1785,-2.1687,-2.1687,-2.1687,-2.1687,-2.1687,-2.1687,-2.1687,-2.1687,-2.1365,-2.0898,-2.0393,-1.994,-1.9201,-1.8334,-1.7692,-1.7232,-1.7271,-1.7131,-1.6622,-1.6393,-1.6062,-1.5872,-1.5825,-1.5825,-1.5825,-1.5825,-1.5825,-1.5825,-1.5872,-1.5825,-1.5825,-1.5825,-1.5825,-1.5825,-1.5825,-1.5825,-1.5825,-1.5825,-1.5825,-1.5825,-1.1612,-1.1402,-1.165,-1.1752,-1.1855,-1.2221,-1.2456,-1.2495,-1.271,-1.313,-1.3715,-1.3854,-1.4765,-1.6048,-1.6237,-1.6527,-1.7073,-1.7019,-1.6744,-1.6407,-1.6163,-1.6211,-1.665,-1.6359,-1.6629,-1.7225,-1.7279,-1.787,-1.8557,-1.8788,-1.9338,-1.9931,-2.0158,-2.0583,-2.0907,-2.1177,-2.1365,-2.1221,-2.1141,-2.132,-2.1445,-2.149,-2.1624,-2.2097,-2.2052,-2.1919,-2.183,-2.1731,-2.183,-2.2106,-2.2106,-2.2106,-2.2106,-2.2097,-2.2141,-2.2141,-2.2141,-2.2185,-2.2264,-2.2141,-2.2052,-2.2052,-2.183,-2.1687,-2.1776,-2.1776,-2.1776,-2.1776,-2.1687,-2.1741,-2.1741,-2.1741,-2.1741,-2.1741,-2.1687,-2.1687,-2.1687,-2.1687,-2.1687,-2.1642,-2.1642,-2.1544,-2.132,-2.0808,-2.0059,-1.9247,-1.8834,-1.8241,-1.7505,-1.699,-1.6716,-1.6676,-1.6386,-1.6062,-1.5967,-1.5927,-1.5872,-1.5825,-1.5825,-1.5825,-1.5825,-1.5825,-1.5825,-1.5825,-1.5825,-1.5825,-1.5825,-1.5825,-1.5825,-1.5825,-1.5825,-1.5825,-1.5825,-1.5825,-1.5825,-1.1986,-1.1943,-1.1997,-1.2086,-1.2258,-1.2371,-1.2517,-1.2684,-1.2786,-1.2905,-1.3141,-1.3619,-1.443,-1.5337,-1.5906,-1.6574,-1.7059,-1.6965,-1.6831,-1.6541,-1.6218,-1.617,-1.6319,-1.6076,-1.6062,-1.6433,-1.6998,-1.7372,-1.7692,-1.8241,-1.888,-1.9063,-1.9109,-1.9247,-1.9484,-1.9704,-1.943,-1.9476,-1.9658,-2.0158,-2.0565,-2.024,-2.0565,-2.1687,-2.1741,-2.1696,-2.1687,-2.1687,-2.183,-2.2008,-2.2106,-2.2061,-2.2097,-2.222,-2.2264,-2.222,-2.2141,-2.2097,-2.2106,-2.1963,-2.1776,-2.1785,-2.1741,-2.1687,-2.1687,-2.1687,-2.1687,-2.1687,-2.1687,-2.1687,-2.1687,-2.1687,-2.1687,-2.1687,-2.1642,-2.1642,-2.1687,-2.1642,-2.1597,-2.1499,-2.0997,-2.0583,-2.0538,-1.9712,-1.8926,-1.8195,-1.7638,-1.7178,-1.6763,-1.6339,-1.6298,-1.6298,-1.6109,-1.592,-1.6062,-1.6021,-1.5825,-1.5825,-1.5825,-1.5825,-1.5825,-1.5825,-1.5825,-1.5825,-1.5825,-1.5825,-1.5825,-1.5825,-1.5825,-1.5825,-1.5825,-1.5825,-1.5825,-1.5825,-1.5825,-1.2151,-1.2105,-1.2218,-1.2296,-1.242,-1.2527,-1.2694,-1.2797,-1.2807,-1.2807,-1.2856,-1.3238,-1.3811,-1.4573,-1.5337,-1.6008,-1.6487,-1.6643,-1.6454,-1.6204,-1.6069,-1.6021,-1.6028,-1.5879,-1.5825,-1.5872,-1.6298,-1.6581,-1.6763,-1.7178,-1.7544,-1.8102,-1.8102,-1.8419,-1.875,-1.875,-1.8888,-1.888,-1.8918,-1.9285,-1.9559,-1.933,-1.9285,-2.0303,-2.0402,-2.0348,-2.0303,-2.0808,-2.1087,-2.1311,-2.1687,-2.1963,-2.2097,-2.2185,-2.2176,-2.2043,-2.1998,-2.1919,-2.1874,-2.1785,-2.1687,-2.1687,-2.1687,-2.1687,-2.1687,-2.1687,-2.1687,-2.1687,-2.1687,-2.1687,-2.1687,-2.1687,-2.1687,-2.1597,-2.1275,-2.1087,-2.1042,-2.1042,-2.1042,-2.0853,-2.0158,-1.9758,-1.9301,-1.8657,-1.8195,-1.7598,-1.685,-1.6386,-1.6339,-1.6015,-1.6103,-1.6062,-1.592,-1.5927,-1.6157,-1.6109,-1.5872,-1.5825,-1.5825,-1.5825,-1.5825,-1.5825,-1.5825,-1.5825,-1.5825,-1.5825,-1.5825,-1.5825,-1.5825,-1.5825,-1.5825,-1.5825,-1.5825,-1.5825,-1.5825,-1.2344,-1.2218,-1.2382,-1.2468,-1.2501,-1.2673,-1.2802,-1.2807,-1.2807,-1.2807,-1.2807,-1.2807,-1.3335,-1.395,-1.4627,-1.5201,-1.573,-1.6123,-1.6163,-1.592,-1.5872,-1.5872,-1.5832,-1.5825,-1.5825,-1.5825,-1.592,-1.592,-1.592,-1.5872,-1.648,-1.6998,-1.7091,-1.7365,-1.8095,-1.8288,-1.8095,-1.8048,-1.8048,-1.828,-1.8419,-1.8326,-1.8326,-1.8703,-1.9018,-1.9063,-1.9293,-1.9849,-2.0393,-2.0339,-2.1186,-2.1731,-2.1963,-2.2008,-2.1963,-2.1741,-2.1731,-2.1731,-2.1741,-2.1696,-2.1687,-2.1687,-2.1778,-2.1797,-2.1806,-2.1934,-2.1998,-2.1934,-2.1925,-2.1833,-2.1787,-2.1437,-2.1428,-2.1275,-2.0628,-2.0158,-2.0068,-1.9977,-1.9795,-1.9931,-1.9247,-1.8657,-1.8241,-1.7738,-1.7372,-1.6998,-1.6298,-1.5825,-1.5825,-1.5825,-1.592,-1.5967,-1.5872,-1.5832,-1.6015,-1.6109,-1.5825,-1.5825,-1.5825,-1.5825,-1.5825,-1.5825,-1.5825,-1.5825,-1.5825,-1.5825,-1.5825,-1.5825,-1.5825,-1.5825,-1.5825,-1.5825,-1.5825,-1.5825,-1.5825,-1.2732,-1.2694,-1.2737,-1.2748,-1.2753,-1.2797,-1.2807,-1.2807,-1.2807,-1.2807,-1.2807,-1.2807,-1.319,-1.3757,-1.3998,-1.4573,-1.5242,-1.5737,-1.5933,-1.5737,-1.573,-1.5825,-1.5825,-1.5825,-1.5825,-1.5825,-1.5825,-1.5825,-1.5825,-1.5825,-1.5967,-1.6062,-1.6157,-1.6386,-1.648,-1.6346,-1.6615,-1.6709,-1.6662,-1.6943,-1.7271,-1.699,-1.6943,-1.7505,-1.8102,-1.8473,-1.8834,-1.9658,-2.0303,-2.0393,-2.123,-2.1651,-2.1785,-2.1776,-2.1785,-2.1741,-2.1687,-2.1687,-2.1687,-2.1687,-2.1687,-2.176,-2.1961,-2.2163,-2.2199,-2.2455,-2.2529,-2.2519,-2.2346,-2.2181,-2.2172,-2.1336,-2.0671,-2.032,-1.9754,-1.9128,-1.899,-1.869,-1.8388,-1.8799,-1.8155,-1.7512,-1.7232,-1.6951,-1.6669,-1.6433,-1.6109,-1.5825,-1.5825,-1.5825,-1.5825,-1.5825,-1.5825,-1.5825,-1.5872,-1.5872,-1.5825,-1.5825,-1.5825,-1.5825,-1.5825,-1.5825,-1.5825,-1.5825,-1.5825,-1.5825,-1.5825,-1.5825,-1.5825,-1.5825,-1.5825,-1.5825,-1.5825,-1.5825,-1.5825,-1.1477,-1.1965,-1.1965,-1.2311,-1.2764,-1.2807,-1.2807,-1.2807,-1.2807,-1.2807,-1.2807,-1.2813,-1.2807,-1.299,-1.3372,-1.38,-1.428,-1.5099,-1.5248,-1.5112,-1.554,-1.5825,-1.5825,-1.5825,-1.5825,-1.5825,-1.5825,-1.5825,-1.5825,-1.5825,-1.5825,-1.5825,-1.5825,-1.5825,-1.5825,-1.5872,-1.5825,-1.5825,-1.5825,-1.6015,-1.648,-1.5967,-1.6204,-1.6527,-1.6936,-1.7217,-1.7537,-1.8834,-1.9476,-1.9803,-2.0907,-2.1553,-2.1687,-2.1687,-2.1696,-2.1705,-2.1696,-2.1687,-2.1687,-2.1696,-2.1536,-2.129,-2.1861,-2.2059,-2.2091,-2.2326,-2.2893,-2.2829,-2.2756,-2.236,-2.1781,-2.1003,-2.0492,-1.9868,-1.8997,-1.8509,-1.8371,-1.8034,-1.7964,-1.7842,-1.7104,-1.6672,-1.648,-1.6204,-1.592,-1.5825,-1.5825,-1.5825,-1.5825,-1.5825,-1.5825,-1.5825,-1.5825,-1.5825,-1.5825,-1.5825,-1.5825,-1.5825,-1.5825,-1.5825,-1.5825,-1.5825,-1.5825,-1.5825,-1.5825,-1.5825,-1.5825,-1.5825,-1.5825,-1.5825,-1.5825,-1.5825,-1.5825,-1.5825,-1.5825,-1.0096,-1.0877,-1.0881,-1.1375,-1.2116,-1.2414,-1.2462,-1.2511,-1.2716,-1.271,-1.2613,-1.2613,-1.2316,-1.2122,-1.25,-1.2926,-1.2969,-1.3932,-1.4232,-1.4586,-1.5064,-1.5493,-1.5778,-1.5825,-1.5825,-1.5825,-1.5825,-1.5825,-1.5825,-1.5825,-1.5825,-1.5825,-1.5825,-1.5825,-1.5825,-1.5825,-1.5825,-1.5825,-1.5825,-1.5825,-1.5825,-1.5825,-1.5825,-1.5825,-1.5825,-1.592,-1.6197,-1.7591,-1.8373,-1.9018,-2.0167,-2.1365,-2.1463,-2.1597,-2.1723,-2.1778,-2.1742,-2.1651,-2.141,-2.1365,-2.1139,-2.0951,-2.1627,-2.1855,-2.2268,-2.2751,-2.3119,-2.2894,-2.2652,-2.2139,-2.1264,-2.0587,-2.0013,-1.9413,-1.8577,-1.7928,-1.7976,-1.7837,-1.7661,-1.7218,-1.6331,-1.6114,-1.6224,-1.5967,-1.5825,-1.5825,-1.5825,-1.5825,-1.5825,-1.5825,-1.5825,-1.5825,-1.5825,-1.5825,-1.5825,-1.5825,-1.5825,-1.5825,-1.5825,-1.5825,-1.5825,-1.5825,-1.5825,-1.5825,-1.5825,-1.5825,-1.5825,-1.5825,-1.5825,-1.5825,-1.5825,-1.5825,-1.5825,-1.5825,-1.5825,-0.9706,-0.9801,-0.9805,-0.9854,-1.0199,-1.1077,-1.1419,-1.1521,-1.2365,-1.2516,-1.2078,-1.2073,-1.1785,-1.1536,-1.1814,-1.2047,-1.2242,-1.2678,-1.336,-1.3854,-1.4436,-1.5064,-1.5642,-1.5825,-1.5825,-1.5825,-1.5825,-1.5825,-1.5825,-1.5825,-1.5825,-1.5825,-1.5825,-1.5825,-1.5825,-1.5825,-1.5825,-1.5825,-1.5825,-1.5825,-1.5825,-1.5825,-1.5825,-1.5825,-1.5825,-1.5825,-1.592,-1.6998,-1.7598,-1.7831,-1.943,-2.0393,-2.0583,-2.1275,-2.1807,-2.1989,-2.1834,-2.1329,-2.0797,-2.0614,-2.0695,-2.0802,-2.1401,-2.2131,-2.2708,-2.3224,-2.3327,-2.2581,-2.2246,-2.1541,-2.0481,-1.939,-1.8701,-1.8496,-1.8271,-1.7626,-1.7468,-1.8247,-1.8017,-1.7474,-1.6862,-1.6538,-1.6431,-1.61,-1.5825,-1.5825,-1.5832,-1.5852,-1.5899,-1.5959,-1.6005,-1.6052,-1.6046,-1.6039,-1.5959,-1.5939,-1.5932,-1.5899,-1.5838,-1.5852,-1.5899,-1.5912,-1.5825,-1.5825,-1.5825,-1.5825,-1.5825,-1.5825,-1.5825,-1.5825,-1.5825,-1.5825,-1.5825,-1.5825,-1.5825,-0.9262,-0.8665,-0.8718,-0.9061,-0.9702,-1.0734,-1.1023,-1.1028,-1.1873,-1.2029,-1.1639,-1.1536,-1.1247,-1.085,-1.0743,-1.0645,-1.0788,-1.1468,-1.2047,-1.2926,-1.3661,-1.449,-1.4968,-1.5493,-1.5825,-1.5825,-1.5825,-1.5825,-1.5825,-1.5825,-1.5825,-1.5825,-1.5825,-1.5825,-1.5825,-1.5825,-1.5825,-1.5825,-1.5825,-1.5825,-1.5825,-1.5825,-1.5825,-1.5825,-1.5825,-1.5825,-1.6015,-1.677,-1.7286,-1.7652,-1.9201,-2.0377,-2.0807,-2.1461,-2.2016,-2.1652,-2.1582,-2.1308,-2.0917,-2.0312,-2.0297,-2.0666,-2.128,-2.2071,-2.2813,-2.3065,-2.2778,-2.1692,-2.1459,-2.0798,-1.9902,-1.9026,-1.8434,-1.8108,-1.8023,-1.7731,-1.7561,-1.8346,-1.8614,-1.8004,-1.7449,-1.717,-1.6817,-1.6429,-1.6166,-1.6099,-1.6106,-1.6112,-1.6206,-1.6319,-1.6359,-1.6393,-1.6366,-1.6333,-1.6213,-1.6132,-1.6146,-1.6092,-1.5885,-1.5919,-1.6019,-1.6019,-1.5892,-1.5825,-1.5825,-1.5825,-1.5825,-1.5825,-1.5825,-1.5825,-1.5825,-1.5825,-1.5825,-1.5825,-1.5825,-0.9114,-0.8024,-0.7925,-0.817,-0.8711,-0.994,-1.0235,-1.0047,-1.1233,-1.1492,-1.1051,-1.085,-1.056,-1.0216,-0.9871,-0.9821,-0.9723,-1.0449,-1.093,-1.1712,-1.2684,-1.3715,-1.4388,-1.5112,-1.554,-1.5778,-1.5825,-1.5825,-1.5825,-1.5825,-1.5825,-1.5825,-1.5825,-1.5825,-1.5825,-1.5825,-1.5825,-1.5825,-1.5825,-1.5825,-1.5825,-1.5825,-1.5825,-1.5825,-1.5825,-1.5825,-1.592,-1.6393,-1.6864,-1.737,-1.8947,-1.9999,-2.014,-2.1079,-2.1534,-2.1134,-2.0693,-2.0476,-2.0346,-2.0086,-2.0002,-2.0539,-2.1271,-2.2102,-2.1954,-2.2064,-2.165,-2.0577,-2.0444,-1.9819,-1.9073,-1.8531,-1.8177,-1.7888,-1.7822,-1.771,-1.7764,-1.8431,-1.8617,-1.7946,-1.7567,-1.7643,-1.7303,-1.6847,-1.6589,-1.642,-1.6429,-1.6435,-1.6486,-1.6627,-1.662,-1.6627,-1.6593,-1.6553,-1.6466,-1.638,-1.638,-1.6306,-1.6099,-1.6012,-1.6139,-1.6039,-1.5858,-1.5825,-1.5825,-1.5825,-1.5825,-1.5825,-1.5825,-1.5825,-1.5825,-1.5825,-1.5825,-1.5825,-1.5825,-0.941,-0.7988,-0.7783,-0.708,-0.6232,-0.7869,-0.8658,-0.8909,-1.0547,-1.0949,-1.0413,-1.0019,-0.9826,-0.9677,-0.9673,-0.9624,-0.9628,-0.9673,-1.0301,-1.0881,-1.1512,-1.2587,-1.3559,-1.434,-1.4914,-1.5588,-1.5778,-1.5825,-1.5825,-1.5825,-1.5825,-1.5825,-1.5825,-1.5825,-1.5825,-1.5825,-1.5865,-1.5879,-1.5899,-1.5879,-1.5879,-1.5872,-1.5811,-1.5832,-1.5825,-1.5825,-1.5825,-1.6048,-1.6245,-1.656,-1.8356,-1.9241,-1.9338,-2.0513,-2.0945,-2.0416,-1.9714,-1.9469,-1.9334,-1.971,-2.0049,-2.0635,-2.1361,-2.1761,-2.1073,-2.0987,-2.0416,-1.9539,-1.9332,-1.8923,-1.8199,-1.7667,-1.7784,-1.7771,-1.7809,-1.7882,-1.7962,-1.838,-1.8418,-1.7825,-1.764,-1.7671,-1.7676,-1.7159,-1.6911,-1.6777,-1.6744,-1.6744,-1.6767,-1.6867,-1.6814,-1.6794,-1.6774,-1.674,-1.6707,-1.6673,-1.6723,-1.6587,-1.642,-1.6313,-1.6293,-1.6112,-1.5932,-1.5825,-1.5825,-1.5825,-1.5825,-1.5825,-1.5825,-1.5825,-1.5825,-1.5825,-1.5825,-1.5825,-1.5825,-1.0055,-0.8726,-0.8623,-0.8024,-0.7188,-0.8566,-0.8966,-0.8916,-1.0109,-1.0413,-0.992,-0.9723,-0.9624,-0.9624,-0.9624,-0.9624,-0.9624,-0.9624,-0.9916,-1.0355,-1.0984,-1.1663,-1.2635,-1.3661,-1.4532,-1.5016,-1.5445,-1.5825,-1.5825,-1.5852,-1.5832,-1.5825,-1.5872,-1.5825,-1.5825,-1.5858,-1.5932,-1.6072,-1.6099,-1.6099,-1.6099,-1.6092,-1.6019,-1.5791,-1.5825,-1.5825,-1.5852,-1.6019,-1.6152,-1.6683,-1.795,-1.8361,-1.8661,-1.999,-2.0164,-1.9722,-1.9052,-1.8735,-1.8516,-1.903,-1.9801,-2.0615,-2.1162,-2.103,-2.0004,-1.9849,-1.928,-1.861,-1.8304,-1.7996,-1.7793,-1.7635,-1.7681,-1.7733,-1.7786,-1.7891,-1.8048,-1.8304,-1.8304,-1.7687,-1.7582,-1.7608,-1.7574,-1.7462,-1.7235,-1.7092,-1.7072,-1.7072,-1.7081,-1.7134,-1.7101,-1.7094,-1.7081,-1.7027,-1.7001,-1.7038,-1.7025,-1.6911,-1.6734,-1.6627,-1.652,-1.6299,-1.6126,-1.5979,-1.5879,-1.5925,-1.5925,-1.5852,-1.5832,-1.5784,-1.5832,-1.5825,-1.5825,-1.5825,-1.5825,-1.031,-0.9365,-0.9316,-0.8726,-0.7985,-0.8821,-0.9069,-0.8924,-0.9723,-0.9969,-0.9624,-0.9624,-0.9624,-0.9624,-0.9624,-0.9624,-0.9624,-0.9624,-0.9624,-0.9916,-1.0306,-1.0886,-1.1707,-1.278,-1.395,-1.4388,-1.5255,-1.5825,-1.5832,-1.5919,-1.5979,-1.6012,-1.6032,-1.6046,-1.5804,-1.5891,-1.6072,-1.6226,-1.6373,-1.6393,-1.6449,-1.6393,-1.6353,-1.6146,-1.6146,-1.6152,-1.6199,-1.6326,-1.646,-1.6941,-1.7704,-1.8333,-1.8767,-1.9168,-1.9374,-1.9037,-1.8655,-1.8356,-1.8101,-1.8617,-1.9539,-2.012,-2.029,-1.9797,-1.9079,-1.8715,-1.8304,-1.7891,-1.7687,-1.7589,-1.7589,-1.7589,-1.7589,-1.7687,-1.7687,-1.774,-1.774,-1.7898,-1.7845,-1.7589,-1.7589,-1.7589,-1.7575,-1.7542,-1.7462,-1.7353,-1.736,-1.7308,-1.7361,-1.7415,-1.7442,-1.7442,-1.7455,-1.7388,-1.7321,-1.7333,-1.73,-1.7246,-1.7068,-1.6965,-1.6817,-1.6547,-1.64,-1.6319,-1.6219,-1.6119,-1.6099,-1.6119,-1.5992,-1.5798,-1.5791,-1.5825,-1.5825,-1.5825,-1.5825,-1.0068,-0.9624,-0.9575,-0.868,-0.7587,-0.8134,-0.8482,-0.868,-0.9327,-0.9673,-0.9624,-0.9624,-0.9624,-0.9624,-0.9624,-0.9624,-0.9624,-0.9624,-0.9624,-0.9723,-0.9821,-1.0355,-1.1154,-1.224,-1.3279,-1.4316,-1.4967,-1.5396,-1.5864,-1.5904,-1.6051,-1.6319,-1.6406,-1.6366,-1.5919,-1.6132,-1.6266,-1.6333,-1.6593,-1.6673,-1.67,-1.6693,-1.6653,-1.6553,-1.6533,-1.6513,-1.6533,-1.6633,-1.6774,-1.715,-1.7913,-1.8219,-1.8022,-1.8674,-1.8665,-1.7923,-1.7786,-1.7687,-1.7687,-1.8617,-1.9131,-1.9332,-1.9487,-1.8819,-1.7996,-1.774,-1.7845,-1.7589,-1.7589,-1.7589,-1.7589,-1.7589,-1.7589,-1.7589,-1.7589,-1.7589,-1.7589,-1.7589,-1.7589,-1.7589,-1.7589,-1.7589,-1.7589,-1.7582,-1.7582,-1.7542,-1.7569,-1.7589,-1.7589,-1.7589,-1.7589,-1.7589,-1.7589,-1.7542,-1.7468,-1.7522,-1.7515,-1.7475,-1.7368,-1.7233,-1.7072,-1.6834,-1.672,-1.6647,-1.6533,-1.6406,-1.6413,-1.644,-1.6172,-1.5899,-1.5845,-1.5825,-1.5825,-1.5778,-1.5778,-0.9776,-0.9624,-0.9624,-0.9278,-0.8829,-0.908,-0.9179,-0.9229,-0.9476,-0.9628,-0.9624,-0.9624,-0.9624,-0.9624,-0.9624,-0.9624,-0.9624,-0.9624,-0.9624,-0.9624,-0.9636,-0.9859,-1.059,-1.1537,-1.2492,-1.3468,-1.4202,-1.5159,-1.6433,-1.5918,-1.6037,-1.6358,-1.67,-1.6593,-1.648,-1.6553,-1.6633,-1.6834,-1.7012,-1.7045,-1.7052,-1.7038,-1.6921,-1.6754,-1.6754,-1.676,-1.678,-1.6907,-1.7119,-1.7246,-1.7946,-1.7873,-1.7621,-1.8199,-1.7996,-1.7635,-1.7589,-1.7589,-1.7641,-1.8101,-1.8461,-1.8662,-1.8558,-1.8094,-1.7641,-1.7589,-1.7589,-1.7589,-1.7589,-1.7589,-1.7589,-1.7589,-1.7589,-1.7589,-1.7589,-1.7589,-1.7589,-1.7589,-1.7589,-1.7589,-1.7589,-1.7589,-1.7589,-1.7589,-1.7589,-1.7589,-1.7589,-1.7589,-1.7589,-1.7589,-1.7589,-1.7589,-1.7589,-1.7589,-1.7589,-1.7589,-1.7589,-1.7535,-1.7475,-1.7375,-1.7221,-1.7088,-1.6947,-1.6834,-1.676,-1.6693,-1.6613,-1.6486,-1.6179,-1.5959,-1.5831,-1.5778,-1.5778,-1.573,-1.573,-0.9624,-0.9624,-0.9624,-0.9624,-0.9624,-0.9624,-0.9624,-0.9624,-0.9628,-0.9657,-0.9701,-0.9665,-0.9669,-0.9635,-0.9652,-0.9628,-0.9624,-0.9624,-0.9624,-0.9636,-0.9701,-0.9828,-1.0264,-1.0972,-1.1953,-1.2761,-1.3397,-1.4338,-1.589,-1.546,-1.5941,-1.6752,-1.7001,-1.7048,-1.6987,-1.6981,-1.6927,-1.7152,-1.7239,-1.7353,-1.7353,-1.7333,-1.7273,-1.7094,-1.7041,-1.7041,-1.7068,-1.7168,-1.7347,-1.7355,-1.7455,-1.7589,-1.7589,-1.7589,-1.7589,-1.7589,-1.7589,-1.7589,-1.7641,-1.7641,-1.8048,-1.8408,-1.7891,-1.7635,-1.7589,-1.7589,-1.7589,-1.7589,-1.7589,-1.7595,-1.7602,-1.7602,-1.7595,-1.7595,-1.7595,-1.7595,-1.7589,-1.7589,-1.7589,-1.7589,-1.7589,-1.7589,-1.7589,-1.7589,-1.7589,-1.7589,-1.7589,-1.7589,-1.7589,-1.7589,-1.7589,-1.7589,-1.7589,-1.7589,-1.7589,-1.7589,-1.7589,-1.7589,-1.7535,-1.7482,-1.7448,-1.7367,-1.7168,-1.7068,-1.7094,-1.7034,-1.6747,-1.6513,-1.6266,-1.5984,-1.5716,-1.5683,-1.573,-1.5683,-1.5588,-0.9624,-0.9624,-0.9624,-0.9624,-0.9628,-0.9644,-0.9648,-0.964,-0.9628,-0.9721,-0.9864,-0.9693,-0.9685,-0.9799,-0.9701,-0.9657,-0.9685,-0.9681,-0.9701,-0.973,-0.9847,-0.9908,-1.0301,-1.0974,-1.1652,-1.2119,-1.2657,-1.3569,-1.4951,-1.5721,-1.6496,-1.7232,-1.7428,-1.7428,-1.7368,-1.7281,-1.7246,-1.734,-1.7447,-1.7482,-1.7541,-1.7574,-1.7482,-1.7422,-1.7428,-1.7428,-1.7455,-1.7502,-1.7528,-1.7555,-1.7582,-1.7589,-1.7589,-1.7589,-1.7589,-1.7589,-1.7589,-1.7589,-1.7589,-1.7589,-1.7641,-1.7891,-1.774,-1.7589,-1.7589,-1.7589,-1.7589,-1.7589,-1.7589,-1.7609,-1.7622,-1.7615,-1.7661,-1.7602,-1.7602,-1.7595,-1.7589,-1.7589,-1.7589,-1.7589,-1.7589,-1.7589,-1.7589,-1.7589,-1.7615,-1.7589,-1.7589,-1.7589,-1.7589,-1.7589,-1.7589,-1.7589,-1.7589,-1.7589,-1.7589,-1.7589,-1.7589,-1.7589,-1.7589,-1.7549,-1.7588,-1.7574,-1.7408,-1.7368,-1.7495,-1.7348,-1.6867,-1.6593,-1.642,-1.6089,-1.5782,-1.5627,-1.5634,-1.5506,-1.5404,-0.9624,-0.9624,-0.9624,-0.9624,-0.9644,-0.9758,-0.9811,-0.9799,-0.9689,-0.9726,-0.9876,-0.9705,-0.9705,-0.9701,-0.977,-0.9803,-0.986,-0.9933,-1.0049,-1.0034,-1.0042,-1.0156,-1.0355,-1.0693,-1.1318,-1.171,-1.2165,-1.2979,-1.5299,-1.6314,-1.6911,-1.7555,-1.7589,-1.7589,-1.7555,-1.7502,-1.7455,-1.7448,-1.7535,-1.7562,-1.7589,-1.7589,-1.7589,-1.7589,-1.7589,-1.7589,-1.7589,-1.7589,-1.7589,-1.7589,-1.7589,-1.7589,-1.7589,-1.7589,-1.7589,-1.7589,-1.7589,-1.7589,-1.7589,-1.7589,-1.7589,-1.7589,-1.7589,-1.7589,-1.7589,-1.7589,-1.7589,-1.7589,-1.7635,-1.7689,-1.7709,-1.7702,-1.7702,-1.7702,-1.7695,-1.7675,-1.7682,-1.7729,-1.7729,-1.7756,-1.7742,-1.7749,-1.7729,-1.7649,-1.7662,-1.7615,-1.7602,-1.7622,-1.7602,-1.7609,-1.7589,-1.7589,-1.7589,-1.7589,-1.7589,-1.7589,-1.7589,-1.7589,-1.7589,-1.7589,-1.7569,-1.7615,-1.7582,-1.7589,-1.7589,-1.7275,-1.6814,-1.664,-1.6607,-1.6162,-1.5807,-1.5665,-1.5584,-1.5399,-1.5188,-0.9624,-0.9624,-0.9624,-0.9624,-0.9657,-0.9811,-0.992,-0.9961,-0.988,-0.9904,-0.9977,-0.9892,-0.9839,-0.9872,-0.9953,-0.9998,-1.0057,-1.0122,-1.018,-1.0192,-1.0241,-1.0314,-1.0362,-1.0505,-1.0954,-1.126,-1.161,-1.2311,-1.4942,-1.6829,-1.7582,-1.7582,-1.7589,-1.7589,-1.7575,-1.7569,-1.7575,-1.7569,-1.7582,-1.7589,-1.7589,-1.7589,-1.7589,-1.7589,-1.7589,-1.7589,-1.7589,-1.7589,-1.7589,-1.7589,-1.7589,-1.7589,-1.7589,-1.7589,-1.7589,-1.7589,-1.7589,-1.7589,-1.7589,-1.7589,-1.7589,-1.7589,-1.7589,-1.7589,-1.7589,-1.7589,-1.7589,-1.7595,-1.7702,-1.7789,-1.7802,-1.7816,-1.7822,-1.7829,-1.7802,-1.7776,-1.7836,-1.7903,-1.7936,-1.7969,-1.7983,-1.7989,-1.7936,-1.7822,-1.7816,-1.7936,-1.7923,-1.7829,-1.7756,-1.7662,-1.7622,-1.7589,-1.7589,-1.7589,-1.7589,-1.7589,-1.7589,-1.7589,-1.7589,-1.7589,-1.7589,-1.7589,-1.7589,-1.7589,-1.7589,-1.7255,-1.6934,-1.6894,-1.6807,-1.6312,-1.5911,-1.5761,-1.5569,-1.5314,-1.5088,-0.9624,-0.9624,-0.9628,-0.9644,-0.9673,-0.9843,-1.0022,-1.0228,-1.0245,-1.0197,-1.0237,-1.016,-1.0171,-1.0091,-1.0208,-1.018,-1.0205,-1.0249,-1.0351,-1.0217,-1.0379,-1.0477,-1.0521,-1.0603,-1.0815,-1.0789,-1.1072,-1.1987,-1.4191,-1.6234,-1.7589,-1.7589,-1.7589,-1.7589,-1.7589,-1.7589,-1.7589,-1.7589,-1.7589,-1.7589,-1.7589,-1.7589,-1.7589,-1.7589,-1.7589,-1.7589,-1.7589,-1.7589,-1.7589,-1.7589,-1.7589,-1.7589,-1.7589,-1.7589,-1.7589,-1.7589,-1.7589,-1.7589,-1.7589,-1.7589,-1.7589,-1.7589,-1.7589,-1.7589,-1.7589,-1.7589,-1.7589,-1.7642,-1.7749,-1.7936,-1.7996,-1.807,-1.8103,-1.8123,-1.8123,-1.809,-1.8103,-1.817,-1.823,-1.8243,-1.8243,-1.825,-1.8237,-1.8136,-1.8096,-1.8277,-1.827,-1.811,-1.8016,-1.7876,-1.7736,-1.7662,-1.7595,-1.7595,-1.7589,-1.7589,-1.7589,-1.7589,-1.7589,-1.7589,-1.7589,-1.7589,-1.7589,-1.7589,-1.7575,-1.7408,-1.7188,-1.7101,-1.691,-1.6432,-1.6058,-1.5846,-1.5582,-1.5339,-1.5017,-0.9624,-0.9624,-0.9624,-0.9697,-0.9839,-1.0014,-1.0197,-1.0379,-1.0513,-1.0481,-1.0363,-1.0237,-1.0224,-1.0197,-1.0327,-1.0367,-1.0383,-1.0448,-1.0546,-1.0534,-1.0595,-1.0586,-1.0619,-1.0655,-1.0692,-1.0692,-1.1072,-1.2041,-1.4132,-1.618,-1.7589,-1.7589,-1.7589,-1.7589,-1.7589,-1.7589,-1.7589,-1.7589,-1.7589,-1.7589,-1.7589,-1.7589,-1.7589,-1.7589,-1.7589,-1.7589,-1.7589,-1.7589,-1.7589,-1.7589,-1.7589,-1.7589,-1.7589,-1.7589,-1.7589,-1.7589,-1.7589,-1.7589,-1.7589,-1.7589,-1.7602,-1.7609,-1.7609,-1.7595,-1.7589,-1.7589,-1.7635,-1.7716,-1.7862,-1.8076,-1.8217,-1.831,-1.8377,-1.8404,-1.845,-1.8417,-1.839,-1.847,-1.8537,-1.8537,-1.8531,-1.8531,-1.8524,-1.8484,-1.8444,-1.8437,-1.8444,-1.839,-1.8384,-1.827,-1.7989,-1.7869,-1.7649,-1.7609,-1.7595,-1.7589,-1.7589,-1.7589,-1.7589,-1.7589,-1.7589,-1.7589,-1.7589,-1.7589,-1.7549,-1.7474,-1.736,-1.7239,-1.6939,-1.6521,-1.6228,-1.6003,-1.5797,-1.5532,-1.518,-0.9624,-0.9624,-0.9628,-0.9726,-0.99,-1.0135,-1.0266,-1.0444,-1.0619,-1.0643,-1.055,-1.044,-1.0359,-1.0327,-1.0473,-1.0542,-1.0554,-1.0635,-1.0647,-1.0676,-1.0692,-1.068,-1.0692,-1.0692,-1.0692,-1.0798,-1.1932,-1.3221,-1.4454,-1.6234,-1.7589,-1.7589,-1.7589,-1.7589,-1.7589,-1.7589,-1.7589,-1.7589,-1.7589,-1.7589,-1.7589,-1.7589,-1.7589,-1.7589,-1.7589,-1.7589,-1.7589,-1.7589,-1.7589,-1.7589,-1.7589,-1.7589,-1.7589,-1.7589,-1.7589,-1.7589,-1.7589,-1.7589,-1.7589,-1.7609,-1.7655,-1.7716,-1.7789,-1.7829,-1.8056,-1.807,-1.7956,-1.805,-1.835,-1.8577,-1.8477,-1.8524,-1.8517,-1.8524,-1.8664,-1.8738,-1.8831,-1.8958,-1.8985,-1.8985,-1.8985,-1.8985,-1.8931,-1.8778,-1.8771,-1.8891,-1.8844,-1.8698,-1.8684,-1.8657,-1.8377,-1.8136,-1.7949,-1.7695,-1.7595,-1.7589,-1.7589,-1.7589,-1.7589,-1.7589,-1.7589,-1.7589,-1.7589,-1.7589,-1.7575,-1.7522,-1.746,-1.7263,-1.7003,-1.6645,-1.6411,-1.6199,-1.5959,-1.574,-1.5412,-0.9624,-0.9628,-0.9607,-0.9762,-0.9937,-1.0119,-1.0306,-1.0481,-1.0627,-1.0692,-1.0676,-1.0668,-1.0595,-1.0574,-1.0611,-1.066,-1.0688,-1.0684,-1.0688,-1.0692,-1.0692,-1.0692,-1.0692,-1.0692,-1.0852,-1.1664,-1.2847,-1.3706,-1.4615,-1.6505,-1.7589,-1.7589,-1.7589,-1.7589,-1.7589,-1.7589,-1.7589,-1.7589,-1.7589,-1.7589,-1.7589,-1.7589,-1.7589,-1.7589,-1.7589,-1.7589,-1.7589,-1.7589,-1.7589,-1.7589,-1.7589,-1.7589,-1.7589,-1.7589,-1.7589,-1.7589,-1.7589,-1.7589,-1.7602,-1.7669,-1.7816,-1.7896,-1.7989,-1.8203,-1.8417,-1.8457,-1.8343,-1.8457,-1.8758,-1.8838,-1.8744,-1.8751,-1.8731,-1.8744,-1.8911,-1.9032,-1.9185,-1.9377,-1.9377,-1.9377,-1.9377,-1.9377,-1.9225,-1.9072,-1.9112,-1.9239,-1.9219,-1.9085,-1.8971,-1.8931,-1.8784,-1.8564,-1.837,-1.809,-1.7756,-1.7695,-1.7736,-1.7589,-1.7589,-1.7589,-1.7589,-1.7589,-1.7589,-1.7589,-1.7569,-1.7549,-1.745,-1.7298,-1.6996,-1.6666,-1.6449,-1.6212,-1.5995,-1.5769,-1.5678,-0.9624,-0.9636,-0.9774,-0.9941,-1.0123,-1.0298,-1.0485,-1.0631,-1.0668,-1.0692,-1.0692,-1.0692,-1.0664,-1.0639,-1.0664,-1.0692,-1.0692,-1.0692,-1.0692,-1.0692,-1.0692,-1.0692,-1.0692,-1.0747,-1.1286,-1.2254,-1.3383,-1.446,-1.5279,-1.6768,-1.7609,-1.7649,-1.7629,-1.7622,-1.7609,-1.7629,-1.7689,-1.7702,-1.7682,-1.7682,-1.7629,-1.7615,-1.7589,-1.7589,-1.7589,-1.7589,-1.7589,-1.7589,-1.7589,-1.7589,-1.7589,-1.7589,-1.7589,-1.7589,-1.7589,-1.7589,-1.7589,-1.7589,-1.7615,-1.7789,-1.7916,-1.8049,-1.8223,-1.8437,-1.8631,-1.8778,-1.8724,-1.8758,-1.8958,-1.8958,-1.8925,-1.9098,-1.9138,-1.9138,-1.9239,-1.9245,-1.9383,-1.941,-1.941,-1.941,-1.941,-1.941,-1.939,-1.9252,-1.9252,-1.9397,-1.939,-1.9219,-1.9199,-1.9178,-1.9145,-1.8965,-1.8758,-1.843,-1.8076,-1.7983,-1.7949,-1.7749,-1.7589,-1.7589,-1.7589,-1.7589,-1.7589,-1.7589,-1.7536,-1.747,-1.7378,-1.7173,-1.6849,-1.6558,-1.6411,-1.6193,-1.5974,-1.5843,-1.5747]}]]